[[{"header":{"parameterUnit":"m.s-1","parameterCategory":1,"la1":31.0,"la2":29.5877,"lo1":-88.7671,"lo2":-86.6584,"dy":0.0162,"dx":0.0185,"nx":115,"ny":88,"refTime":"2024-07-08T06:00:00:Z","depth":0,"parameterNumber":2,"parameterNumberName":"U-component_of_WINDS"},"data":[0.0,0.0,0.0,0.0,0.0,0.0,0.0,0.0,0.0,0.0,0.0,0.0,0.0,0.0,0.0,0.0,0.0,0.0,0.0,0.0,0.0,0.0,0.0,0.0,0.0,0.0,0.0,0.0,0.0,0.0,0.0,0.0,0.0,0.0,0.0,0.0,0.0,0.0,0.0,0.0,0.0,0.0,0.0,0.0,0.0,0.0,0.0,0.0,0.0,0.0,0.0,0.0,0.0,0.0,0.0,0.0,0.0,0.0,0.0,0.0,0.0,0.0,0.0,0.0,0.0,0.0,0.0,0.0,0.0,0.0,0.0,0.0,0.0,0.0,0.0,0.0,0.0,0.0,0.0,0.0,0.0,0.0,0.0,0.0,0.0,0.0,0.0,0.0,0.0,0.0,0.0,0.0,0.0,0.0,0.0,0.0,0.0,0.0,0.0,0.0,0.0,0.0,0.0,0.0,0.0,0.0,0.0,0.0,0.0,0.0,0.0,0.0,0.0,0.0,0.0,0.0,0.0,0.0,0.0,0.0,0.0,0.0,0.0,0.0,0.0,0.0,0.0,0.0,0.0,0.0,0.0,0.0,0.0,0.0,0.0,0.0,0.0,0.0,0.0,0.0,0.0,0.0,0.0,0.0,0.0,0.0,0.0,0.0,0.0,0.0,0.0,0.0,0.0,0.0,0.0,0.0,0.0,0.0,0.0,0.0,0.0,0.0,0.0,0.0,0.0,0.0,0.0,0.0,0.0,0.0,0.0,0.0,0.0,0.0,0.0,0.0,0.0,0.0,0.0,0.0,0.0,0.0,0.0,0.0,0.0,0.0,0.0,0.0,0.0,0.0,0.0,0.0,0.0,0.0,0.0,0.0,0.0,0.0,0.0,0.0,0.0,0.0,0.0,0.0,0.0,0.0,0.0,0.0,0.0,0.0,0.0,0.0,0.0,0.0,0.0,0.0,0.0,0.0,0.0,0.0,0.0,0.0,0.0,0.0,0.0,0.0,0.0,0.0,0.0,0.0,0.0,0.0,0.0,0.0,0.0,0.0,0.0,0.0,0.0,0.0,0.0,0.0,0.0,0.0,0.0,0.0,0.0,0.0,0.0,0.0,0.0,0.0,0.0,0.0,0.0,0.0,0.0,0.0,0.0,0.0,0.0,0.0,0.0,0.0,0.0,0.0,0.0,0.0,0.0,0.0,0.0,0.0,0.0,0.0,0.0,0.0,0.0,0.0,0.0,0.0,0.0,0.0,0.0,0.0,0.0,0.0,0.0,0.0,0.0,0.0,0.0,0.0,0.0,0.0,0.0,0.0,0.0,0.0,0.0,0.0,0.0,0.0,0.0,0.0,0.0,0.0,0.0,0.0,0.0,0.0,0.0,0.0,0.0,0.0,0.0,0.0,0.0,0.0,0.0,0.0,0.0,0.0,0.0,0.0,0.0,0.0,0.0,0.0,0.0,0.0,0.0,0.0,0.0,0.0,0.0,0.0,0.0,0.0,0.0,0.0,0.0,0.0,0.0,0.0,0.0,0.0,0.0,0.0,0.0,0.0,0.0,0.0,0.0,0.0,0.0,0.0,0.0,0.0,0.0,0.0,0.0,0.0,0.0,0.0,0.0,0.0,0.0,0.0,0.0,0.0,0.0,0.0,0.0,0.0,0.0,0.0,0.0,0.0,0.0,0.0,0.0,0.0,0.0,0.0,0.0,0.0,0.0,0.0,0.0,0.0,0.0,0.0,0.0,0.0,0.0,0.0,0.0,0.0,0.0,0.0,0.0,0.0,0.0,0.0,0.0,0.0,0.0,0.0,0.0,0.0,0.0,0.0,0.0,0.0,0.0,0.0,0.0,0.0,0.0,0.0,0.0,0.0,0.0,0.0,0.0,0.0,0.0,0.0,0.0,0.0,0.0,0.0,0.0,0.0,0.0,0.0,0.0,0.0,0.0,0.0,0.0,0.0,0.0,0.0,0.0,0.0,0.0,0.0,0.0,0.0,0.0,0.0,0.0,0.0,0.0,0.0,0.0,0.0,0.0,0.0,0.0,0.0,0.0,0.0,0.0,0.0,0.0,0.0,0.0,0.0,0.0,0.0,0.0,0.0,0.0,0.0,0.0,0.0,0.0,0.0,0.0,0.0,0.0,0.0,0.0,0.0,0.0,0.0,0.0,0.0,0.0,0.0,0.0,0.0,0.0,0.0,0.0,0.0,0.0,0.0,0.0,0.0,0.0,0.0,0.0,0.0,0.0,0.0,0.0,0.0,0.0,0.0,0.0,0.0,0.0,0.0,0.0,0.0,0.0,0.0,0.0,0.0,0.0,0.0,0.0,0.0,0.0,0.0,0.0,0.0,0.0,0.0,0.0,0.0,0.0,0.0,0.0,0.0,0.0,0.0,0.0,0.0,0.0,0.0,0.0,0.0,0.0,0.0,0.0,0.0,0.0,0.0,0.0,0.0,0.0,0.0,0.0,0.0,0.0,0.0,0.0,0.0,0.0,0.0,0.0,0.0,0.0,0.0,0.0,0.0,0.0,0.0,0.0,0.0,0.0,0.0,0.0,0.0,0.0,0.0,0.0,0.0,0.0,0.0,0.0,0.0,0.0,0.0,0.0,0.0,0.0,0.0,0.0,0.0,0.0,0.0,0.0,0.0,0.0,0.0,0.0,0.0,0.0,0.0,0.0,0.0,0.0,0.0,0.0,0.0,0.0,0.0,0.0,0.0,0.0,0.0,0.0,0.0,0.0,0.0,0.0,0.0,0.0,0.0,0.0,0.0,0.0,0.0,0.0,0.0,0.0,0.0,0.0,0.0,0.0,0.0,0.0,0.0,0.0,0.0,0.0,0.0,0.0,0.0,0.0,0.0,0.0,0.0,0.0,0.0,0.0,0.0,0.0,0.0,0.0,0.0,0.0,0.0,0.0,0.0,0.0,0.0,0.0,0.0,0.0,0.0,0.0,0.0,0.0,0.0,0.0,0.0,0.0,0.0,0.0,0.0,0.0,0.0,0.0,0.0,0.0,0.0,0.0,0.0,0.0,0.0,0.0,0.0,0.0,0.0,0.0,0.0,0.0,0.0,0.0,0.0,0.0,0.0,0.0,0.0,0.0,0.0,0.0,0.0,0.0,0.0,0.0,0.0,0.0,0.0,0.0,0.0,0.0,0.0,0.0,0.0,0.0,0.0,0.0,0.0,0.0,0.0,0.0,0.0,0.0,0.0,0.0,0.0,0.0,0.0,0.0,0.0,0.0,0.0,0.0,0.0,0.0,0.0,0.0,0.0,0.0,0.0,0.0,0.0,0.0,0.0,0.0,0.0,0.0,0.0,0.0,0.0,0.0,0.0,0.0,0.0,0.0,0.0,0.0,0.0,0.0,0.0,0.0,0.0,0.0,0.0,0.0,0.0,0.0,0.0,0.0,0.0,0.0,0.0,0.0,0.0,0.0,0.0,0.0,0.0,0.0,0.0,0.0,0.0,0.0,0.0,0.0,0.0,0.0,0.0,0.0,0.0,0.0,0.0,0.0,0.0,0.0,0.0,0.0,0.0,0.0,0.0,0.0,0.0,0.0,0.0,0.0,0.0,0.0,0.0,0.0,0.0,0.0,0.0,0.0,0.0,0.0,0.0,0.0,0.0,0.0,0.0,0.0,0.0,0.0,0.0,0.0,0.0,0.0,0.0,0.0,0.0,0.0,0.0,0.0,0.0,0.0,0.0,0.0,0.0,0.0,0.0,0.0,0.0,0.0,0.0,0.0,0.0,0.0,0.0,0.0,0.0,0.0,0.0,0.0,0.0,0.0,0.0,0.0,0.0,0.0,0.0,0.0,0.0,0.0,0.0,0.0,0.0,0.0,0.0,0.0,0.0,0.0,0.0,0.0,0.0,0.0,0.0,0.0,0.0,0.0,0.0,0.0,0.0,0.0,0.0,0.0,0.0,0.0,0.0,0.0,0.0,0.0,0.0,0.0,0.0,0.0,0.0,0.0,0.0,0.0,0.0,0.0,0.0,0.0,0.0,0.0,0.0,0.0,0.0,0.0,0.0,0.0,0.0,0.0,0.0,0.0,0.0,0.0,0.0,0.0,0.0,0.0,0.0,0.0,0.0,0.0,0.0,0.0,0.0,0.0,0.0,0.0,0.0,0.0,0.0,0.0,0.0,0.0,0.0,0.0,0.0,0.0,0.0,0.0,0.0,0.0,0.0,0.0,0.0,0.0,0.0,0.0,0.0,0.0,0.0,0.0,0.0,0.0,0.0,0.0,0.0,0.0,0.0,0.0,0.0,-2.2477,0.0,0.0,0.0,0.0,0.0,0.0,0.0,0.0,0.0,0.0,0.0,0.0,0.0,0.0,0.0,0.0,0.0,0.0,0.0,0.0,0.0,0.0,0.0,0.0,0.0,0.0,0.0,0.0,0.0,0.0,0.0,0.0,0.0,0.0,0.0,0.0,0.0,0.0,0.0,0.0,0.0,0.0,0.0,0.0,0.0,0.0,0.0,0.0,0.0,0.0,0.0,0.0,0.0,0.0,0.0,0.0,0.0,0.0,0.0,0.0,0.0,0.0,0.0,0.0,0.0,0.0,0.0,0.0,0.0,0.0,0.0,0.0,0.0,0.0,0.0,0.0,0.0,0.0,0.0,0.0,0.0,0.0,0.0,0.0,0.0,0.0,0.0,0.0,0.0,0.0,0.0,0.0,0.0,0.0,0.0,0.0,0.0,0.0,0.0,0.0,0.0,0.0,0.0,0.0,0.0,0.0,0.0,0.0,0.0,0.0,-2.4936,-2.4966,-2.3772,-2.2991,-2.2695,0.0,0.0,0.0,0.0,0.0,0.0,0.0,0.0,0.0,0.0,0.0,0.0,0.0,0.0,0.0,0.0,0.0,0.0,0.0,0.0,0.0,0.0,0.0,0.0,0.0,0.0,0.0,0.0,0.0,0.0,0.0,0.0,0.0,0.0,0.0,0.0,0.0,0.0,0.0,0.0,0.0,0.0,0.0,0.0,0.0,0.0,0.0,0.0,0.0,0.0,0.0,0.0,0.0,0.0,0.0,0.0,0.0,0.0,0.0,0.0,0.0,0.0,0.0,0.0,0.0,0.0,0.0,0.0,0.0,0.0,0.0,0.0,0.0,0.0,0.0,0.0,0.0,0.0,0.0,0.0,0.0,0.0,0.0,0.0,0.0,0.0,0.0,0.0,0.0,0.0,0.0,0.0,0.0,0.0,0.0,0.0,0.0,0.0,0.0,0.0,0.0,0.0,0.0,0.0,0.0,0.0,0.0,0.0,0.0,0.0,0.0,0.0,-2.4121,-2.3335,-2.3141,0.0,0.0,0.0,0.0,0.0,0.0,0.0,0.0,0.0,0.0,0.0,0.0,0.0,0.0,0.0,0.0,0.0,0.0,0.0,0.0,0.0,0.0,0.0,0.0,0.0,0.0,0.0,0.0,0.0,0.0,0.0,0.0,0.0,0.0,0.0,0.0,0.0,0.0,0.0,0.0,0.0,0.0,0.0,0.0,0.0,0.0,0.0,0.0,0.0,0.0,0.0,0.0,0.0,0.0,0.0,0.0,0.0,0.0,0.0,0.0,0.0,0.0,0.0,0.0,0.0,0.0,0.0,0.0,0.0,0.0,0.0,0.0,0.0,0.0,0.0,0.0,0.0,0.0,0.0,0.0,0.0,0.0,0.0,0.0,0.0,0.0,0.0,0.0,0.0,0.0,0.0,0.0,0.0,0.0,0.0,0.0,0.0,0.0,0.0,0.0,0.0,0.0,0.0,0.0,0.0,0.0,0.0,0.0,0.0,0.0,-2.5218,-2.6673,-2.6716,0.0,-2.4399,0.0,0.0,0.0,0.0,0.0,0.0,0.0,0.0,0.0,0.0,0.0,0.0,0.0,0.0,0.0,0.0,0.0,0.0,0.0,0.0,0.0,0.0,0.0,0.0,0.0,0.0,0.0,0.0,0.0,0.0,0.0,0.0,0.0,0.0,0.0,0.0,0.0,0.0,0.0,0.0,0.0,0.0,0.0,0.0,0.0,0.0,0.0,0.0,0.0,0.0,0.0,0.0,0.0,0.0,0.0,0.0,0.0,0.0,0.0,0.0,0.0,0.0,0.0,0.0,0.0,0.0,0.0,0.0,0.0,0.0,0.0,0.0,0.0,0.0,0.0,0.0,0.0,0.0,0.0,0.0,0.0,0.0,0.0,0.0,0.0,0.0,0.0,0.0,0.0,0.0,0.0,0.0,0.0,0.0,0.0,0.0,0.0,0.0,0.0,0.0,0.0,0.0,0.0,0.0,0.0,0.0,0.0,0.0,0.0,0.0,0.0,-2.7059,-2.6204,-2.5105,0.0,0.0,0.0,0.0,0.0,0.0,0.0,0.0,0.0,0.0,0.0,0.0,0.0,0.0,0.0,0.0,0.0,0.0,0.0,0.0,0.0,0.0,0.0,0.0,0.0,0.0,0.0,0.0,0.0,0.0,0.0,0.0,0.0,0.0,0.0,0.0,0.0,0.0,0.0,0.0,0.0,0.0,0.0,0.0,0.0,0.0,0.0,0.0,0.0,0.0,0.0,0.0,0.0,0.0,0.0,0.0,0.0,0.0,0.0,0.0,0.0,0.0,0.0,0.0,0.0,0.0,0.0,0.0,0.0,0.0,0.0,0.0,0.0,0.0,0.0,0.0,0.0,0.0,0.0,0.0,0.0,0.0,0.0,0.0,0.0,0.0,0.0,0.0,0.0,0.0,0.0,0.0,0.0,0.0,0.0,0.0,0.0,0.0,0.0,0.0,0.0,0.0,0.0,0.0,0.0,0.0,0.0,0.0,0.0,0.0,-2.646,0.0,-2.7259,-2.5978,-2.4464,-2.2873,0.0,0.0,0.0,0.0,0.0,0.0,0.0,0.0,0.0,0.0,0.0,0.0,0.0,0.0,0.0,0.0,0.0,0.0,0.0,0.0,0.0,0.0,0.0,0.0,0.0,0.0,0.0,0.0,0.0,0.0,0.0,0.0,0.0,0.0,0.0,0.0,0.0,0.0,0.0,0.0,0.0,0.0,0.0,0.0,0.0,0.0,0.0,0.0,0.0,0.0,0.0,0.0,0.0,0.0,0.0,0.0,0.0,0.0,0.0,0.0,0.0,0.0,0.0,0.0,0.0,0.0,0.0,0.0,0.0,0.0,0.0,0.0,0.0,0.0,0.0,0.0,0.0,0.0,0.0,0.0,0.0,0.0,0.0,0.0,0.0,0.0,0.0,0.0,0.0,0.0,0.0,0.0,0.0,0.0,0.0,0.0,0.0,0.0,0.0,0.0,0.0,0.0,0.0,0.0,0.0,0.0,0.0,0.0,0.0,-2.7321,-2.6982,-2.7787,-2.6975,-2.5054,0.0,0.0,0.0,0.0,0.0,0.0,0.0,0.0,0.0,0.0,0.0,0.0,0.0,0.0,0.0,0.0,0.0,0.0,0.0,0.0,0.0,0.0,0.0,0.0,0.0,0.0,0.0,0.0,0.0,0.0,0.0,0.0,0.0,0.0,0.0,0.0,0.0,0.0,0.0,0.0,0.0,0.0,0.0,0.0,0.0,0.0,0.0,0.0,0.0,0.0,0.0,0.0,0.0,0.0,0.0,0.0,0.0,0.0,0.0,0.0,0.0,0.0,0.0,0.0,0.0,0.0,0.0,0.0,0.0,0.0,0.0,0.0,0.0,0.0,0.0,0.0,0.0,0.0,0.0,0.0,0.0,0.0,0.0,0.0,0.0,0.0,0.0,0.0,0.0,0.0,0.0,0.0,0.0,0.0,0.0,0.0,0.0,0.0,0.0,0.0,0.0,0.0,0.0,0.0,0.0,0.0,0.0,0.0,0.0,-2.5831,-2.6355,-2.7732,-2.9891,-2.6851,-2.4759,0.0,0.0,0.0,0.0,0.0,0.0,0.0,0.0,0.0,0.0,0.0,0.0,0.0,0.0,0.0,0.0,0.0,0.0,0.0,0.0,0.0,0.0,0.0,0.0,0.0,0.0,0.0,0.0,0.0,0.0,0.0,0.0,0.0,0.0,0.0,0.0,0.0,0.0,0.0,0.0,0.0,0.0,0.0,0.0,0.0,0.0,0.0,0.0,0.0,0.0,0.0,0.0,0.0,0.0,0.0,0.0,0.0,0.0,0.0,0.0,0.0,0.0,0.0,0.0,0.0,0.0,0.0,0.0,0.0,0.0,0.0,0.0,0.0,0.0,0.0,0.0,0.0,0.0,0.0,0.0,0.0,0.0,0.0,0.0,0.0,0.0,0.0,0.0,0.0,0.0,0.0,0.0,0.0,0.0,0.0,0.0,0.0,0.0,0.0,0.0,0.0,0.0,0.0,0.0,0.0,0.0,0.0,0.0,0.0,-2.5713,0.0,-2.8851,0.0,-2.6833,-2.4493,0.0,0.0,0.0,0.0,0.0,0.0,0.0,0.0,0.0,0.0,0.0,0.0,0.0,0.0,0.0,0.0,0.0,0.0,0.0,0.0,0.0,0.0,0.0,0.0,0.0,0.0,0.0,0.0,0.0,0.0,0.0,0.0,0.0,0.0,0.0,0.0,0.0,0.0,0.0,0.0,0.0,0.0,0.0,0.0,0.0,0.0,0.0,0.0,0.0,0.0,0.0,0.0,0.0,0.0,0.0,0.0,0.0,0.0,0.0,0.0,0.0,0.0,0.0,0.0,0.0,0.0,0.0,0.0,0.0,0.0,0.0,0.0,0.0,0.0,0.0,0.0,0.0,0.0,0.0,0.0,0.0,0.0,0.0,0.0,0.0,0.0,0.0,0.0,0.0,0.0,0.0,0.0,0.0,0.0,0.0,0.0,0.0,0.0,0.0,0.0,0.0,0.0,0.0,0.0,0.0,0.0,0.0,0.0,-2.4951,-2.8767,-3.0375,-3.0111,-2.7952,-2.6998,-2.4318,0.0,0.0,0.0,0.0,0.0,0.0,0.0,0.0,0.0,0.0,0.0,0.0,0.0,0.0,0.0,0.0,0.0,0.0,0.0,0.0,0.0,0.0,0.0,0.0,0.0,0.0,0.0,0.0,0.0,0.0,0.0,0.0,0.0,0.0,0.0,0.0,0.0,0.0,0.0,0.0,0.0,0.0,0.0,0.0,0.0,0.0,0.0,0.0,0.0,0.0,0.0,0.0,0.0,0.0,0.0,0.0,0.0,0.0,0.0,0.0,0.0,0.0,0.0,0.0,0.0,0.0,0.0,0.0,0.0,0.0,0.0,0.0,0.0,0.0,0.0,0.0,0.0,0.0,0.0,0.0,0.0,0.0,0.0,0.0,0.0,0.0,0.0,0.0,0.0,0.0,0.0,0.0,0.0,0.0,0.0,0.0,0.0,0.0,0.0,0.0,0.0,0.0,0.0,0.0,0.0,0.0,0.0,0.0,0.0,-2.7299,-2.8374,-2.9359,-3.013,-2.6796,-2.4502,0.0,0.0,0.0,0.0,0.0,0.0,0.0,0.0,0.0,0.0,0.0,0.0,0.0,0.0,0.0,0.0,0.0,0.0,0.0,0.0,0.0,0.0,0.0,0.0,0.0,0.0,0.0,0.0,0.0,0.0,0.0,0.0,0.0,0.0,0.0,0.0,0.0,0.0,0.0,0.0,0.0,0.0,0.0,0.0,0.0,0.0,0.0,0.0,0.0,0.0,0.0,0.0,0.0,0.0,0.0,0.0,0.0,0.0,0.0,0.0,0.0,0.0,0.0,0.0,0.0,0.0,0.0,0.0,0.0,0.0,0.0,0.0,0.0,0.0,0.0,0.0,0.0,0.0,0.0,0.0,0.0,0.0,0.0,0.0,0.0,0.0,0.0,0.0,0.0,0.0,0.0,0.0,0.0,0.0,0.0,0.0,0.0,0.0,0.0,0.0,0.0,0.0,0.0,0.0,0.0,0.0,0.0,0.0,0.0,-2.8393,-2.9163,-3.0026,-3.0925,-2.7438,-2.5217,-2.4475,0.0,0.0,0.0,0.0,0.0,0.0,0.0,0.0,0.0,0.0,0.0,0.0,0.0,0.0,0.0,0.0,0.0,0.0,0.0,0.0,0.0,0.0,0.0,0.0,0.0,0.0,0.0,0.0,0.0,0.0,0.0,0.0,0.0,0.0,0.0,0.0,0.0,0.0,0.0,0.0,0.0,0.0,0.0,0.0,0.0,0.0,0.0,0.0,0.0,0.0,0.0,0.0,0.0,0.0,0.0,0.0,0.0,0.0,0.0,0.0,0.0,0.0,0.0,0.0,0.0,0.0,0.0,0.0,0.0,0.0,0.0,0.0,0.0,0.0,0.0,0.0,0.0,0.0,0.0,0.0,0.0,0.0,0.0,0.0,0.0,0.0,0.0,0.0,0.0,0.0,0.0,0.0,0.0,0.0,0.0,0.0,0.0,0.0,0.0,0.0,0.0,0.0,0.0,0.0,0.0,0.0,0.0,0.0,-3.125,-3.2137,-3.1867,-3.0473,-2.8705,-2.6355,0.0,0.0,0.0,0.0,0.0,0.0,0.0,0.0,0.0,0.0,0.0,0.0,0.0,0.0,0.0,0.0,0.0,0.0,0.0,0.0,0.0,0.0,0.0,0.0,0.0,0.0,0.0,0.0,0.0,0.0,0.0,0.0,0.0,0.0,0.0,0.0,0.0,0.0,0.0,0.0,0.0,0.0,0.0,0.0,0.0,0.0,0.0,0.0,0.0,0.0,0.0,0.0,0.0,0.0,0.0,0.0,0.0,0.0,0.0,0.0,0.0,0.0,0.0,0.0,0.0,0.0,0.0,0.0,0.0,0.0,0.0,0.0,0.0,0.0,0.0,0.0,0.0,0.0,0.0,0.0,0.0,0.0,0.0,0.0,0.0,0.0,0.0,0.0,0.0,0.0,0.0,0.0,0.0,0.0,0.0,0.0,0.0,0.0,0.0,0.0,0.0,0.0,0.0,0.0,0.0,0.0,0.0,0.0,0.0,-2.9647,-3.1574,-3.2706,-3.2761,-2.9567,-2.7126,0.0,0.0,0.0,0.0,0.0,0.0,0.0,0.0,0.0,0.0,0.0,0.0,0.0,0.0,0.0,0.0,0.0,0.0,0.0,0.0,0.0,0.0,0.0,0.0,0.0,0.0,0.0,0.0,0.0,0.0,0.0,0.0,0.0,0.0,0.0,0.0,0.0,0.0,0.0,0.0,0.0,0.0,0.0,0.0,0.0,0.0,0.0,0.0,0.0,0.0,0.0,0.0,0.0,0.0,0.0,0.0,0.0,0.0,0.0,0.0,0.0,0.0,0.0,0.0,0.0,0.0,0.0,0.0,0.0,0.0,0.0,0.0,0.0,0.0,0.0,0.0,0.0,0.0,0.0,0.0,0.0,0.0,0.0,0.0,0.0,0.0,0.0,0.0,0.0,0.0,0.0,0.0,0.0,0.0,0.0,0.0,0.0,0.0,0.0,0.0,0.0,0.0,0.0,0.0,0.0,0.0,0.0,0.0,-2.9017,-3.0509,-3.2197,-3.333,-3.377,-3.0901,-2.8448,0.0,0.0,0.0,0.0,0.0,0.0,0.0,0.0,0.0,0.0,0.0,0.0,0.0,0.0,0.0,0.0,0.0,0.0,0.0,0.0,0.0,0.0,0.0,0.0,0.0,0.0,0.0,0.0,0.0,0.0,0.0,0.0,0.0,0.0,0.0,0.0,0.0,0.0,0.0,0.0,0.0,0.0,0.0,0.0,0.0,0.0,0.0,0.0,0.0,0.0,0.0,0.0,0.0,0.0,0.0,0.0,0.0,0.0,0.0,0.0,0.0,0.0,0.0,0.0,0.0,0.0,0.0,0.0,0.0,0.0,0.0,0.0,0.0,0.0,0.0,0.0,0.0,0.0,0.0,0.0,0.0,0.0,0.0,0.0,0.0,0.0,0.0,0.0,0.0,0.0,0.0,0.0,0.0,0.0,0.0,0.0,0.0,0.0,0.0,0.0,0.0,0.0,0.0,0.0,0.0,0.0,0.0,0.0,-3.0124,-3.2399,-3.3348,-3.3807,-3.3752,-3.2155,-2.9843,0.0,0.0,0.0,0.0,0.0,0.0,0.0,0.0,0.0,0.0,0.0,0.0,0.0,0.0,0.0,0.0,0.0,0.0,0.0,0.0,0.0,0.0,0.0,0.0,0.0,0.0,0.0,0.0,0.0,0.0,0.0,0.0,0.0,0.0,0.0,0.0,0.0,0.0,0.0,0.0,0.0,0.0,0.0,0.0,0.0,0.0,0.0,0.0,0.0,0.0,0.0,0.0,0.0,0.0,0.0,0.0,0.0,0.0,0.0,0.0,0.0,0.0,0.0,0.0,0.0,0.0,0.0,0.0,0.0,0.0,0.0,0.0,0.0,0.0,0.0,0.0,0.0,0.0,0.0,0.0,0.0,0.0,0.0,0.0,0.0,0.0,0.0,0.0,0.0,0.0,0.0,0.0,0.0,0.0,0.0,0.0,0.0,0.0,0.0,0.0,0.0,0.0,0.0,0.0,0.0,0.0,0.0,0.0,-2.9867,-3.1623,-3.3054,-3.3807,-3.3788,-3.1623,-2.9531,0.0,0.0,0.0,0.0,0.0,0.0,0.0,0.0,0.0,0.0,0.0,0.0,0.0,0.0,0.0,0.0,0.0,0.0,0.0,0.0,0.0,0.0,0.0,0.0,0.0,0.0,0.0,0.0,0.0,0.0,0.0,0.0,0.0,0.0,0.0,0.0,0.0,0.0,0.0,0.0,0.0,0.0,0.0,0.0,0.0,0.0,0.0,0.0,-2.3346,0.0,0.0,0.0,0.0,0.0,0.0,0.0,0.0,0.0,0.0,0.0,0.0,0.0,0.0,0.0,0.0,0.0,0.0,0.0,0.0,0.0,0.0,0.0,0.0,0.0,0.0,0.0,0.0,0.0,0.0,0.0,0.0,0.0,0.0,0.0,0.0,0.0,0.0,0.0,0.0,0.0,0.0,0.0,0.0,0.0,0.0,0.0,0.0,0.0,0.0,0.0,0.0,0.0,0.0,0.0,0.0,0.0,0.0,0.0,-3.0338,-3.1935,-3.3164,-3.3807,-3.3733,-3.1837,-3.0008,0.0,0.0,0.0,0.0,0.0,0.0,0.0,0.0,0.0,0.0,0.0,0.0,0.0,0.0,0.0,0.0,0.0,0.0,0.0,0.0,0.0,0.0,0.0,0.0,0.0,0.0,0.0,0.0,0.0,0.0,0.0,0.0,0.0,0.0,0.0,0.0,0.0,0.0,0.0,0.0,0.0,0.0,0.0,0.0,0.0,0.0,0.0,0.0,0.0,0.0,0.0,0.0,0.0,0.0,0.0,0.0,0.0,0.0,0.0,0.0,0.0,0.0,0.0,0.0,0.0,0.0,0.0,0.0,0.0,0.0,0.0,0.0,0.0,0.0,0.0,0.0,0.0,0.0,0.0,0.0,0.0,0.0,0.0,0.0,0.0,0.0,0.0,0.0,0.0,0.0,0.0,0.0,0.0,0.0,0.0,0.0,0.0,0.0,0.0,0.0,0.0,0.0,0.0,0.0,0.0,0.0,0.0,-2.9042,-3.0925,-3.2711,-3.3458,-3.3807,-3.3788,-3.2228,-3.065,-2.9042,0.0,0.0,0.0,0.0,0.0,0.0,0.0,0.0,0.0,0.0,0.0,0.0,0.0,0.0,0.0,0.0,0.0,0.0,0.0,0.0,0.0,0.0,0.0,0.0,0.0,0.0,0.0,0.0,0.0,0.0,0.0,0.0,0.0,0.0,0.0,0.0,0.0,0.0,-2.2976,-2.3985,0.0,0.0,0.0,0.0,0.0,0.0,0.0,0.0,-2.3067,0.0,0.0,0.0,0.0,0.0,0.0,0.0,0.0,0.0,0.0,0.0,0.0,0.0,0.0,0.0,0.0,0.0,0.0,0.0,0.0,0.0,0.0,0.0,0.0,0.0,0.0,0.0,0.0,0.0,0.0,0.0,0.0,0.0,0.0,0.0,0.0,0.0,0.0,0.0,0.0,0.0,0.0,0.0,0.0,0.0,0.0,0.0,0.0,0.0,0.0,0.0,0.0,0.0,0.0,0.0,0.0,-2.9519,-2.9335,-3.0632,-3.3532,-3.3733,-3.3807,-3.377,-3.226,-3.065,-2.8987,0.0,0.0,0.0,0.0,0.0,0.0,0.0,0.0,0.0,0.0,0.0,0.0,0.0,0.0,0.0,0.0,0.0,0.0,0.0,0.0,0.0,0.0,0.0,0.0,0.0,0.0,0.0,0.0,0.0,0.0,0.0,0.0,0.0,0.0,0.0,0.0,0.0,0.0,0.0,-2.5302,-2.5736,0.0,0.0,0.0,0.0,0.0,0.0,0.0,0.0,-2.3236,0.0,0.0,0.0,0.0,0.0,0.0,0.0,0.0,0.0,0.0,0.0,0.0,0.0,0.0,0.0,0.0,0.0,0.0,0.0,0.0,0.0,0.0,0.0,0.0,0.0,0.0,0.0,0.0,0.0,0.0,0.0,0.0,0.0,0.0,0.0,0.0,0.0,0.0,0.0,0.0,0.0,0.0,0.0,0.0,0.0,0.0,0.0,0.0,0.0,0.0,0.0,0.0,0.0,0.0,0.0,-2.876,-2.9806,-3.1201,-3.3096,-3.3587,-3.3605,-3.3133,-3.1219,-2.9604,0.0,0.0,0.0,0.0,0.0,0.0,0.0,0.0,0.0,0.0,0.0,0.0,0.0,0.0,0.0,0.0,0.0,0.0,0.0,0.0,0.0,0.0,0.0,0.0,0.0,0.0,0.0,0.0,0.0,0.0,0.0,0.0,0.0,0.0,0.0,0.0,0.0,0.0,0.0,0.0,-2.5302,-2.5769,-2.5022,0.0,0.0,0.0,0.0,0.0,0.0,-2.3915,-2.3511,0.0,0.0,0.0,0.0,0.0,0.0,0.0,0.0,0.0,0.0,0.0,0.0,0.0,0.0,0.0,0.0,0.0,0.0,0.0,0.0,0.0,0.0,0.0,0.0,0.0,0.0,0.0,0.0,0.0,0.0,0.0,0.0,0.0,0.0,0.0,0.0,0.0,0.0,0.0,0.0,0.0,0.0,0.0,0.0,0.0,0.0,0.0,0.0,0.0,0.0,0.0,0.0,0.0,0.0,0.0,-2.753,-2.9604,-3.1219,-3.232,-3.2981,-3.3018,-3.2344,-3.0179,-2.8546,0.0,0.0,0.0,0.0,0.0,0.0,0.0,0.0,0.0,0.0,0.0,0.0,0.0,0.0,0.0,0.0,0.0,0.0,0.0,0.0,0.0,0.0,0.0,0.0,0.0,0.0,0.0,0.0,0.0,0.0,0.0,0.0,0.0,0.0,0.0,0.0,0.0,0.0,0.0,0.0,0.0,-2.6041,-2.5592,-2.5484,0.0,0.0,0.0,0.0,-2.5845,-2.505,0.0,0.0,0.0,0.0,0.0,0.0,0.0,0.0,0.0,0.0,0.0,0.0,0.0,0.0,0.0,0.0,0.0,0.0,0.0,0.0,0.0,0.0,0.0,0.0,0.0,0.0,0.0,0.0,0.0,0.0,0.0,0.0,0.0,0.0,0.0,0.0,0.0,0.0,0.0,0.0,0.0,0.0,0.0,0.0,0.0,0.0,0.0,0.0,0.0,0.0,0.0,0.0,0.0,0.0,0.0,0.0,-2.6638,-2.7714,-2.9304,-3.1415,-3.1635,-3.1635,-3.1513,-2.9898,-2.8271,0.0,0.0,0.0,0.0,0.0,0.0,0.0,0.0,0.0,0.0,0.0,0.0,0.0,0.0,0.0,0.0,0.0,0.0,0.0,0.0,0.0,0.0,0.0,0.0,0.0,0.0,0.0,0.0,0.0,0.0,0.0,0.0,0.0,0.0,0.0,0.0,0.0,0.0,0.0,0.0,0.0,-2.7867,-2.5866,-2.6411,-2.6902,0.0,0.0,-2.659,-2.7401,-2.7401,0.0,0.0,0.0,0.0,0.0,0.0,0.0,0.0,0.0,0.0,0.0,0.0,0.0,0.0,0.0,0.0,0.0,0.0,0.0,0.0,0.0,0.0,0.0,0.0,0.0,0.0,0.0,0.0,0.0,0.0,0.0,0.0,0.0,0.0,0.0,0.0,0.0,0.0,0.0,0.0,0.0,0.0,0.0,0.0,0.0,0.0,0.0,0.0,0.0,0.0,0.0,0.0,0.0,0.0,0.0,-2.3171,-2.587,-2.7603,-2.92,-3.0668,-3.1164,-3.1195,-3.0723,-2.8723,-2.7108,0.0,0.0,0.0,0.0,0.0,0.0,0.0,0.0,0.0,0.0,0.0,0.0,0.0,0.0,0.0,0.0,0.0,0.0,0.0,0.0,0.0,0.0,0.0,0.0,0.0,0.0,0.0,0.0,0.0,0.0,0.0,0.0,0.0,0.0,0.0,0.0,0.0,0.0,0.0,0.0,0.0,0.0,-2.6911,-2.7658,0.0,0.0,0.0,-2.7587,-2.8366,0.0,0.0,0.0,0.0,0.0,0.0,0.0,0.0,0.0,0.0,0.0,0.0,0.0,0.0,0.0,0.0,0.0,0.0,0.0,0.0,0.0,0.0,0.0,0.0,0.0,0.0,0.0,0.0,0.0,0.0,0.0,0.0,0.0,0.0,0.0,0.0,0.0,0.0,0.0,0.0,0.0,0.0,0.0,0.0,0.0,0.0,0.0,0.0,0.0,0.0,0.0,0.0,0.0,0.0,0.0,0.0,0.0,-2.5081,-2.7291,-2.8877,-2.9879,-3.0467,-3.0411,-2.9586,-2.764,0.0,0.0,0.0,0.0,0.0,0.0,0.0,0.0,0.0,0.0,0.0,0.0,0.0,0.0,0.0,0.0,0.0,0.0,0.0,0.0,0.0,0.0,0.0,0.0,0.0,0.0,0.0,-1.4192,0.0,0.0,0.0,0.0,0.0,0.0,0.0,0.0,0.0,0.0,0.0,0.0,0.0,0.0,-2.7249,-2.7994,-2.8772,-2.9348,0.0,0.0,-2.8568,-2.9179,-2.8316,-2.7114,0.0,0.0,0.0,0.0,0.0,0.0,0.0,0.0,0.0,0.0,0.0,0.0,0.0,0.0,0.0,0.0,0.0,0.0,0.0,0.0,0.0,0.0,0.0,0.0,0.0,0.0,0.0,0.0,0.0,0.0,0.0,0.0,0.0,0.0,0.0,0.0,0.0,0.0,0.0,0.0,0.0,0.0,0.0,0.0,0.0,0.0,0.0,0.0,0.0,0.0,0.0,0.0,0.0,0.0,0.0,-2.4226,-2.5933,-2.7537,-2.9023,-2.9133,-2.8785,-2.797,-2.709,-2.5519,0.0,0.0,0.0,0.0,0.0,0.0,0.0,0.0,0.0,0.0,0.0,0.0,0.0,0.0,0.0,0.0,0.0,0.0,0.0,0.0,0.0,0.0,0.0,0.0,0.0,0.0,0.0,0.0,0.0,0.0,0.0,0.0,0.0,0.0,0.0,0.0,0.0,0.0,0.0,0.0,0.0,-2.8027,-2.8824,-2.9567,-3.0277,0.0,0.0,-2.9973,-3.0023,-2.9939,-2.8924,-2.6066,0.0,0.0,0.0,0.0,0.0,0.0,0.0,0.0,0.0,0.0,0.0,0.0,0.0,0.0,0.0,0.0,0.0,0.0,0.0,0.0,0.0,0.0,0.0,0.0,0.0,0.0,0.0,0.0,0.0,0.0,0.0,0.0,0.0,0.0,0.0,0.0,0.0,0.0,0.0,0.0,0.0,0.0,0.0,0.0,0.0,0.0,0.0,0.0,0.0,0.0,0.0,0.0,0.0,-2.1216,-2.4153,-2.5786,-2.7372,-2.8913,-2.8987,-2.8858,-2.8546,-2.7291,-2.5933,0.0,0.0,0.0,0.0,0.0,0.0,0.0,0.0,0.0,0.0,0.0,0.0,0.0,0.0,0.0,0.0,0.0,0.0,0.0,0.0,0.0,0.0,0.0,0.0,0.0,0.0,0.0,0.0,-1.6529,-1.6993,-1.7715,0.0,0.0,0.0,0.0,0.0,0.0,0.0,0.0,0.0,0.0,-2.8263,-2.9499,-3.0311,0.0,0.0,-3.0954,-3.0768,-3.0768,-3.0025,-2.8856,-2.7215,-2.6184,0.0,0.0,0.0,0.0,0.0,0.0,0.0,0.0,0.0,0.0,0.0,0.0,0.0,0.0,0.0,0.0,0.0,0.0,0.0,0.0,0.0,0.0,0.0,0.0,0.0,0.0,0.0,0.0,0.0,0.0,0.0,0.0,0.0,0.0,0.0,0.0,0.0,0.0,0.0,0.0,0.0,0.0,0.0,0.0,0.0,0.0,0.0,0.0,0.0,0.0,0.0,0.0,-2.1272,-2.453,-2.5897,-2.7372,-2.8968,-2.8987,-2.8895,-2.8631,-2.731,-2.6098,0.0,0.0,0.0,0.0,0.0,0.0,0.0,0.0,0.0,0.0,0.0,0.0,0.0,0.0,0.0,0.0,0.0,0.0,0.0,0.0,0.0,0.0,0.0,0.0,0.0,0.0,0.0,0.0,-1.723,-1.7467,-1.7766,0.0,0.0,0.0,0.0,0.0,0.0,0.0,0.0,0.0,0.0,-2.8703,-3.0209,-3.0869,-3.119,-3.119,-3.119,-3.1142,-3.0903,-3.0194,-2.9228,-2.801,0.0,0.0,0.0,0.0,0.0,0.0,0.0,0.0,0.0,0.0,0.0,0.0,0.0,0.0,0.0,0.0,0.0,0.0,0.0,0.0,0.0,0.0,0.0,0.0,0.0,0.0,0.0,0.0,0.0,0.0,-1.8304,0.0,0.0,0.0,0.0,0.0,0.0,0.0,0.0,0.0,0.0,0.0,0.0,0.0,0.0,0.0,0.0,0.0,0.0,0.0,0.0,0.0,0.0,0.0,-2.5301,-2.6172,-2.7372,-2.8932,-2.8987,-2.8638,-2.7879,-2.7034,-2.5841,-2.4254,0.0,0.0,0.0,0.0,0.0,0.0,0.0,0.0,0.0,0.0,0.0,0.0,0.0,0.0,0.0,0.0,0.0,0.0,0.0,0.0,0.0,0.0,0.0,0.0,0.0,0.0,-1.7749,-1.8403,-1.8538,0.0,0.0,0.0,0.0,0.0,0.0,0.0,0.0,0.0,0.0,-2.8467,-2.9517,-3.0954,-3.1207,-3.1241,-3.1241,-3.1224,-3.0987,-3.0328,-3.0717,-3.0395,0.0,0.0,0.0,0.0,0.0,0.0,0.0,0.0,0.0,0.0,0.0,0.0,0.0,0.0,0.0,0.0,0.0,0.0,0.0,0.0,0.0,0.0,0.0,0.0,0.0,0.0,0.0,-2.2194,-2.0934,0.0,0.0,0.0,0.0,0.0,0.0,0.0,0.0,0.0,0.0,0.0,-2.4979,-2.4997,0.0,0.0,0.0,0.0,0.0,0.0,0.0,0.0,0.0,0.0,0.0,0.0,-2.2116,-2.5264,-2.6209,-2.7372,-2.8932,-2.8987,-2.8858,-2.8594,-2.7291,-2.5346,-2.2694,0.0,0.0,0.0,0.0,0.0,0.0,0.0,0.0,0.0,0.0,0.0,0.0,0.0,0.0,0.0,0.0,0.0,0.0,0.0,0.0,0.0,0.0,0.0,0.0,0.0,-1.7789,0.0,0.0,0.0,0.0,0.0,0.0,0.0,0.0,0.0,0.0,0.0,-2.6607,-2.8349,-2.9245,-3.026,-3.1715,-3.1938,-3.2107,0.0,0.0,0.0,0.0,0.0,0.0,0.0,0.0,0.0,0.0,0.0,0.0,0.0,0.0,-2.7858,-2.4883,-2.4311,-2.4252,-2.4252,0.0,0.0,0.0,0.0,0.0,0.0,0.0,0.0,0.0,0.0,0.0,0.0,0.0,0.0,-2.4364,0.0,-2.2332,0.0,0.0,0.0,0.0,0.0,0.0,0.0,0.0,-2.6242,-2.72,-2.7427,-2.7427,-2.7016,0.0,-2.5162,-2.329,0.0,0.0,0.0,0.0,0.0,0.0,0.0,0.0,-2.3125,-2.5723,-2.6612,-2.7666,-2.8913,-2.8987,-2.8987,-2.8968,-2.7427,-2.5346,-2.2703,-2.2363,-2.1592,0.0,0.0,0.0,0.0,0.0,0.0,0.0,0.0,0.0,0.0,0.0,0.0,0.0,0.0,0.0,0.0,0.0,0.0,0.0,0.0,0.0,0.0,0.0,-1.7789,0.0,0.0,0.0,0.0,0.0,0.0,0.0,0.0,0.0,-2.5642,-2.6945,-2.8433,-2.9958,-3.0548,-3.1309,-3.251,0.0,0.0,0.0,0.0,0.0,0.0,0.0,-3.2425,-3.2649,-3.2087,-3.163,-3.1579,-3.1625,-3.13,-3.0184,0.0,0.0,-2.6624,-2.5909,-2.5702,-2.5754,-2.517,-2.4729,-2.4981,-2.4635,-2.4387,0.0,0.0,0.0,0.0,0.0,0.0,0.0,0.0,-2.7483,-2.7243,0.0,-2.4664,0.0,0.0,0.0,0.0,0.0,0.0,0.0,0.0,-2.9178,-2.9812,-2.906,-2.906,-2.8638,-2.7871,-2.7761,-2.6917,-2.5301,-2.2263,0.0,0.0,0.0,0.0,0.0,0.0,-2.5016,-2.6612,-2.7383,-2.8191,-2.895,-2.8987,-2.8968,-2.8858,-2.7409,-2.5823,-2.4263,-2.341,-2.2666,-2.1831,-2.0122,0.0,0.0,0.0,0.0,0.0,0.0,0.0,0.0,0.0,0.0,0.0,0.0,0.0,0.0,0.0,0.0,0.0,0.0,0.0,0.0,-1.7834,0.0,0.0,0.0,0.0,0.0,0.0,0.0,0.0,0.0,0.0,-2.8111,-2.9261,-3.0683,-3.2124,0.0,0.0,0.0,0.0,-3.2649,-3.3406,-3.3474,-3.3491,-3.3491,-3.4049,-3.4235,-3.3592,0.0,0.0,-3.2649,-3.2493,-3.195,-2.9949,-2.9761,-2.9448,-2.8628,-2.772,-2.7208,-2.7287,-2.6294,-2.5694,-2.6217,-2.5993,-2.5659,-3.3006,0.0,0.0,0.0,0.0,-3.0198,-3.0448,-3.1058,-3.0681,-2.969,-2.8288,-2.7785,0.0,0.0,0.0,0.0,0.0,0.0,-2.8024,-2.9289,-3.0515,-3.0632,-2.9867,-3.0448,-3.0008,-2.8656,-2.8062,-2.7578,-2.7064,-2.5603,-2.3868,-2.1979,0.0,0.0,0.0,0.0,-2.5254,-2.7328,-2.7677,-2.8191,-2.8987,-2.8987,-2.8436,-2.7328,-2.684,-2.585,-2.4273,-2.3969,-2.3474,-2.2676,-2.148,0.0,0.0,0.0,0.0,0.0,0.0,0.0,0.0,0.0,0.0,0.0,0.0,0.0,0.0,0.0,0.0,0.0,0.0,0.0,-1.8437,-1.8572,-1.9232,0.0,0.0,0.0,0.0,0.0,0.0,0.0,0.0,0.0,-3.163,-3.1715,-3.2039,0.0,0.0,-3.3355,-3.4083,-3.3998,-3.4117,-3.4878,0.0,0.0,0.0,-3.4709,-3.4607,-3.4906,-3.5143,-3.5126,-3.4726,-3.4257,-3.3584,-3.2456,-3.1885,-3.1046,-2.9491,-2.8277,-2.7555,-2.7521,-2.7191,-2.6995,-2.7176,-2.7129,-2.7016,-3.6546,-3.4545,-3.2699,-3.2006,-3.216,-3.1987,-3.2295,-3.2891,-3.2756,-3.2102,-3.1108,-3.0762,-2.9658,-2.8026,-2.7292,0.0,0.0,0.0,-2.9888,-3.1334,-3.1691,-3.1623,-3.1182,-3.1311,-3.0723,-2.9482,-2.8656,-2.8282,-2.8264,-2.7787,-2.6657,-2.4961,0.0,0.0,-2.5144,-2.5456,-2.6347,-2.7732,-2.8117,-2.8521,-2.8987,-2.8987,-2.8235,-2.6675,-2.6602,-2.5831,-2.4263,-2.4199,-2.3988,-2.3483,-2.2584,-2.1325,0.0,0.0,0.0,0.0,0.0,0.0,0.0,0.0,0.0,0.0,0.0,-1.5537,0.0,0.0,0.0,0.0,-1.7602,-1.8973,-2.0145,-2.05,0.0,0.0,0.0,0.0,0.0,0.0,0.0,-2.9636,-3.1021,-3.2341,-3.3643,-3.3694,-3.3778,-3.4235,-3.4032,-3.41,-3.4844,0.0,-3.4759,-3.5481,-3.5616,-3.5616,-3.56,-3.5211,-3.5076,-3.5515,-3.5616,-3.5616,-3.5583,-3.5211,-3.4611,-3.3719,-3.2912,-3.1846,-3.0188,-2.9033,-2.8125,-2.771,-2.7585,-2.7585,-2.7585,-2.7585,-2.7585,-3.9361,-3.9034,-3.5918,-3.4103,-3.3391,-3.4167,-3.4007,-3.3276,-3.4071,-3.4321,-3.4148,-3.3359,-3.2857,-3.25,-3.0814,0.0,-3.1175,-3.0919,-3.1621,-3.3034,-3.2803,-3.2638,-3.2546,-3.1788,-3.0962,-3.0173,-2.9372,-2.8987,-2.8987,-2.8987,-2.862,-2.7897,-2.7163,-2.6759,-2.6741,-2.742,-2.7824,-2.7926,-2.862,-2.8987,-2.8987,-2.8987,-2.8235,-2.6657,-2.6602,-2.586,-2.43,-2.4199,-2.4199,-2.4171,-2.3501,-2.2301,-2.0571,0.0,0.0,0.0,0.0,0.0,0.0,0.0,0.0,0.0,0.0,0.0,0.0,0.0,0.0,0.0,-2.0446,0.0,-2.2412,-2.3139,0.0,0.0,0.0,-2.6251,-2.7131,-2.9042,-3.0581,-3.136,0.0,0.0,-3.4612,0.0,-3.56,-3.5616,-3.5013,-3.4827,-3.5498,-3.503,-3.4844,-3.5498,-3.5616,-3.5616,-3.5616,-3.5566,-3.5549,-3.56,-3.5616,-3.5616,-3.5616,-3.5583,-3.5059,-3.3955,-3.3092,-3.2147,-3.0847,-2.995,-2.9095,-2.8018,-2.7785,-2.7745,-2.7635,-2.766,-2.7685,-3.9861,-3.9219,-3.8419,-3.7565,-3.6796,-3.7007,-3.6603,-3.5834,-3.6026,-3.5391,-3.4186,-3.3987,-3.3513,-3.2801,-3.2371,-3.2416,-3.2816,-3.2748,-3.3038,-3.3594,-3.354,-3.3201,-3.2564,-3.177,-3.098,-3.0191,-2.9372,-2.8987,-2.8987,-2.8987,-2.8895,-2.8712,-2.8528,-2.8124,-2.7548,-2.7706,-2.8099,-2.8712,-2.8913,-2.8987,-2.8987,-2.8987,-2.8235,-2.6657,-2.6602,-2.586,-2.4281,-2.4199,-2.4199,-2.4199,-2.4006,-2.3437,-2.2383,-2.0506,0.0,0.0,0.0,0.0,0.0,0.0,0.0,0.0,0.0,-1.8408,-1.6587,0.0,-1.9592,0.0,-2.1681,-2.3187,-2.3915,-2.4628,0.0,0.0,-2.8416,-2.9144,-3.1529,-3.1802,-3.2293,-3.3558,-3.4167,-3.4726,-3.5245,-3.5481,-3.5616,-3.56,-3.5447,-3.5397,-3.5566,-3.5447,-3.5397,-3.5566,-3.5616,-3.5616,-3.5616,-3.5616,-3.5616,-3.5616,-3.5616,-3.5616,-3.5616,-3.5616,-3.5334,-3.4508,-3.3717,-3.273,-3.1506,-3.0619,-2.9886,-2.9157,-2.8973,-2.867,-2.782,-2.7959,-2.814,-4.0246,-3.9842,-3.9842,-3.9554,-3.9053,-3.8334,-3.7719,-3.7269,-3.7276,-3.6526,-3.5295,-3.493,-3.4507,-3.4058,-3.4064,-3.4022,-3.3986,-3.3976,-3.3911,-3.382,-3.3807,-3.3568,-3.3096,-3.2302,-3.1513,-3.0723,-2.9922,-2.9354,-2.9023,-2.8987,-2.8987,-2.8987,-2.8987,-2.8785,-2.8356,-2.8326,-2.8546,-2.8987,-2.8987,-2.8987,-2.8987,-2.8987,-2.8235,-2.6675,-2.6602,-2.5841,-2.4273,-2.4199,-2.4199,-2.4199,-2.4199,-2.3841,-2.3043,-2.1716,-2.0316,0.0,0.0,0.0,0.0,0.0,0.0,0.0,0.0,0.0,0.0,0.0,-2.1299,0.0,-2.4069,0.0,-2.6877,-2.7655,-2.9042,-3.1343,-3.1207,-3.1732,-3.3694,-3.3508,-3.3732,-3.4844,-3.4979,-3.5148,-3.5549,-3.5616,-3.5616,-3.5616,-3.5616,-3.5616,-3.5616,-3.5616,-3.5616,-3.5616,-3.5616,-3.5616,-3.5616,-3.5616,-3.5616,-3.5616,-3.5616,-3.5616,-3.5616,-3.5616,-3.5453,-3.5078,-3.4404,-3.3573,-3.2535,-3.173,-3.1016,-3.0462,-3.0016,-2.9377,-2.8247,-2.8042,-2.7968,-4.0496,-4.0496,-4.0496,-4.0496,-4.0381,-3.8931,-3.8257,-3.8161,-3.8161,-3.7623,-3.6654,-3.5962,-3.5596,-3.55,-3.55,-3.5223,-3.4754,-3.4723,-3.4386,-3.3868,-3.3834,-3.3807,-3.377,-3.2986,-3.2228,-3.1531,-3.0632,-2.9843,-2.917,-2.906,-2.8987,-2.8987,-2.8987,-2.8987,-2.8987,-2.8987,-2.8987,-2.8987,-2.8987,-2.8987,-2.8987,-2.8987,-2.8235,-2.6722,-2.6602,-2.585,-2.4281,-2.4199,-2.4199,-2.4199,-2.4199,-2.3878,-2.3171,-2.2391,-2.1505,0.0,-1.9773,0.0,0.0,0.0,0.0,0.0,0.0,0.0,0.0,-2.2852,-2.3545,-2.4812,-2.686,-2.8686,-3.0089,-3.0903,-3.1955,-3.3355,-3.3541,-3.3829,-3.4539,-3.4641,-3.4895,-3.5532,-3.5616,-3.56,-3.56,-3.5616,-3.5616,-3.5616,-3.5616,-3.5616,-3.5616,-3.5616,-3.5616,-3.5616,-3.5616,-3.5616,-3.5616,-3.5616,-3.5616,-3.5616,-3.5616,-3.5616,-3.5616,-3.5616,-3.56,-3.5532,-3.4957,-3.4213,-3.3541,-3.2844,-3.2156,-3.1274,-3.0647,-2.9955,-2.8912,-2.8177,-2.771,-4.0496,-4.0496,-4.0496,-4.0496,-4.0477,-4.0169,-3.965,-3.9053,-3.9065,-3.8161,-3.6712,-3.6538,-3.6115,-3.5519,-3.55,-3.532,-3.5027,-3.4784,-3.4497,-3.4111,-3.3902,-3.3807,-3.3752,-3.2986,-3.2509,-3.2271,-3.0907,-3.0118,-2.9971,-2.9317,-2.8987,-2.8987,-2.8987,-2.8987,-2.8987,0.0,0.0,0.0,-2.8987,-2.8987,-2.8987,-2.8987,-2.8235,-2.6675,-2.6602,0.0,-2.43,-2.4199,-2.4199,-2.4199,-2.4199,0.0,0.0,0.0,0.0,0.0,0.0,0.0,0.0,0.0,0.0,0.0,-2.4878,-2.4425,-2.4169,-2.5711,-2.6877,-2.7181,-2.8686,-3.004,-3.0903,-3.1667,-3.2682,-3.4083,-3.4286,-3.459,-3.5301,-3.5402,-3.5447,-3.5566,-3.5616,-3.5616,-3.5616,-3.5616,-3.5616,-3.5616,-3.5616,-3.5616,-3.5616,-3.5616,-3.5616,-3.5616,-3.5616,-3.5616,-3.5616,-3.5616,-3.5616,-3.5616,-3.5616,-3.5616,-3.5616,-3.5616,-3.5616,-3.5583,-3.5013,-3.4286,-3.3537,-3.3288,-3.2669,-3.0882,-3.0511,-3.0245,-2.9529,-2.8835,-2.8189,-4.09,0.0,-4.0496,-4.0496,0.0,-4.0496,-4.0265,-3.99,-3.9881,-3.8931,-3.7327,-3.6885,-3.625,-3.55,-3.55,-3.5361,-3.5096,-3.4954,-3.4655,-3.42,-3.4068,-3.3941,-3.3788,-3.3385,-3.2968,-3.2583,-3.1775,-3.1164,-3.076,-2.9971,-2.9592,-2.9574,-2.9189,-2.8987,-2.8987,-2.8987,-2.8987,-2.8987,-2.8987,-2.8987,-2.8987,-2.8987,-2.8418,-2.7236,0.0,0.0,0.0,0.0,0.0,0.0,0.0,0.0,0.0,0.0,0.0,-2.4027,-2.3979,-2.4011,-2.4105,-2.4132,-2.472,-2.6103,-2.6871,-2.6945,-2.6184,-2.7875,-2.8939,-2.8956,-2.9989,-3.0937,-3.1684,-3.2408,-3.3288,-3.4353,-3.4827,-3.5194,-3.5532,-3.5616,-3.5616,-3.5616,-3.5616,-3.5616,-3.5616,-3.5616,-3.5616,-3.5616,-3.5616,-3.5616,-3.5616,-3.5616,-3.5616,-3.5616,-3.5616,-3.5616,-3.5616,-3.5616,-3.5616,-3.5616,-3.5616,-3.5616,-3.5616,-3.5616,-3.5616,-3.5583,-3.5278,-3.481,-3.4134,-3.3947,-3.3507,-3.2152,-3.1347,-3.0775,-3.0117,-2.9009,-2.7968,-4.1277,-4.0516,-4.0496,-4.0496,-4.0496,-4.0496,-4.0496,-4.0496,0.0,0.0,0.0,-3.7315,-3.6481,-3.5712,-3.5577,-3.5395,-3.5182,-3.5122,-3.4823,-3.436,-3.4265,-3.4074,-3.3863,-3.3815,-3.3458,-3.2821,-3.2656,-3.2247,-3.1599,-3.0797,-3.0338,-3.0155,-2.9537,-2.9152,-2.9005,-2.8987,-2.8987,-2.8987,-2.8987,-2.8987,-2.8987,-2.8987,-2.8601,-2.7805,-2.7163,-2.6447,-2.565,-2.5613,-2.5301,-2.4695,-2.5246,-2.5613,-2.5595,-2.5613,-2.5897,-2.6539,-2.6602,-2.6553,-2.6401,-2.5981,-2.6012,-2.6638,-2.8135,-2.879,-2.8229,-2.9499,-3.0292,-3.0311,-3.0852,-3.1565,-3.2412,-3.3017,-3.3761,-3.459,-3.525,-3.56,-3.5616,-3.5616,-3.5616,-3.5616,-3.5616,-3.5616,-3.5616,-3.5616,-3.5616,-3.5616,-3.5616,-3.5616,-3.5616,-3.5616,-3.5616,-3.5616,-3.5616,-3.5616,-3.5616,-3.5616,-3.5616,-3.5616,-3.5616,-3.5616,-3.5616,-3.5616,-3.5616,-3.5616,-3.56,-3.5245,-3.4658,-3.4438,-3.4141,-3.3229,-3.2195,-3.115,-3.0383,-2.906,-2.7993,-4.1296,-4.0496,-4.0496,-4.0496,-4.0496,-4.0496,-4.0496,-4.0496,-4.0496,-3.9977,-3.9065,-3.82,-3.7327,-3.65,-3.5808,-3.5486,-3.5432,-3.5207,-3.5043,0.0,-3.4438,-3.4176,-3.4135,-3.3897,-3.3733,-3.3568,-3.2963,-3.2546,-3.2344,-3.1623,-3.0889,-3.0283,-3.0099,-2.9684,-2.9042,-2.8987,-2.8987,-2.8987,-2.8987,-2.8987,-2.8987,-2.8987,-2.862,-2.7842,-2.7695,-2.7236,-2.6465,-2.6429,-2.6392,-2.6272,-2.6363,-2.6429,-2.6447,-2.6429,-2.6484,-2.6583,-2.6602,-2.6885,-2.7482,-2.6941,-2.7133,-2.8458,-2.886,-2.9213,-2.9753,-3.0548,-3.1038,-3.1038,-3.1157,-3.1765,-3.3034,-3.3339,-3.3981,-3.5177,-3.5515,-3.56,-3.5616,-3.5616,-3.5616,-3.5616,-3.5616,-3.5616,-3.5616,-3.5616,-3.5616,-3.5616,-3.5616,-3.5616,-3.5616,-3.5616,-3.5616,-3.5616,-3.5616,-3.5616,-3.5616,-3.5616,-3.5616,-3.5616,-3.5616,-3.5616,-3.5616,-3.5616,-3.5616,-3.5616,-3.5616,-3.5295,-3.4641,-3.4489,-3.3763,-3.2372,-3.1603,-3.1095,-3.0,-2.9328,-2.8934,-4.172,-4.0554,-4.0496,-4.0496,-4.0496,-4.0496,-4.0496,-4.0496,-4.0496,-3.9785,-3.8604,-3.8161,-3.7276,-3.6058,-3.5654,-3.55,-3.5493,-3.5376,-3.525,-3.506,-3.4646,-3.4379,-3.4176,-3.3941,-3.3807,-3.377,-3.344,-3.3256,-3.3183,-3.2449,-3.1861,-3.1445,-3.065,-3.0008,-2.9647,-2.9225,-2.8987,-2.8987,-2.8987,-2.8987,-2.8987,-2.8987,-2.8822,-2.8448,-2.8044,-2.7651,-2.7255,-2.7255,-2.7053,-2.662,-2.7016,-2.7255,-2.7255,-2.7255,-2.7438,-2.7849,-2.7904,-2.8051,-2.8429,-2.8125,-2.825,-2.8965,-2.9364,-2.9905,-3.0649,-3.1004,-3.119,-3.1207,-3.1565,-3.2036,-3.2747,-3.3546,-3.4269,-3.4928,-3.5346,-3.56,-3.5616,-3.5616,-3.5616,-3.5616,-3.5616,-3.5616,-3.5616,-3.5616,-3.5616,-3.5616,-3.5616,-3.5616,-3.5616,-3.5616,-3.5616,-3.5616,-3.5616,-3.5616,-3.5616,-3.5616,-3.5616,-3.5616,-3.5616,-3.5616,-3.5616,-3.5616,-3.5616,-3.5616,-3.56,-3.5318,-3.4641,-3.4489,-3.3705,-3.2433,-3.1872,-3.134,-3.0293,-2.9892,-2.9546,-4.2066,-4.0516,-4.0496,-4.0496,-4.0496,-4.0496,-4.0496,-4.0496,-4.0496,-3.9565,-3.8123,-3.8007,-3.7161,-3.5827,-3.5577,-3.55,-3.55,-3.55,-3.5403,-3.5163,-3.4841,-3.4561,-3.43,-3.3961,-3.3807,-3.3807,-3.3807,-3.3807,-3.3733,-3.3151,-3.2766,-3.2472,-3.1182,-3.0393,-3.0191,-2.9592,-2.9189,-2.9023,-2.8987,-2.8987,-2.8987,-2.8987,-2.8987,-2.895,-2.8411,-2.8062,-2.8081,-2.8062,-2.7787,-2.7207,-2.7732,-2.8062,-2.8062,-2.8062,-2.8345,-2.8932,-2.8987,-2.9044,-2.9113,-2.9048,-2.9117,-2.9398,-2.9809,-3.0412,-3.1089,-3.119,-3.119,-3.1258,-3.1664,-3.2141,-3.2649,-3.3546,-3.437,-3.4692,-3.525,-3.5583,-3.5616,-3.5616,-3.5616,-3.5616,-3.5616,-3.5616,-3.5616,-3.5616,-3.5616,-3.5616,-3.5616,-3.5616,-3.5616,-3.5616,-3.5616,-3.5616,-3.5616,-3.5616,-3.5616,-3.5616,-3.5616,-3.5616,-3.5616,-3.5616,-3.5616,-3.5616,-3.5616,-3.5583,-3.5436,-3.5115,-3.4607,-3.4117,-3.3508,-3.2418,-3.2063,-3.1658,-3.075,-3.0497,-3.0187,-4.2093,-4.0612,-4.0516,-4.0496,-4.0496,-4.0496,-4.0496,-4.0496,-4.0496,-3.9565,-3.8065,-3.8007,-3.7469,-3.6558,-3.5808,-3.55,-3.55,-3.55,-3.5486,-3.5383,-3.4935,-3.4693,-3.458,-3.4068,-3.3807,-3.3807,-3.3807,-3.3807,-3.3807,-3.3715,-3.3298,-3.2583,-3.1715,-3.0956,-3.0301,-3.0136,-2.9721,-2.9005,-2.8987,-2.8987,-2.8987,-2.8987,-2.8987,-2.8987,-2.8932,-2.8895,-2.884,-2.8895,-2.884,-2.8803,-2.8803,-2.8877,-2.8877,-2.8877,-2.8913,-2.8987,-2.8987,-2.9144,-2.9474,-2.9208,-2.9453,-3.0387,-3.0267,-3.0448,-3.1106,-3.119,-3.119,-3.1224,-3.1295,-3.1918,-3.3119,-3.3491,-3.415,-3.5261,-3.5532,-3.5616,-3.5616,-3.5616,-3.5616,-3.5616,-3.5616,-3.5616,-3.5616,-3.5616,-3.5616,-3.5616,-3.5616,-3.5616,-3.5616,-3.5616,-3.5616,-3.5616,-3.5616,-3.5616,-3.5616,-3.5616,-3.5616,-3.5616,-3.5616,-3.5616,-3.5616,-3.5616,-3.5583,-3.5351,-3.5064,-3.4658,-3.4117,-3.3529,-3.2581,-3.2242,-3.1769,-3.1272,-3.1112,-3.1055,-3.0757,-4.2432,-4.1239,-4.0708,-4.0496,-4.0496,-4.0496,-4.0496,-4.0496,-4.0496,-3.9573,-3.8104,-3.8007,-3.7257,-3.5981,-3.5635,-3.55,-3.55,-3.55,-3.5417,-3.5239,-3.4879,-3.4593,-3.4368,-3.3986,-3.3807,-3.3807,-3.3807,-3.3807,-3.3807,-3.3807,-3.3623,-3.3275,-3.2504,-3.1953,-3.1555,-3.0668,-3.0044,-2.9702,-2.9244,-2.8987,-2.8987,-2.8987,-2.8987,-2.8987,-2.8987,-2.8987,-2.8987,-2.8987,-2.8987,-2.8987,-2.8987,-2.8987,-2.8987,-2.8987,-2.8987,-2.8987,-2.8987,-2.9186,-2.9579,-2.9861,-3.0244,-3.0699,-3.0953,-3.1179,-3.1179,-3.119,-3.119,-3.1241,-3.1579,-3.231,-3.3254,-3.3795,-3.4489,-3.538,-3.5616,-3.56,-3.5616,-3.5616,-3.5616,-3.5616,-3.5616,-3.5616,-3.5616,-3.5616,-3.5616,-3.5616,-3.5616,-3.5616,-3.5616,-3.5616,-3.5616,-3.5616,-3.5616,-3.5616,-3.5616,-3.5616,-3.5616,-3.5616,-3.5616,-3.5616,-3.5566,-3.56,-3.5481,-3.5047,-3.4624,-3.4037,-3.3241,-3.2869,-3.2209,-3.187,-3.1546,-3.119,-3.119,-3.119,-3.1055,-4.2673,-4.1774,-4.0885,-4.0496,-4.0496,-4.0496,-4.0496,-4.0496,-4.0496,-3.9681,-3.8392,-3.8104,-3.7199,-3.5923,-3.5615,-3.55,-3.55,-3.55,-3.5391,-3.5171,-3.4851,-3.4561,-3.4323,-3.3948,-3.3807,-3.3807,-3.3807,-3.3807,-3.3807,-3.3807,-3.3807,-3.3715,-3.3206,-3.2711,-3.221,-3.1054,-3.0301,-2.9831,-2.928,-2.8987,-2.8987,-2.8987,-2.8987,-2.8987,-2.8987,-2.8987,-2.8987,-2.8987,-2.8987,-2.8987,-2.8987,-2.8987,-2.8987,-2.8987,-2.8987,-2.9023,-2.9225,-2.9552,-3.0067,-3.0735,-3.1208,-3.14,-3.1795,-3.1807,-3.1468,-3.137,-3.131,-3.1244,-3.1681,-3.229,-3.3305,-3.3694,-3.4353,-3.5363,-3.5447,-3.5346,-3.5566,-3.5616,-3.5616,-3.5616,-3.5616,-3.5616,-3.5616,-3.5616,-3.5616,-3.5616,-3.5616,-3.5616,-3.5616,-3.5616,-3.5616,-3.5616,-3.5616,-3.5616,-3.5616,-3.5616,-3.5616,-3.5616,-3.56,-3.5515,-3.5402,-3.5301,-3.5042,-3.437,-3.4134,-3.3681,-3.2835,-3.2327,-3.1938,-3.1427,-3.119,-3.119,-3.119,-3.119,-3.119,-4.2723,-4.1879,-4.0906,-4.0496,-4.0496,-4.0496,-4.0496,-4.0496,-4.0496,-3.9996,-3.9073,-3.8354,-3.7488,-3.65,-3.5788,-3.55,-3.55,-3.55,-3.5486,-3.5383,-3.4944,-3.4694,-3.4624,-3.4074,-3.382,-3.3807,-3.3807,-3.3807,-3.3807,-3.3807,-3.3807,-3.3788,-3.3715,-3.2944,-3.1751,-3.1403,-3.0577,-2.9354,-2.9078,-2.8987,-2.8987,-2.8987,-2.8987,-2.8987,-2.8987,-2.8987,-2.8987,-2.8987,-2.8987,-2.8987,-2.8987,-2.8987,-2.8987,-2.8987,-2.9005,-2.9097,-2.9714,-3.0473,-3.1212,-3.1683,-3.2198,-3.2826,-3.2626,-3.2264,-3.1843,-3.1771,-3.1621,-3.1249,-3.1336,-3.1927,-3.3102,-3.3034,-3.3508,-3.5177,-3.4979,-3.5013,-3.5532,-3.5616,-3.5616,-3.5616,-3.5616,-3.5616,-3.5616,-3.5616,-3.5616,-3.5616,-3.5616,-3.5616,-3.5616,-3.5616,-3.5616,-3.5616,-3.5616,-3.5616,-3.5616,-3.5616,-3.5616,-3.5549,-3.5464,-3.5368,-3.4895,-3.4455,-3.4083,-3.3626,-3.3139,-3.2682,-3.2293,-3.1904,-3.1478,-3.119,-3.119,-3.119,-3.119,-3.119,-3.119,-4.2441,-4.1012,-4.0642,-4.0496,-4.0496,-4.0496,-4.0496,-4.0496,-4.0496,-3.9746,-3.8565,-3.8123,-3.7238,-3.5923,-3.5635,-3.55,-3.55,-3.55,-3.5398,-3.5231,-3.5034,-3.4764,-3.4368,-3.4153,-3.3961,-3.3834,-3.3807,-3.3807,-3.3807,-3.3807,-3.3807,-3.3807,-3.3807,-3.3238,-3.2265,-3.1654,-3.0834,-2.9831,-2.9299,-2.8987,-2.8987,-2.8987,-2.8987,-2.8987,-2.8987,-2.8987,-2.8987,-2.8987,-2.8987,-2.8987,-2.8987,-2.8987,-2.8987,-2.8987,-2.9244,-2.9721,-3.0044,-3.0779,-3.1959,-3.2313,-3.2615,-3.3105,-3.306,-3.2745,-3.2349,-3.223,-3.2057,-3.1714,-3.1601,-3.2173,-3.3012,-3.3136,-3.3508,-3.4607,-3.5081,-3.5228,-3.5515,-3.5616,-3.5616,-3.5616,-3.5616,-3.5616,-3.5616,-3.5616,-3.5616,-3.5616,-3.5616,-3.5616,-3.5616,-3.5616,-3.56,-3.56,-3.5616,-3.5616,-3.5616,-3.5616,-3.5566,-3.543,-3.5284,-3.4912,-3.451,-3.3947,-3.3541,-3.2916,-3.231,-3.2056,-3.1836,-3.1616,-3.119,-3.119,-3.119,-3.119,-3.119,-3.119,-3.119,-4.2038,-4.0684,-4.0519,-4.0496,-4.0496,-4.0496,-4.0496,-4.0496,-4.0496,-3.9842,-3.8854,-3.8257,-3.7353,-3.6308,-3.575,-3.55,-3.55,-3.55,-3.541,-3.5223,-3.5138,-3.4879,-3.4513,-3.4292,-3.4099,-3.3941,-3.3829,-3.3807,-3.3807,-3.3807,-3.3807,-3.3807,-3.3807,-3.3385,-3.2601,-3.1788,-3.0999,-3.021,-2.9427,-2.8987,-2.8987,-2.8987,-2.8987,-2.8987,-2.8987,-2.8987,-2.8987,-2.8987,-2.8987,-2.8987,-2.8987,-2.8987,-2.8987,-2.8987,-2.9225,-2.9757,-3.0301,-3.1035,-3.2082,-3.2674,-3.3094,-3.3364,-3.3394,-3.3196,-3.2793,-3.2729,-3.2501,-3.2144,-3.1878,-3.2228,-3.302,-3.3341,-3.3795,-3.4641,-3.5115,-3.5346,-3.5549,-3.56,-3.5616,-3.5616,-3.5616,-3.5616,-3.5616,-3.5616,-3.5616,-3.5616,-3.5616,-3.5616,-3.5616,-3.56,-3.5464,-3.5278,-3.5199,-3.5008,-3.4788,-3.4602,-3.4928,-3.4878,-3.4793,-3.4438,-3.3901,-3.3372,-3.2865,-3.2222,-3.1853,-3.165,-3.1444,-3.1241,-3.119,-3.119,-3.119,-3.119,-3.119,-3.119,-3.119,-4.1573,-4.0732,-4.0552,-4.0496,-4.0496,-4.0496,-4.0496,-4.0496,-4.0496,-4.0342,-3.9842,-3.8681,-3.7853,-3.7488,-3.6096,-3.55,-3.55,-3.55,-3.5493,-3.5439,-3.5231,-3.5105,-3.498,-3.4513,-3.4235,-3.4159,-3.3928,-3.3807,-3.3807,-3.3807,-3.3807,-3.3807,-3.3807,-3.3403,-3.2601,-3.1788,-3.1011,-3.021,-2.9409,-2.9005,-2.8987,-2.8987,-2.8987,-2.8987,-2.8987,-2.8987,-2.8987,-2.8987,-2.8987,-2.8987,-2.8987,-2.8987,-2.8987,-2.8987,-2.903,-2.939,-3.0522,-3.1311,-3.1635,-3.2908,-3.3678,-3.3753,-3.3762,-3.3578,-3.3273,-3.3199,-3.2999,-3.2567,-3.2301,-3.233,-3.3052,-3.3497,-3.4088,-3.5211,-3.5008,-3.5008,-3.543,-3.5616,-3.5616,-3.5616,-3.5616,-3.5616,-3.5616,-3.5616,-3.5616,-3.5616,-3.5616,-3.5616,-3.5616,-3.5616,-3.5301,-3.4776,-3.4641,-3.4607,-3.3998,-3.3457,-3.388,-3.4184,-3.4134,-3.3918,-3.3123,-3.2513,-3.2188,-3.1667,-3.1529,-3.1343,-3.136,-3.119,-3.119,-3.119,-3.119,-3.119,-3.119,-3.119,-3.119,-4.1553,-4.0705,-4.0559,-4.0496,-4.0496,-4.0496,-4.0496,-4.0496,-4.0496,-4.0189,-3.9534,-3.8507,-3.768,-3.6981,-3.5962,-3.55,-3.55,-3.55,-3.55,-3.5467,-3.5398,-3.5273,-3.5096,-3.4907,-3.4605,-3.4211,-3.3923,-3.3807,-3.3807,-3.3807,-3.3807,-3.3807,-3.3807,-3.3385,-3.2619,-3.1788,-3.0999,-3.021,-2.9409,-2.9005,-2.8987,-2.9005,-2.9005,-2.8987,-2.8987,-2.8987,-2.8987,-2.8987,-2.8987,-2.8987,-2.8987,-2.8987,-2.8987,-2.8987,-2.9244,-2.9861,-3.0797,-3.169,-3.2284,-3.3146,-3.3807,-3.3807,-3.3807,-3.3766,-3.3638,-3.3611,-3.3404,-3.3132,-3.3323,-3.3802,-3.4217,-3.4826,-3.5047,-3.488,-3.5059,-3.5301,-3.5532,-3.5616,-3.5616,-3.5616,-3.5616,-3.5616,-3.5616,-3.5616,-3.5616,-3.5616,-3.5616,-3.5616,-3.5616,-3.5549,-3.5334,-3.4675,-3.4506,-3.4049,-3.3355,-3.2899,-3.3068,-3.3271,-3.3275,-3.3224,-3.2462,-3.1921,-3.1565,-3.136,-3.1241,-3.119,-3.119,-3.119,-3.119,-3.119,-3.119,-3.119,-3.119,-3.119,-3.119,-4.1307,-4.0731,-4.0617,-4.0537,-4.0496,-4.0496,-4.0323,-4.0131,-4.0381,-3.9881,-3.8854,-3.8257,-3.7526,-3.6654,-3.5846,-3.55,-3.55,-3.55,-3.55,-3.55,-3.55,-3.5391,-3.525,-3.5149,-3.4794,-3.4269,-3.4031,-3.3908,-3.3807,-3.3807,-3.3807,-3.3807,-3.3807,-3.3587,-3.3018,-3.2265,-3.1568,-3.1035,-3.032,-2.9751,-2.95,-2.9445,-2.928,-2.9042,-2.8987,-2.8987,-2.8987,-2.8987,-2.8987,-2.8987,-2.8987,-2.8987,-2.8987,-2.9005,-2.9225,-2.9824,-3.076,-3.1623,-3.221,-3.3128,-3.3807,-3.3807,-3.3807,-3.3807,-3.3807,-3.3807,-3.3666,-3.3589,-3.3656,-3.4121,-3.4543,-3.48,-3.5003,-3.5117,-3.5548,-3.5776,-3.5689,-3.5616,-3.5616,-3.5616,-3.5616,-3.5616,-3.5616,-3.5616,-3.5616,-3.5616,-3.5616,-3.5616,-3.5549,-3.5329,-3.4844,-3.4269,-3.3677,-3.3169,-3.2662,-3.2408,-3.2307,-3.2307,-3.231,-3.2242,-3.187,-3.1582,-3.1258,-3.1275,-3.119,-3.119,-3.119,-3.119,-3.119,-3.119,-3.119,-3.119,-3.119,-3.119,-3.119,-4.0942,-4.0817,-4.0726,-4.063,-4.0527,-4.0504,-4.0073,-3.9534,-4.0054,-3.9496,-3.8296,-3.7892,-3.743,-3.6661,-3.5865,-3.55,-3.55,-3.55,-3.55,-3.55,-3.55,-3.5467,-3.5432,-3.5215,-3.4841,-3.4394,-3.4277,-3.4105,-3.3876,-3.3881,-3.382,-3.382,-3.3807,-3.3715,-3.3403,-3.2913,-3.2417,-3.2082,-3.1513,-3.0742,-3.0136,-3.0014,-2.9721,-2.9023,-2.8987,-2.8987,-2.8987,-2.8987,-2.8987,-2.8987,-2.8987,-2.8987,-2.8987,-2.8987,-2.9042,-2.9189,-3.0522,-3.1256,-3.1751,-3.2944,-3.3807,-3.3807,-3.3807,-3.3807,-3.3807,-3.3807,-3.3793,-3.3739,-3.3647,-3.375,-3.4207,-3.4373,-3.4693,-3.5631,-3.6063,-3.6075,-3.5654,-3.5548,-3.5436,-3.5447,-3.5532,-3.5566,-3.5549,-3.5616,-3.5616,-3.5616,-3.5616,-3.5616,-3.5464,-3.5098,-3.4286,-3.3677,-3.3152,-3.2513,-3.2036,-3.1867,-3.1782,-3.1799,-3.1769,-3.1684,-3.1565,-3.1326,-3.119,-3.119,-3.119,-3.119,-3.119,-3.119,-3.119,-3.119,-3.119,-3.119,-3.119,-3.119,-3.119,-4.0968,-4.0939,-4.0767,-4.0674,-4.0617,-4.0564,-4.0035,-3.9361,-3.9515,-3.9027,-3.8007,-3.7296,-3.6942,-3.6615,-3.5846,-3.55,-3.55,-3.55,-3.55,-3.55,-3.55,-3.55,-3.5446,-3.5223,-3.5025,-3.4823,-3.4645,-3.442,-3.4111,-3.4086,-3.3993,-3.382,-3.3797,-3.349,-3.2963,-3.2729,-3.2265,-3.1678,-3.0962,-3.0503,-3.0173,-2.9629,-2.9225,-2.9042,-2.8987,-2.8987,-2.8987,-2.8987,-2.8987,-2.8987,-2.8987,-2.8987,-2.8987,-2.8987,-2.9023,-2.9317,-3.0467,-3.1433,-3.1727,-3.2889,-3.3733,-3.3807,-3.3807,-3.3807,-3.3807,-3.3807,-3.3807,-3.3903,-3.4174,-3.452,-3.4819,-3.5169,-3.5548,-3.5607,-3.6029,-3.6087,-3.548,-3.5036,-3.4793,-3.4776,-3.482,-3.5062,-3.5379,-3.556,-3.5577,-3.5571,-3.5583,-3.5532,-3.5351,-3.4844,-3.4049,-3.3457,-3.2865,-3.2107,-3.1565,-3.136,-3.1275,-3.1326,-3.1343,-3.1376,-3.1309,-3.1241,-3.119,-3.119,-3.119,-3.119,-3.119,-3.119,-3.119,-3.119,-3.119,-3.119,-3.119,-3.119,-3.119,-4.1052,-4.099,-4.0882,-4.08,-4.0736,-4.063,-3.9919,-3.9057,-3.916,-3.8354,-3.718,-3.6808,-3.6519,-3.6154,-3.5712,-3.55,-3.55,-3.55,-3.55,-3.55,-3.55,-3.55,-3.5453,-3.5312,-3.5195,-3.5096,-3.4944,-3.4714,-3.4475,-3.4401,-3.4093,-3.3648,-3.3826,-3.3473,-3.2742,-3.2949,-3.2706,-3.2008,-3.1403,-3.0944,-3.021,-2.9757,-2.9335,-2.9115,-2.8987,-2.8987,-2.8987,-2.8987,-2.8987,-2.8987,-2.8987,-2.8987,-2.8987,-2.8987,-2.9152,-2.95,-3.0723,-3.1525,-3.2063,-3.3091,-3.3733,-3.3807,-3.3807,-3.3807,-3.3807,-3.3807,-3.3807,-3.388,-3.427,-3.4435,-3.4619,-3.5243,-3.5546,-3.5408,-3.5721,-3.5728,-3.5119,-3.4792,-3.4631,-3.4591,-3.4625,-3.4644,-3.4989,-3.5237,-3.5295,-3.5265,-3.5414,-3.5295,-3.5098,-3.4472,-3.3876,-3.3264,-3.2598,-3.1817,-3.1475,-3.1303,-3.121,-3.1227,-3.1207,-3.119,-3.119,-3.119,-3.119,-3.119,-3.119,-3.119,-3.119,-3.119,-3.119,-3.119,-3.119,-3.119,-3.119,-3.119,-3.119,-4.1147,-4.1023,-4.1017,-4.0925,-4.0824,-4.0712,-3.9757,-3.8551,-3.8824,-3.7777,-3.6135,-3.6308,-3.6135,-3.55,-3.5538,-3.55,-3.55,-3.55,-3.55,-3.55,-3.55,-3.55,-3.55,-3.546,-3.5361,-3.5207,-3.5157,-3.4981,-3.4774,-3.4734,-3.4214,-3.3676,-3.3895,-3.3524,-3.2907,-3.3259,-3.3151,-3.2449,-3.2137,-3.1384,-3.0375,-2.9904,-2.95,-2.9078,-2.8987,-2.8987,-2.8987,-2.8987,-2.8987,-2.8987,-2.8987,-2.8987,-2.8987,-2.8987,-2.928,-2.9886,-3.065,-3.1458,-3.2247,-3.2908,-3.3623,-3.3587,-3.3697,-3.3807,-3.3807,-3.3807,-3.3807,-3.3807,-3.3807,-3.3917,-3.399,-3.4527,-3.4789,-3.4822,-3.5123,-3.506,-3.4762,-3.4606,-3.4588,-3.457,-3.457,-3.4406,-3.446,-3.4646,-3.5045,-3.5349,-3.5376,-3.5225,-3.4899,-3.4355,-3.3699,-3.3005,-3.2276,-3.1509,-3.1368,-3.1312,-3.1271,-3.123,-3.121,-3.119,-3.119,-3.119,-3.119,-3.119,-3.119,-3.119,-3.119,-3.119,-3.119,-3.119,-3.119,-3.119,-3.119,-3.119,-3.119,-4.1172,-4.115,-4.1049,-4.0988,-4.092,-4.0738,-3.9741,-3.8294,-3.8272,-3.731,-3.5865,-3.5712,-3.5673,-3.55,-3.55,-3.55,-3.55,-3.55,-3.55,-3.55,-3.55,-3.55,-3.55,-3.55,-3.546,-3.5391,-3.5398,-3.5273,-3.506,-3.4971,-3.4775,-3.4275,-3.3608,-3.3159,-3.2954,-3.2827,-3.2485,-3.1806,-3.1672,-3.1164,-3.0246,-2.9574,-2.9225,-2.8987,-2.8987,-2.8987,-2.8987,-2.8987,-2.8987,-2.8987,-2.8987,-2.8987,-2.8987,-2.8987,-2.9152,-2.9519,-3.0118,-3.0613,-3.098,-3.2161,-3.2876,-3.306,-3.3513,-3.3807,-3.3807,-3.3807,-3.3807,-3.3807,-3.3807,-3.3807,-3.3844,-3.3935,-3.4119,-3.4206,-3.4224,-3.4217,-3.4022,-3.3926,-3.3931,-3.3897,-3.3915,-3.4023,-3.4463,-3.4585,-3.495,-3.533,-3.5327,-3.5189,-3.4695,-3.4149,-3.3553,-3.2869,-3.2471,-3.186,-3.1732,-3.1677,-3.162,-3.1506,-3.1408,-3.1312,-3.1293,-3.119,-3.119,-3.119,-3.119,-3.119,-3.119,-3.119,-3.119,-3.119,-3.119,-3.119,-3.119,-3.119,-3.1038,-4.1191,-4.1191,-4.1107,-4.1083,-4.1055,-4.0893,-4.0088,-3.8918,-3.8301,-3.734,-3.6187,-3.5692,-3.55,-3.55,-3.55,-3.55,-3.55,-3.55,-3.55,-3.55,-3.55,-3.55,-3.55,-3.55,-3.55,-3.55,-3.5481,-3.5398,-3.5312,-3.517,-3.4688,-3.3874,-3.3689,-3.3253,-3.262,-3.2508,-3.2205,-3.1476,-3.0993,-3.0448,-2.9666,-2.9262,-2.8987,-2.8987,-2.8987,-2.8987,-2.8987,-2.8987,-2.8987,-2.8987,-2.8987,-2.8987,-2.8987,-2.9005,-2.917,-2.9641,-3.032,-3.0962,-3.1537,-3.2381,-3.322,-3.3133,-3.3587,-3.3733,-3.3807,-3.3807,-3.3807,-3.3807,-3.3807,-3.3807,-3.3807,-3.3825,-3.3807,-3.3807,-3.3807,-3.3807,-3.3794,-3.3724,-3.3702,-3.3684,-3.3749,-3.3771,-3.3981,-3.4329,-3.441,-3.4606,-3.4992,-3.4815,-3.4287,-3.3776,-3.3407,-3.2931,-3.2683,-3.2368,-3.2196,-3.2109,-3.2074,-3.1932,-3.1733,-3.1623,-3.1565,-3.1372,-3.119,-3.119,-3.119,-3.119,-3.119,-3.119,-3.119,-3.119,-3.119,-3.119,-3.1072,-3.0869,-3.0683,-4.1191,-4.1191,-4.1191,-4.1191,-4.1152,-4.087,-4.0168,-3.9268,-3.8394,-3.7263,-3.6528,-3.5769,-3.55,-3.55,-3.55,-3.55,-3.55,-3.55,-3.55,-3.55,-3.55,-3.55,-3.55,-3.55,-3.55,-3.55,-3.55,-3.5486,-3.5486,-3.5371,-3.4641,-3.3339,-3.3838,-3.3373,-3.227,-3.2127,-3.1935,-3.1109,-3.0558,-2.9922,-2.9244,-2.9023,-2.9005,-2.8987,-2.8987,-2.8987,-2.8987,-2.8987,-2.8987,-2.8987,-2.8987,-2.8987,-2.8987,-2.9042,-2.9372,-3.0118,-3.0717,-3.1256,-3.1953,-3.2889,-3.3458,-3.3623,-3.377,-3.3788,-3.3807,-3.3807,-3.3807,-3.3807,-3.3807,-3.3807,-3.3807,-3.3807,-3.3807,-3.3807,-3.3807,-3.3807,-3.3807,-3.3807,-3.3799,-3.3799,-3.3765,-3.3764,-3.3767,-3.3933,-3.3898,-3.3938,-3.4335,-3.448,-3.3983,-3.3589,-3.3364,-3.3281,-3.3106,-3.2858,-3.2681,-3.2367,-3.235,-3.2196,-3.2021,-3.1843,-3.1697,-3.1411,-3.119,-3.119,-3.119,-3.119,-3.119,-3.119,-3.119,-3.119,-3.119,-3.119,-3.092,-3.0548,-3.0345,-4.1191,-4.1191,-4.1191,-4.1191,-4.1035,-4.0235,-3.9396,-3.8436,-3.7489,-3.6503,-3.5795,-3.5577,-3.55,-3.55,-3.55,-3.55,-3.55,-3.55,-3.55,-3.55,-3.55,-3.55,-3.55,-3.55,-3.55,-3.55,-3.55,-3.55,-3.55,-3.5397,-3.475,-3.384,-3.3637,-3.2974,-3.2149,-3.1653,-3.1262,-3.0632,-3.021,-2.9666,-2.917,-2.8987,-2.8987,-2.8987,-2.8987,-2.8987,-2.8987,-2.8987,-2.8987,-2.8987,-2.8987,-2.8987,-2.8987,-2.8987,-2.9372,-2.9959,-3.0448,-3.1054,-3.1715,-3.2467,-3.2779,-3.2963,-3.344,-3.3788,-3.3807,-3.3807,-3.3807,-3.3807,-3.3807,-3.3807,-3.3807,-3.3807,-3.3807,-3.3807,-3.3807,-3.3807,-3.3807,-3.3807,-3.3807,-3.3807,-3.3793,-3.378,-3.3785,-3.381,-3.3913,-3.3954,-3.4105,-3.4434,-3.4338,-3.3978,-3.368,-3.3674,-3.3675,-3.3404,-3.3151,-3.2745,-3.2501,-3.2333,-3.2127,-3.1879,-3.166,-3.1351,-3.119,-3.121,-3.121,-3.119,-3.119,-3.119,-3.119,-3.119,-3.119,-3.119,-3.0768,-3.0345,-3.0074,-4.1191,-4.1191,-4.1191,-4.0918,-4.0469,-3.9925,-3.914,-3.8225,-3.7243,-3.6556,-3.6105,-3.5712,-3.55,-3.55,-3.55,-3.55,-3.55,-3.55,-3.55,-3.55,-3.55,-3.55,-3.55,-3.55,-3.55,-3.55,-3.55,-3.55,-3.55,-3.55,-3.4913,-3.4182,-3.3737,-3.3062,-3.2047,-3.1325,-3.0773,-3.0214,-2.9787,-2.9439,-2.9042,-2.8987,-2.8987,-2.8987,-2.8987,-2.8987,-2.8987,-2.8987,-2.8987,-2.8987,-2.8987,-2.8987,-2.9005,-2.9042,-2.917,-2.9666,-3.0356,-3.0944,-3.158,-3.2449,-3.3238,-3.3293,-3.3623,-3.3788,-3.3807,-3.3807,-3.3807,-3.3807,-3.3807,-3.3807,-3.3807,-3.3807,-3.3807,-3.3807,-3.3807,-3.3807,-3.3807,-3.3807,-3.3807,-3.3807,-3.3807,-3.3807,-3.3807,-3.3876,-3.4,-3.4027,-3.3972,-3.4174,-3.4454,-3.4192,-3.3807,-3.3807,-3.3793,-3.368,-3.348,-3.3211,-3.284,-3.2632,-3.2417,-3.2161,-3.195,-3.1769,-3.143,-3.1232,-3.1213,-3.1332,-3.119,-3.119,-3.119,-3.119,-3.119,-3.1072,-3.0565,-3.0159,-2.9803,-4.1191,-4.1191,-4.0996,-4.0527,-3.9883,-3.9358,-3.8751,-3.7981,-3.7053,-3.6535,-3.6408,-3.5849,-3.5528,-3.5509,-3.5501,-3.55,-3.55,-3.55,-3.55,-3.55,-3.55,-3.55,-3.55,-3.55,-3.55,-3.55,-3.55,-3.55,-3.55,-3.55,-3.4967,-3.4242,-3.3845,-3.3137,-3.1968,-3.1105,-3.0538,-2.9935,-2.9464,-2.9085,-2.8998,-2.8987,-2.8987,-2.8987,-2.8987,-2.8987,-2.8987,-2.8987,-2.8987,-2.8987,-2.9005,-2.9078,-2.9189,-2.9078,-2.9152,-2.9629,-3.0723,-3.1292,-3.199,-3.2889,-3.3678,-3.3678,-3.377,-3.3807,-3.3807,-3.3807,-3.3807,-3.3807,-3.3807,-3.3807,-3.3807,-3.3807,-3.3807,-3.3807,-3.3807,-3.3807,-3.3807,-3.3807,-3.3807,-3.3807,-3.3807,-3.3807,-3.3807,-3.3825,-3.3935,-3.3935,-3.388,-3.388,-3.4119,-3.4045,-3.3807,-3.3807,-3.3807,-3.3807,-3.3739,-3.3694,-3.3375,-3.3105,-3.2903,-3.2681,-3.2517,-3.2367,-3.1916,-3.1449,-3.1657,-3.1731,-3.1485,-3.1193,-3.119,-3.119,-3.119,-3.0937,-3.0412,-2.9753,-2.9228,-4.1191,-4.1133,-4.0391,-4.0,-3.9648,-3.8245,-3.7482,-3.7212,-3.6327,-3.5841,-3.5888,-3.5674,-3.5585,-3.556,-3.5515,-3.5488,-3.55,-3.55,-3.55,-3.55,-3.55,-3.55,-3.55,-3.55,-3.55,-3.55,-3.55,-3.55,-3.55,-3.55,-3.4976,-3.4182,-3.3727,-3.2993,-3.1653,-3.094,-3.0395,-2.9644,-2.9407,-2.9235,-2.9074,-2.9021,-2.901,-2.8987,-2.8987,-2.8987,-2.8987,-2.8987,-2.8987,-2.8987,-2.8987,-2.9354,-2.9794,-2.9335,-2.9904,-3.065,-3.1366,-3.1709,-3.2362,-3.3256,-3.3807,-3.3807,-3.3807,-3.3807,-3.3807,-3.3807,-3.3807,-3.3807,-3.3807,-3.3807,-3.3807,-3.3807,-3.3807,-3.3807,-3.3807,-3.3807,-3.3807,-3.3807,-3.3807,-3.3807,-3.3807,-3.3807,-3.3807,-3.3807,-3.3825,-3.3807,-3.3807,-3.3807,-3.3807,-3.3807,-3.3807,-3.3807,-3.3807,-3.3807,-3.3807,-3.3807,-3.3726,-3.348,-3.3346,-3.3136,-3.2903,-3.2642,-3.209,-3.179,-3.1984,-3.1742,-3.1193,-3.0984,-3.1135,-3.1074,-3.0922,-3.0604,-3.0243,-2.9534,-2.8815,-4.1191,-4.1133,-4.0273,-3.9609,-3.9004,-3.7736,-3.69,-3.6421,-3.5939,-3.5703,-3.57,-3.5683,-3.5624,-3.56,-3.5522,-3.5488,-3.55,-3.5481,-3.55,-3.55,-3.55,-3.55,-3.55,-3.55,-3.55,-3.55,-3.55,-3.55,-3.5481,-3.5442,-3.5144,-3.4678,-3.3741,-3.294,-3.1654,-3.0845,-3.0191,-2.9729,-2.957,-2.9455,-2.9299,-2.9232,-2.9167,-2.9017,-2.8998,-2.9017,-2.9042,-2.8987,-2.8987,-2.8987,-2.8987,-2.9372,-2.9776,-2.9592,-2.9702,-3.1164,-3.1384,-3.1788,-3.2528,-3.3348,-3.3697,-3.3807,-3.3807,-3.3807,-3.3807,-3.3807,-3.3807,-3.3807,-3.3807,-3.3807,-3.3807,-3.3807,-3.3807,-3.3807,-3.3807,-3.3807,-3.3807,-3.3807,-3.3807,-3.3807,-3.3807,-3.3807,-3.3807,-3.3807,-3.3807,-3.3807,-3.3807,-3.3807,-3.3807,-3.3807,-3.3807,-3.3807,-3.3807,-3.3807,-3.3807,-3.3807,-3.3807,-3.3666,-3.3666,-3.3465,-3.3181,-3.2819,-3.2384,-3.1954,-3.1862,-3.1486,-3.0855,-3.0837,-3.101,-3.082,-3.056,-3.0179,-2.9834,-2.9434,-2.8702,-4.0566,-4.0488,-3.9844,-3.9062,-3.8203,-3.7294,-3.6544,-3.5973,-3.5828,-3.5788,-3.5758,-3.5744,-3.5705,-3.5636,-3.5568,-3.5528,-3.5515,-3.5501,-3.5488,-3.55,-3.55,-3.55,-3.55,-3.55,-3.55,-3.55,-3.55,-3.55,-3.5423,-3.525,-3.5058,-3.5077,-3.3307,-3.2563,-3.2008,-3.1006,-3.0053,-2.9826,-2.9713,-2.9588,-2.9494,-2.9483,-2.9322,-2.9181,-2.9108,-2.9177,-2.9292,-2.9335,-2.9335,-2.9696,-2.9445,-2.9787,-3.032,-2.9971,-3.0253,-3.1421,-3.1825,-3.2192,-3.2858,-3.3495,-3.3752,-3.3807,-3.3807,-3.3807,-3.3807,-3.3807,-3.3807,-3.3807,-3.3807,-3.3807,-3.3807,-3.3807,-3.3807,-3.3807,-3.3807,-3.3807,-3.3807,-3.3807,-3.3807,-3.3807,-3.3807,-3.3807,-3.3807,-3.3807,-3.3807,-3.3807,-3.3807,-3.3807,-3.3807,-3.3807,-3.3807,-3.3807,-3.3807,-3.3807,-3.3807,-3.3807,-3.3807,-3.377,-3.377,-3.3734,-3.3462,-3.3204,-3.2877,-3.2451,-3.1859,-3.1053,-3.0318,-3.0609,-3.0845,-3.0561,-3.0237,-2.9769,-2.9391,-2.9051,-2.8653,-3.8769,-3.8769,-3.8711,-3.8203,-3.7383,-3.6465,-3.6074,-3.5996,-3.5976,-3.5976,-3.5951,-3.5893,-3.5799,-3.5709,-3.5626,-3.5595,-3.559,-3.5541,-3.5521,-3.5508,-3.55,-3.55,-3.55,-3.55,-3.55,-3.55,-3.55,-3.55,-3.525,-3.4584,-3.4391,-3.4052,-3.2737,-3.2058,-3.1546,-3.0893,-3.0234,-3.0003,-2.988,-2.9746,-2.9696,-2.968,-2.957,-2.9414,-2.9407,-2.959,-3.005,-2.9898,-3.0136,-3.065,-3.0081,-3.0301,-3.0754,-3.0301,-3.076,-3.1885,-3.2307,-3.2711,-3.3385,-3.3642,-3.377,-3.3807,-3.3807,-3.3807,-3.3807,-3.3807,-3.3807,-3.3807,-3.3807,-3.3807,-3.3807,-3.3807,-3.3807,-3.3807,-3.3807,-3.3807,-3.3807,-3.3807,-3.3807,-3.3807,-3.3807,-3.3807,-3.3807,-3.3807,-3.3807,-3.3807,-3.3807,-3.3807,-3.3807,-3.3807,-3.3807,-3.3807,-3.3807,-3.3807,-3.3788,-3.3733,-3.3568,-3.3568,-3.3587,-3.3697,-3.3703,-3.3478,-3.3254,-3.2349,-3.1614,-3.0708,-2.9947,-3.0044,-3.0115,-3.0145,-2.9905,-2.9504,-2.9109,-2.8756,-2.8429,-3.8281,-3.7812,-3.7812,-3.7617,-3.7226,-3.6367,-3.6016,-3.6016,-3.6016,-3.6016,-3.6015,-3.594,-3.5873,-3.5799,-3.5716,-3.5667,-3.565,-3.5595,-3.5574,-3.554,-3.5515,-3.5494,-3.55,-3.55,-3.55,-3.55,-3.55,-3.55,-3.5365,-3.418,-3.3545,-3.2987,-3.2179,-3.1891,-3.1429,-3.0846,-3.0413,-3.026,-3.0148,-3.0059,-2.9893,-2.9896,-2.978,-2.9588,-2.9424,-2.9483,-2.9624,-2.9538,-2.9976,-3.0295,-2.9921,-3.0423,-3.1072,-3.0563,-3.1066,-3.2267,-3.2482,-3.2959,-3.3553,-3.3778,-3.3807,-3.3807,-3.3807,-3.3807,-3.3807,-3.3807,-3.3807,-3.3807,-3.3807,-3.3807,-3.3807,-3.3807,-3.3807,-3.3807,-3.3807,-3.3807,-3.3807,-3.3807,-3.3807,-3.3807,-3.3807,-3.3807,-3.3807,-3.3807,-3.3807,-3.3807,-3.3807,-3.3807,-3.3807,-3.3807,-3.3807,-3.3807,-3.3807,-3.3807,-3.3807,-3.3568,-3.3316,-3.3403,-3.3476,-3.3587,-3.3733,-3.377,-3.3376,-3.2394,-3.1384,-3.0558,-2.9911,-2.9506,-2.9429,-2.9552,-2.9499,-2.9277,-2.8869,-2.855,-2.8389,-3.7461,-3.6934,-3.6914,-3.6914,-3.6816,-3.6269,-3.6016,-3.6016,-3.6016,-3.6016,-3.6016,-3.5948,-3.5939,-3.591,-3.5834,-3.5761,-3.5739,-3.5667,-3.5616,-3.5585,-3.5544,-3.5515,-3.5501,-3.55,-3.55,-3.55,-3.55,-3.55,-3.5404,-3.3737,-3.316,-3.2679,-3.1872,-3.1371,-3.1121,-3.0769,-3.0404,-3.0404,-3.0373,-3.0323,-3.0129,-3.0122,-3.0018,-2.9813,-2.967,-2.9805,-2.9914,-3.0006,-3.0256,-3.0457,-3.0372,-3.0313,-3.0654,-3.0927,-3.1131,-3.1749,-3.2384,-3.2754,-3.3167,-3.3666,-3.3778,-3.3807,-3.3807,-3.3807,-3.3807,-3.382,-3.3807,-3.3807,-3.3807,-3.3788,-3.3788,-3.3807,-3.3807,-3.3807,-3.3807,-3.3807,-3.3807,-3.3807,-3.3807,-3.3807,-3.3678,-3.344,-3.377,-3.3752,-3.3733,-3.3752,-3.3807,-3.3807,-3.3807,-3.3807,-3.3807,-3.3807,-3.3807,-3.3807,-3.3788,-3.3587,-3.3421,-3.3568,-3.3623,-3.3568,-3.366,-3.3623,-3.3146,-3.2008,-3.1091,-3.0393,-2.9801,-2.929,-2.9119,-2.9057,-2.9045,-2.9095,-2.9028,-2.8754,-2.8693,-3.6113,-3.6035,-3.6074,-3.6074,-3.6113,-3.6035,-3.6016,-3.6016,-3.6016,-3.6016,-3.6016,-3.5996,-3.5996,-3.5976,-3.5916,-3.5884,-3.5851,-3.5761,-3.5687,-3.5635,-3.5626,-3.5587,-3.5534,-3.5515,-3.5502,-3.5488,-3.5481,-3.5462,-3.5327,-3.3718,-3.3026,-3.2372,-3.1404,-3.0615,-3.0462,-3.0423,-3.0404,-3.0404,-3.0404,-3.0367,-3.0355,-3.0323,-3.0189,-3.0054,-2.9924,-3.0061,-3.0271,-3.0302,-3.0611,-3.1135,-3.0705,-3.0611,-3.0827,-3.0893,-3.0959,-3.11,-3.1805,-3.2144,-3.2257,-3.3203,-3.3633,-3.3904,-3.4018,-3.3967,-3.3881,-3.386,-3.3868,-3.3902,-3.3705,-3.3678,-3.3733,-3.3678,-3.355,-3.3623,-3.3587,-3.3715,-3.3715,-3.3532,-3.3476,-3.333,-3.3018,-3.2858,-3.3385,-3.3697,-3.366,-3.3678,-3.3752,-3.3788,-3.377,-3.3587,-3.3495,-3.3348,-3.3293,-3.3109,-3.3086,-3.3458,-3.355,-3.3697,-3.355,-3.3238,-3.3073,-3.2926,-3.2302,-3.147,-3.0834,-3.0173,-2.9574,-2.9012,-2.8987,-2.8987,-2.8987,-2.9007,-2.8994,-2.8964,-2.8875,-3.5951,-3.6016,-3.6016,-3.6016,-3.6016,-3.6016,-3.6016,-3.6016,-3.6016,-3.6016,-3.6016,-3.6016,-3.6016,-3.5996,-3.5996,-3.5976,-3.5948,-3.5882,-3.5791,-3.5777,-3.5725,-3.564,-3.5593,-3.5562,-3.554,-3.5508,-3.5462,-3.509,-3.4584,-3.3333,-3.2583,-3.191,-3.1058,-3.0481,-3.0404,-3.0404,-3.0404,-3.0404,-3.0404,-3.0398,-3.0404,-3.0398,-3.0355,-3.0222,-3.0096,-3.0148,-3.0367,-3.0335,-3.0663,-3.1174,-3.0636,-3.0476,-3.075,-3.0863,-3.0883,-3.1044,-3.161,-3.2081,-3.2128,-3.262,-3.3242,-3.384,-3.4255,-3.4236,-3.4394,-3.4177,-3.4099,-3.387,-3.3443,-3.3269,-3.2999,-3.2425,-3.2315,-3.2834,-3.3018,-3.3366,-3.3421,-3.3091,-3.2889,-3.2669,-3.2381,-3.204,-3.2249,-3.2873,-3.3007,-3.3167,-3.3222,-3.3545,-3.3642,-3.3151,-3.2858,-3.2651,-3.2485,-3.2278,-3.2278,-3.2742,-3.2944,-3.2926,-3.2687,-3.2302,-3.2192,-3.221,-3.1623,-3.0846,-3.0411,-2.9989,-2.9427,-2.8987,-2.8987,-2.8987,-2.8987,-2.8987,-2.9005,-2.9005,-2.8964,-3.5918,-3.5953,-3.5976,-3.6016,-3.6016,-3.6016,-3.6016,-3.6016,-3.6016,-3.6016,-3.6016,-3.6016,-3.6016,-3.6016,-3.6016,-3.6016,-3.5996,-3.5951,-3.5907,-3.5882,-3.5809,-3.5716,-3.567,-3.563,-3.56,-3.5481,-3.5142,-3.4718,-3.4225,-3.3045,-3.2064,-3.1288,-3.0712,-3.0462,-3.0404,-3.0404,-3.0404,-3.0404,-3.0404,-3.0404,-3.0404,-3.0404,-3.0404,-3.0349,-3.0254,-3.0181,-3.0109,-3.0106,-3.0147,-3.0424,-3.0386,-3.0178,-3.0587,-3.072,-3.0728,-3.0937,-3.1127,-3.1621,-3.1857,-3.1979,-3.2722,-3.3728,-3.4141,-3.4392,-3.4579,-3.4475,-3.4128,-3.3765,-3.3187,-3.2794,-3.2413,-3.1735,-3.1797,-3.2359,-3.276,-3.3136,-3.295,-3.2622,-3.2585,-3.2309,-3.1804,-3.1464,-3.1244,-3.1759,-3.2224,-3.2439,-3.2636,-3.2991,-3.3259,-3.2669,-3.2179,-3.199,-3.1825,-3.169,-3.1782,-3.2137,-3.2247,-3.2192,-3.2027,-3.1861,-3.1494,-3.1513,-3.087,-3.0283,-2.9898,-2.9519,-2.9225,-2.8987,-2.8987,-2.8987,-2.8987,-2.8987,-2.8987,-2.8987,-2.8987,-3.5898,-3.5908,-3.5973,-3.5976,-3.6016,-3.6016,-3.6016,-3.6016,-3.6016,-3.6016,-3.6016,-3.6016,-3.6016,-3.6016,-3.6016,-3.6016,-3.6016,-3.5996,-3.5951,-3.5918,-3.5889,-3.5807,-3.5752,-3.5723,-3.5546,-3.5248,-3.4826,-3.4315,-3.393,-3.241,-3.1218,-3.0712,-3.05,-3.0404,-3.0404,-3.0404,-3.0404,-3.0404,-3.0404,-3.0404,-3.0404,-3.0404,-3.0404,-3.0373,-3.0355,-3.0323,-3.0311,-3.0331,-3.0337,-3.0407,-3.0381,-3.0374,-3.0424,-3.0398,-3.0398,-3.0424,-3.0496,-3.0964,-3.1373,-3.1507,-3.2006,-3.2857,-3.3173,-3.3753,-3.4159,-3.4178,-3.3807,-3.3381,-3.2857,-3.2577,-3.2201,-3.1965,-3.1758,-3.2227,-3.2659,-3.2669,-3.2425,-3.2312,-3.2388,-3.2058,-3.141,-3.1015,-3.0842,-3.1155,-3.1568,-3.1618,-3.1771,-3.1869,-3.2021,-3.1795,-3.1397,-3.1311,-3.1182,-3.1158,-3.1323,-3.1476,-3.1549,-3.1494,-3.1971,-3.1898,-3.1439,-3.076,-3.021,-2.9714,-2.9372,-2.9115,-2.9023,-2.8987,-2.8987,-2.8987,-2.8987,-2.8987,-2.8987,-2.8987,-2.8987,-3.5756,-3.5901,-3.5916,-3.595,-3.5996,-3.6016,-3.6016,-3.6016,-3.6016,-3.6016,-3.6016,-3.6016,-3.6016,-3.6016,-3.6016,-3.6016,-3.6016,-3.6016,-3.5996,-3.5957,-3.5957,-3.5918,-3.5859,-3.5758,-3.5443,-3.495,-3.442,-3.366,-3.2536,-3.1279,-3.0812,-3.0442,-3.0408,-3.0402,-3.041,-3.0404,-3.0404,-3.0404,-3.0404,-3.0404,-3.0404,-3.0404,-3.0404,-3.0404,-3.0404,-3.0404,-3.0404,-3.0404,-3.0404,-3.0404,-3.0404,-3.0404,-3.0404,-3.0404,-3.0404,-3.0404,-3.0436,-3.0552,-3.0731,-3.0788,-3.1154,-3.1852,-3.2156,-3.2623,-3.3073,-3.3296,-3.309,-3.28,-3.2379,-3.1992,-3.1765,-3.1567,-3.1624,-3.2049,-3.2267,-3.2012,-3.1823,-3.1851,-3.1889,-3.152,-3.0877,-3.0681,-3.0515,-3.0659,-3.099,-3.0929,-3.0901,-3.0988,-3.0977,-3.0809,-3.0718,-3.0651,-3.0421,-3.0353,-3.0466,-3.0625,-3.0736,-3.087,-3.1329,-3.1439,-3.0705,-3.0044,-2.9555,-2.928,-2.9133,-2.906,-2.9005,-2.8987,-2.8987,-2.8987,-2.8987,-2.8987,-2.8987,-2.8987,-2.8987,-3.5681,-3.5752,-3.5477,-3.5416,-3.5527,-3.5859,-3.6016,-3.6016,-3.6016,-3.6016,-3.6016,-3.6016,-3.6016,-3.6016,-3.6016,-3.6016,-3.6016,-3.6016,-3.5996,-3.5996,-3.6016,-3.5976,-3.5908,-3.5566,-3.508,-3.4542,-3.3749,-3.2846,-3.1771,-3.1006,-3.0492,-3.0446,-3.0436,-3.0436,-3.0421,-3.0404,-3.0404,-3.0404,-3.0404,-3.0404,-3.0404,-3.0404,-3.0404,-3.0404,-3.0404,-3.0404,-3.0404,-3.0404,-3.0404,-3.0404,-3.0404,-3.0404,-3.0404,-3.0404,-3.0404,-3.0404,-3.0404,-3.0404,-3.05,-3.0462,-3.0731,-3.1019,-3.1212,-3.143,-3.2001,-3.2381,-3.2364,-3.224,-3.1756,-3.1343,-3.1172,-3.1069,-3.1458,-3.1846,-3.161,-3.1355,-3.1316,-3.1316,-3.1099,-3.0806,-3.0551,-3.0364,-3.0327,-3.0435,-3.0439,-3.0399,-3.0298,-3.0236,-3.0283,-3.0233,-3.0163,-3.0134,-2.9774,-2.9488,-2.9717,-3.0051,-3.0164,-3.0343,-3.054,-3.0467,-2.9824,-2.9531,-2.9267,-2.9127,-2.9023,-2.8998,-2.9021,-2.8998,-2.8987,-2.8987,-2.8987,-2.8987,-2.8987,-2.8987,-2.8987,-3.5349,-3.5296,-3.4759,-3.4536,-3.4706,-3.5469,-3.584,-3.5918,-3.5957,-3.6016,-3.6016,-3.6016,-3.6016,-3.5976,-3.582,-3.5742,-3.5703,-3.5684,-3.5664,-3.5918,-3.5996,-3.5918,-3.5508,-3.5098,-3.4551,-3.3886,-3.3111,-3.2218,-3.1699,-3.1002,-3.0541,-3.0496,-3.0492,-3.05,-3.0447,-3.0433,-3.0428,-3.0428,-3.0408,-3.0404,-3.0404,-3.0404,-3.0404,-3.0404,-3.0404,-3.0404,-3.0404,-3.0404,-3.0404,-3.0404,-3.0404,-3.0404,-3.0404,-3.0404,-3.0404,-3.0404,-3.0404,-3.0404,-3.0404,-3.0404,-3.0404,-3.0481,-3.0423,-3.0615,-3.1155,-3.1604,-3.1674,-3.1706,-3.1313,-3.1453,-3.1414,-3.1242,-3.1433,-3.1548,-3.1376,-3.1063,-3.0852,-3.0891,-3.0871,-3.0609,-3.0447,-3.028,-3.0314,-3.0433,-3.0392,-3.0141,-3.0061,-2.994,-2.9901,-2.9916,-2.9848,-2.983,-2.9607,-2.9433,-2.9644,-2.9898,-2.9802,-2.9901,-3.01,-2.9991,-2.9697,-2.9396,-2.9081,-2.9067,-2.9089,-2.9067,-2.9067,-2.9044,-2.901,-2.8987,-2.8987,-2.8987,-2.8987,-2.901,-2.8987,-3.3606,-3.3692,-3.3639,-3.363,-3.3757,-3.4628,-3.5039,-3.5078,-3.5723,-3.6016,-3.5996,-3.5996,-3.6016,-3.5957,-3.5254,-3.5059,-3.5176,-3.5078,-3.5019,-3.5273,-3.5547,-3.5332,-3.5059,-3.457,-3.3945,-3.3007,-3.2223,-3.1687,-3.117,-3.0779,-3.0583,-3.0578,-3.0575,-3.0547,-3.0529,-3.0498,-3.0472,-3.0487,-3.0441,-3.0422,-3.0417,-3.0402,-3.0404,-3.0404,-3.0404,-3.0404,-3.0404,-3.0404,-3.0404,-3.0404,-3.0404,-3.0404,-3.0404,-3.0404,-3.0404,-3.0404,-3.0404,-3.0404,-3.0404,-3.0404,-3.0404,-3.0404,-3.0404,-3.0404,-3.0558,-3.0846,-3.1019,-3.1044,-3.1179,-3.1468,-3.1641,-3.1468,-3.1346,-3.1288,-3.1154,-3.0788,-3.0423,-3.0538,-3.0635,-3.0521,-3.0356,-3.0317,-3.0355,-3.0343,-3.0292,-3.028,-3.0286,-3.0254,-3.0227,-3.0199,-2.9996,-2.9932,-2.977,-2.9682,-2.9814,-2.9823,-2.9807,-2.991,-3.0156,-2.9934,-2.9598,-2.9443,-2.928,-2.9214,-2.9192,-2.9206,-2.9185,-2.91,-2.9067,-2.9093,-2.9104,-2.9141,-2.91,-2.9089,-2.9033,-3.2933,-3.3024,-3.3144,-3.302,-3.3002,-3.4093,-3.4685,-3.4863,-3.5625,-3.6016,-3.5918,-3.5644,-3.5605,-3.5644,-3.4726,-3.4687,-3.4805,-3.4394,-3.4531,-3.4785,-3.4668,-3.4434,-3.4199,-3.3848,-3.3164,-3.2285,-3.1758,-3.1267,-3.084,-3.0761,-3.0725,-3.0678,-3.065,-3.0619,-3.0595,-3.0558,-3.0533,-3.0545,-3.0494,-3.0467,-3.0458,-3.0441,-3.0396,-3.0404,-3.0404,-3.0385,-3.0404,-3.0404,-3.0404,-3.0404,-3.0404,-3.0404,-3.0404,-3.0404,-3.0404,-3.0404,-3.0404,-3.0404,-3.0404,-3.0404,-3.0404,-3.0404,-3.0404,-3.0404,-3.0404,-3.0654,-3.0654,-3.0692,-3.0731,-3.0968,-3.1333,-3.1314,-3.1365,-3.1371,-3.0962,-3.0538,-3.0404,-3.0462,-3.05,-3.0456,-3.0361,-3.0361,-3.0392,-3.0392,-3.0349,-3.0349,-3.0373,-3.0379,-3.0398,-3.0577,-3.033,-3.0161,-3.0098,-2.9913,-2.9888,-2.9918,-2.9898,-3.0046,-3.0277,-2.9933,-2.9653,-2.9598,-2.9523,-2.9474,-2.9426,-2.9446,-2.9397,-2.9314,-2.9345,-2.9416,-2.9367,-2.9334,-2.9259,-2.9214,-2.9228,-3.2526,-3.2608,-3.2691,-3.2398,-3.2101,-3.3527,-3.4227,-3.4453,-3.5391,-3.5703,-3.5449,-3.4785,-3.5117,-3.5019,-3.418,-3.4668,-3.4609,-3.3672,-3.3789,-3.3887,-3.375,-3.3574,-3.3184,-3.2676,-3.2266,-3.1855,-3.1348,-3.1133,-3.0898,-3.0859,-3.0813,-3.0743,-3.0723,-3.0705,-3.0648,-3.0623,-3.062,-3.0611,-3.0591,-3.0591,-3.0552,-3.0495,-3.0456,-3.0422,-3.0414,-3.0408,-3.0396,-3.0404,-3.0404,-3.0404,-3.0404,-3.0404,-3.0404,-3.0404,-3.0404,-3.0404,-3.0404,-3.0404,-3.0404,-3.0404,-3.0404,-3.0404,-3.0404,-3.0404,-3.0404,-3.0404,-3.0404,-3.0442,-3.0481,-3.0769,-3.1141,-3.1487,-3.1583,-3.1352,-3.0865,-3.0404,-3.0404,-3.0404,-3.0404,-3.0404,-3.0404,-3.0404,-3.0404,-3.0404,-3.0404,-3.0404,-3.0404,-3.0404,-3.0481,-3.0808,-3.0887,-3.0752,-3.0698,-3.0476,-3.0302,-3.0057,-3.007,-3.0356,-3.0517,-3.0075,-2.9756,-2.9748,-2.9739,-2.9731,-2.9695,-2.9651,-2.9642,-2.9616,-2.967,-2.9678,-2.9579,-2.9485,-2.9485,-2.9465,-2.9494,-3.0865,-3.0902,-3.0951,-3.092,-3.102,-3.2049,-3.2498,-3.2799,-3.4258,-3.459,-3.4101,-3.3906,-3.4121,-3.4844,-3.3184,-3.3027,-3.3418,-3.2695,-3.25,-3.2559,-3.2969,-3.2832,-3.2519,-3.2109,-3.1738,-3.1348,-3.1055,-3.0976,-3.0918,-3.0898,-3.0879,-3.0859,-3.0859,-3.0859,-3.0834,-3.0783,-3.0702,-3.0695,-3.067,-3.065,-3.0642,-3.0584,-3.0537,-3.0507,-3.0482,-3.0451,-3.0425,-3.041,-3.0404,-3.0404,-3.0408,-3.0419,-3.0411,-3.0422,-3.0428,-3.0428,-3.0422,-3.0419,-3.04,-3.0396,-3.039,-3.0404,-3.0404,-3.0404,-3.0404,-3.0404,-3.0442,-3.0538,-3.0712,-3.1154,-3.1564,-3.2083,-3.2237,-3.1545,-3.0981,-3.0596,-3.0404,-3.0404,-3.0404,-3.0404,-3.0404,-3.0404,-3.0404,-3.0404,-3.0404,-3.0404,-3.0404,-3.0404,-3.0481,-3.0885,-3.1365,-3.1309,-3.1226,-3.1392,-3.1354,-3.0471,-3.0342,-3.0649,-3.0713,-3.0271,-2.9996,-2.9954,-2.9939,-2.9958,-2.9888,-2.9815,-2.9823,-2.9896,-2.9804,-2.9807,-2.9722,-2.9661,-2.9652,-2.9715,-2.9748]},{"header":{"parameterUnit":"m.s-1","parameterCategory":1,"la1":31.0,"la2":29.5877,"lo1":-88.7671,"lo2":-86.6584,"dy":0.0162,"dx":0.0185,"nx":115,"ny":88,"refTime":"2024-07-08T06:00:00:Z","depth":0,"parameterNumber":3,"parameterNumberName":"V-component_of_WINDS"},"data":[0.0,0.0,0.0,0.0,0.0,0.0,0.0,0.0,0.0,0.0,0.0,0.0,0.0,0.0,0.0,0.0,0.0,0.0,0.0,0.0,0.0,0.0,0.0,0.0,0.0,0.0,0.0,0.0,0.0,0.0,0.0,0.0,0.0,0.0,0.0,0.0,0.0,0.0,0.0,0.0,0.0,0.0,0.0,0.0,0.0,0.0,0.0,0.0,0.0,0.0,0.0,0.0,0.0,0.0,0.0,0.0,0.0,0.0,0.0,0.0,0.0,0.0,0.0,0.0,0.0,0.0,0.0,0.0,0.0,0.0,0.0,0.0,0.0,0.0,0.0,0.0,0.0,0.0,0.0,0.0,0.0,0.0,0.0,0.0,0.0,0.0,0.0,0.0,0.0,0.0,0.0,0.0,0.0,0.0,0.0,0.0,0.0,0.0,0.0,0.0,0.0,0.0,0.0,0.0,0.0,0.0,0.0,0.0,0.0,0.0,0.0,0.0,0.0,0.0,0.0,0.0,0.0,0.0,0.0,0.0,0.0,0.0,0.0,0.0,0.0,0.0,0.0,0.0,0.0,0.0,0.0,0.0,0.0,0.0,0.0,0.0,0.0,0.0,0.0,0.0,0.0,0.0,0.0,0.0,0.0,0.0,0.0,0.0,0.0,0.0,0.0,0.0,0.0,0.0,0.0,0.0,0.0,0.0,0.0,0.0,0.0,0.0,0.0,0.0,0.0,0.0,0.0,0.0,0.0,0.0,0.0,0.0,0.0,0.0,0.0,0.0,0.0,0.0,0.0,0.0,0.0,0.0,0.0,0.0,0.0,0.0,0.0,0.0,0.0,0.0,0.0,0.0,0.0,0.0,0.0,0.0,0.0,0.0,0.0,0.0,0.0,0.0,0.0,0.0,0.0,0.0,0.0,0.0,0.0,0.0,0.0,0.0,0.0,0.0,0.0,0.0,0.0,0.0,0.0,0.0,0.0,0.0,0.0,0.0,0.0,0.0,0.0,0.0,0.0,0.0,0.0,0.0,0.0,0.0,0.0,0.0,0.0,0.0,0.0,0.0,0.0,0.0,0.0,0.0,0.0,0.0,0.0,0.0,0.0,0.0,0.0,0.0,0.0,0.0,0.0,0.0,0.0,0.0,0.0,0.0,0.0,0.0,0.0,0.0,0.0,0.0,0.0,0.0,0.0,0.0,0.0,0.0,0.0,0.0,0.0,0.0,0.0,0.0,0.0,0.0,0.0,0.0,0.0,0.0,0.0,0.0,0.0,0.0,0.0,0.0,0.0,0.0,0.0,0.0,0.0,0.0,0.0,0.0,0.0,0.0,0.0,0.0,0.0,0.0,0.0,0.0,0.0,0.0,0.0,0.0,0.0,0.0,0.0,0.0,0.0,0.0,0.0,0.0,0.0,0.0,0.0,0.0,0.0,0.0,0.0,0.0,0.0,0.0,0.0,0.0,0.0,0.0,0.0,0.0,0.0,0.0,0.0,0.0,0.0,0.0,0.0,0.0,0.0,0.0,0.0,0.0,0.0,0.0,0.0,0.0,0.0,0.0,0.0,0.0,0.0,0.0,0.0,0.0,0.0,0.0,0.0,0.0,0.0,0.0,0.0,0.0,0.0,0.0,0.0,0.0,0.0,0.0,0.0,0.0,0.0,0.0,0.0,0.0,0.0,0.0,0.0,0.0,0.0,0.0,0.0,0.0,0.0,0.0,0.0,0.0,0.0,0.0,0.0,0.0,0.0,0.0,0.0,0.0,0.0,0.0,0.0,0.0,0.0,0.0,0.0,0.0,0.0,0.0,0.0,0.0,0.0,0.0,0.0,0.0,0.0,0.0,0.0,0.0,0.0,0.0,0.0,0.0,0.0,0.0,0.0,0.0,0.0,0.0,0.0,0.0,0.0,0.0,0.0,0.0,0.0,0.0,0.0,0.0,0.0,0.0,0.0,0.0,0.0,0.0,0.0,0.0,0.0,0.0,0.0,0.0,0.0,0.0,0.0,0.0,0.0,0.0,0.0,0.0,0.0,0.0,0.0,0.0,0.0,0.0,0.0,0.0,0.0,0.0,0.0,0.0,0.0,0.0,0.0,0.0,0.0,0.0,0.0,0.0,0.0,0.0,0.0,0.0,0.0,0.0,0.0,0.0,0.0,0.0,0.0,0.0,0.0,0.0,0.0,0.0,0.0,0.0,0.0,0.0,0.0,0.0,0.0,0.0,0.0,0.0,0.0,0.0,0.0,0.0,0.0,0.0,0.0,0.0,0.0,0.0,0.0,0.0,0.0,0.0,0.0,0.0,0.0,0.0,0.0,0.0,0.0,0.0,0.0,0.0,0.0,0.0,0.0,0.0,0.0,0.0,0.0,0.0,0.0,0.0,0.0,0.0,0.0,0.0,0.0,0.0,0.0,0.0,0.0,0.0,0.0,0.0,0.0,0.0,0.0,0.0,0.0,0.0,0.0,0.0,0.0,0.0,0.0,0.0,0.0,0.0,0.0,0.0,0.0,0.0,0.0,0.0,0.0,0.0,0.0,0.0,0.0,0.0,0.0,0.0,0.0,0.0,0.0,0.0,0.0,0.0,0.0,0.0,0.0,0.0,0.0,0.0,0.0,0.0,0.0,0.0,0.0,0.0,0.0,0.0,0.0,0.0,0.0,0.0,0.0,0.0,0.0,0.0,0.0,0.0,0.0,0.0,0.0,0.0,0.0,0.0,0.0,0.0,0.0,0.0,0.0,0.0,0.0,0.0,0.0,0.0,0.0,0.0,0.0,0.0,0.0,0.0,0.0,0.0,0.0,0.0,0.0,0.0,0.0,0.0,0.0,0.0,0.0,0.0,0.0,0.0,0.0,0.0,0.0,0.0,0.0,0.0,0.0,0.0,0.0,0.0,0.0,0.0,0.0,0.0,0.0,0.0,0.0,0.0,0.0,0.0,0.0,0.0,0.0,0.0,0.0,0.0,0.0,0.0,0.0,0.0,0.0,0.0,0.0,0.0,0.0,0.0,0.0,0.0,0.0,0.0,0.0,0.0,0.0,0.0,0.0,0.0,0.0,0.0,0.0,0.0,0.0,0.0,0.0,0.0,0.0,0.0,0.0,0.0,0.0,0.0,0.0,0.0,0.0,0.0,0.0,0.0,0.0,0.0,0.0,0.0,0.0,0.0,0.0,0.0,0.0,0.0,0.0,0.0,0.0,0.0,0.0,0.0,0.0,0.0,0.0,0.0,0.0,0.0,0.0,0.0,0.0,0.0,0.0,0.0,0.0,0.0,0.0,0.0,0.0,0.0,0.0,0.0,0.0,0.0,0.0,0.0,0.0,0.0,0.0,0.0,0.0,0.0,0.0,0.0,0.0,0.0,0.0,0.0,0.0,0.0,0.0,0.0,0.0,0.0,0.0,0.0,0.0,0.0,0.0,0.0,0.0,0.0,0.0,0.0,0.0,0.0,0.0,0.0,0.0,0.0,0.0,0.0,0.0,0.0,0.0,0.0,0.0,0.0,0.0,0.0,0.0,0.0,0.0,0.0,0.0,0.0,0.0,0.0,0.0,0.0,0.0,0.0,0.0,0.0,0.0,0.0,0.0,0.0,0.0,0.0,0.0,0.0,0.0,0.0,0.0,0.0,0.0,0.0,0.0,0.0,0.0,0.0,0.0,0.0,0.0,0.0,0.0,0.0,0.0,0.0,0.0,0.0,0.0,0.0,0.0,0.0,0.0,0.0,0.0,0.0,0.0,0.0,0.0,0.0,0.0,0.0,0.0,0.0,0.0,0.0,0.0,0.0,0.0,0.0,0.0,0.0,0.0,0.0,0.0,0.0,0.0,0.0,0.0,0.0,0.0,0.0,0.0,0.0,0.0,0.0,0.0,0.0,0.0,0.0,0.0,0.0,0.0,0.0,0.0,0.0,0.0,0.0,0.0,0.0,0.0,0.0,0.0,0.0,0.0,0.0,0.0,0.0,0.0,0.0,0.0,0.0,0.0,0.0,0.0,0.0,0.0,0.0,0.0,0.0,0.0,0.0,0.0,0.0,0.0,0.0,0.0,0.0,0.0,0.0,0.0,0.0,0.0,0.0,0.0,0.0,0.0,0.0,0.0,0.0,0.0,0.0,0.0,0.0,0.0,0.0,0.0,0.0,0.0,0.0,0.0,0.0,0.0,0.0,0.0,0.0,0.0,0.0,0.0,0.0,0.0,0.0,0.0,0.0,0.0,0.0,0.0,0.0,0.0,0.0,0.0,0.0,0.0,0.0,0.0,0.0,0.0,0.0,-0.4726,0.0,0.0,0.0,0.0,0.0,0.0,0.0,0.0,0.0,0.0,0.0,0.0,0.0,0.0,0.0,0.0,0.0,0.0,0.0,0.0,0.0,0.0,0.0,0.0,0.0,0.0,0.0,0.0,0.0,0.0,0.0,0.0,0.0,0.0,0.0,0.0,0.0,0.0,0.0,0.0,0.0,0.0,0.0,0.0,0.0,0.0,0.0,0.0,0.0,0.0,0.0,0.0,0.0,0.0,0.0,0.0,0.0,0.0,0.0,0.0,0.0,0.0,0.0,0.0,0.0,0.0,0.0,0.0,0.0,0.0,0.0,0.0,0.0,0.0,0.0,0.0,0.0,0.0,0.0,0.0,0.0,0.0,0.0,0.0,0.0,0.0,0.0,0.0,0.0,0.0,0.0,0.0,0.0,0.0,0.0,0.0,0.0,0.0,0.0,0.0,0.0,0.0,0.0,0.0,0.0,0.0,0.0,0.0,0.0,0.0,-0.59,-0.5506,-0.5297,-0.4939,-0.4437,0.0,0.0,0.0,0.0,0.0,0.0,0.0,0.0,0.0,0.0,0.0,0.0,0.0,0.0,0.0,0.0,0.0,0.0,0.0,0.0,0.0,0.0,0.0,0.0,0.0,0.0,0.0,0.0,0.0,0.0,0.0,0.0,0.0,0.0,0.0,0.0,0.0,0.0,0.0,0.0,0.0,0.0,0.0,0.0,0.0,0.0,0.0,0.0,0.0,0.0,0.0,0.0,0.0,0.0,0.0,0.0,0.0,0.0,0.0,0.0,0.0,0.0,0.0,0.0,0.0,0.0,0.0,0.0,0.0,0.0,0.0,0.0,0.0,0.0,0.0,0.0,0.0,0.0,0.0,0.0,0.0,0.0,0.0,0.0,0.0,0.0,0.0,0.0,0.0,0.0,0.0,0.0,0.0,0.0,0.0,0.0,0.0,0.0,0.0,0.0,0.0,0.0,0.0,0.0,0.0,0.0,0.0,0.0,0.0,0.0,0.0,0.0,-0.6266,-0.5872,-0.4892,0.0,0.0,0.0,0.0,0.0,0.0,0.0,0.0,0.0,0.0,0.0,0.0,0.0,0.0,0.0,0.0,0.0,0.0,0.0,0.0,0.0,0.0,0.0,0.0,0.0,0.0,0.0,0.0,0.0,0.0,0.0,0.0,0.0,0.0,0.0,0.0,0.0,0.0,0.0,0.0,0.0,0.0,0.0,0.0,0.0,0.0,0.0,0.0,0.0,0.0,0.0,0.0,0.0,0.0,0.0,0.0,0.0,0.0,0.0,0.0,0.0,0.0,0.0,0.0,0.0,0.0,0.0,0.0,0.0,0.0,0.0,0.0,0.0,0.0,0.0,0.0,0.0,0.0,0.0,0.0,0.0,0.0,0.0,0.0,0.0,0.0,0.0,0.0,0.0,0.0,0.0,0.0,0.0,0.0,0.0,0.0,0.0,0.0,0.0,0.0,0.0,0.0,0.0,0.0,0.0,0.0,0.0,0.0,0.0,0.0,-0.7831,-0.8282,-0.7661,0.0,-0.7372,0.0,0.0,0.0,0.0,0.0,0.0,0.0,0.0,0.0,0.0,0.0,0.0,0.0,0.0,0.0,0.0,0.0,0.0,0.0,0.0,0.0,0.0,0.0,0.0,0.0,0.0,0.0,0.0,0.0,0.0,0.0,0.0,0.0,0.0,0.0,0.0,0.0,0.0,0.0,0.0,0.0,0.0,0.0,0.0,0.0,0.0,0.0,0.0,0.0,0.0,0.0,0.0,0.0,0.0,0.0,0.0,0.0,0.0,0.0,0.0,0.0,0.0,0.0,0.0,0.0,0.0,0.0,0.0,0.0,0.0,0.0,0.0,0.0,0.0,0.0,0.0,0.0,0.0,0.0,0.0,0.0,0.0,0.0,0.0,0.0,0.0,0.0,0.0,0.0,0.0,0.0,0.0,0.0,0.0,0.0,0.0,0.0,0.0,0.0,0.0,0.0,0.0,0.0,0.0,0.0,0.0,0.0,0.0,0.0,0.0,0.0,-0.7951,-0.739,-0.7258,0.0,0.0,0.0,0.0,0.0,0.0,0.0,0.0,0.0,0.0,0.0,0.0,0.0,0.0,0.0,0.0,0.0,0.0,0.0,0.0,0.0,0.0,0.0,0.0,0.0,0.0,0.0,0.0,0.0,0.0,0.0,0.0,0.0,0.0,0.0,0.0,0.0,0.0,0.0,0.0,0.0,0.0,0.0,0.0,0.0,0.0,0.0,0.0,0.0,0.0,0.0,0.0,0.0,0.0,0.0,0.0,0.0,0.0,0.0,0.0,0.0,0.0,0.0,0.0,0.0,0.0,0.0,0.0,0.0,0.0,0.0,0.0,0.0,0.0,0.0,0.0,0.0,0.0,0.0,0.0,0.0,0.0,0.0,0.0,0.0,0.0,0.0,0.0,0.0,0.0,0.0,0.0,0.0,0.0,0.0,0.0,0.0,0.0,0.0,0.0,0.0,0.0,0.0,0.0,0.0,0.0,0.0,0.0,0.0,0.0,-0.8757,0.0,-0.8237,-0.7818,-0.7626,-0.7598,0.0,0.0,0.0,0.0,0.0,0.0,0.0,0.0,0.0,0.0,0.0,0.0,0.0,0.0,0.0,0.0,0.0,0.0,0.0,0.0,0.0,0.0,0.0,0.0,0.0,0.0,0.0,0.0,0.0,0.0,0.0,0.0,0.0,0.0,0.0,0.0,0.0,0.0,0.0,0.0,0.0,0.0,0.0,0.0,0.0,0.0,0.0,0.0,0.0,0.0,0.0,0.0,0.0,0.0,0.0,0.0,0.0,0.0,0.0,0.0,0.0,0.0,0.0,0.0,0.0,0.0,0.0,0.0,0.0,0.0,0.0,0.0,0.0,0.0,0.0,0.0,0.0,0.0,0.0,0.0,0.0,0.0,0.0,0.0,0.0,0.0,0.0,0.0,0.0,0.0,0.0,0.0,0.0,0.0,0.0,0.0,0.0,0.0,0.0,0.0,0.0,0.0,0.0,0.0,0.0,0.0,0.0,0.0,0.0,-0.991,-0.9754,-0.9942,-0.9718,-0.9057,0.0,0.0,0.0,0.0,0.0,0.0,0.0,0.0,0.0,0.0,0.0,0.0,0.0,0.0,0.0,0.0,0.0,0.0,0.0,0.0,0.0,0.0,0.0,0.0,0.0,0.0,0.0,0.0,0.0,0.0,0.0,0.0,0.0,0.0,0.0,0.0,0.0,0.0,0.0,0.0,0.0,0.0,0.0,0.0,0.0,0.0,0.0,0.0,0.0,0.0,0.0,0.0,0.0,0.0,0.0,0.0,0.0,0.0,0.0,0.0,0.0,0.0,0.0,0.0,0.0,0.0,0.0,0.0,0.0,0.0,0.0,0.0,0.0,0.0,0.0,0.0,0.0,0.0,0.0,0.0,0.0,0.0,0.0,0.0,0.0,0.0,0.0,0.0,0.0,0.0,0.0,0.0,0.0,0.0,0.0,0.0,0.0,0.0,0.0,0.0,0.0,0.0,0.0,0.0,0.0,0.0,0.0,0.0,0.0,-0.9434,-0.9593,-1.0094,-1.0843,-0.9773,-0.9011,0.0,0.0,0.0,0.0,0.0,0.0,0.0,0.0,0.0,0.0,0.0,0.0,0.0,0.0,0.0,0.0,0.0,0.0,0.0,0.0,0.0,0.0,0.0,0.0,0.0,0.0,0.0,0.0,0.0,0.0,0.0,0.0,0.0,0.0,0.0,0.0,0.0,0.0,0.0,0.0,0.0,0.0,0.0,0.0,0.0,0.0,0.0,0.0,0.0,0.0,0.0,0.0,0.0,0.0,0.0,0.0,0.0,0.0,0.0,0.0,0.0,0.0,0.0,0.0,0.0,0.0,0.0,0.0,0.0,0.0,0.0,0.0,0.0,0.0,0.0,0.0,0.0,0.0,0.0,0.0,0.0,0.0,0.0,0.0,0.0,0.0,0.0,0.0,0.0,0.0,0.0,0.0,0.0,0.0,0.0,0.0,0.0,0.0,0.0,0.0,0.0,0.0,0.0,0.0,0.0,0.0,0.0,0.0,0.0,-0.9359,0.0,-1.0501,0.0,-0.9766,-0.8884,0.0,0.0,0.0,0.0,0.0,0.0,0.0,0.0,0.0,0.0,0.0,0.0,0.0,0.0,0.0,0.0,0.0,0.0,0.0,0.0,0.0,0.0,0.0,0.0,0.0,0.0,0.0,0.0,0.0,0.0,0.0,0.0,0.0,0.0,0.0,0.0,0.0,0.0,0.0,0.0,0.0,0.0,0.0,0.0,0.0,0.0,0.0,0.0,0.0,0.0,0.0,0.0,0.0,0.0,0.0,0.0,0.0,0.0,0.0,0.0,0.0,0.0,0.0,0.0,0.0,0.0,0.0,0.0,0.0,0.0,0.0,0.0,0.0,0.0,0.0,0.0,0.0,0.0,0.0,0.0,0.0,0.0,0.0,0.0,0.0,0.0,0.0,0.0,0.0,0.0,0.0,0.0,0.0,0.0,0.0,0.0,0.0,0.0,0.0,0.0,0.0,0.0,0.0,0.0,0.0,0.0,0.0,0.0,-0.9112,-1.0506,-1.1056,-1.0922,-1.0174,-0.9826,-0.8851,0.0,0.0,0.0,0.0,0.0,0.0,0.0,0.0,0.0,0.0,0.0,0.0,0.0,0.0,0.0,0.0,0.0,0.0,0.0,0.0,0.0,0.0,0.0,0.0,0.0,0.0,0.0,0.0,0.0,0.0,0.0,0.0,0.0,0.0,0.0,0.0,0.0,0.0,0.0,0.0,0.0,0.0,0.0,0.0,0.0,0.0,0.0,0.0,0.0,0.0,0.0,0.0,0.0,0.0,0.0,0.0,0.0,0.0,0.0,0.0,0.0,0.0,0.0,0.0,0.0,0.0,0.0,0.0,0.0,0.0,0.0,0.0,0.0,0.0,0.0,0.0,0.0,0.0,0.0,0.0,0.0,0.0,0.0,0.0,0.0,0.0,0.0,0.0,0.0,0.0,0.0,0.0,0.0,0.0,0.0,0.0,0.0,0.0,0.0,0.0,0.0,0.0,0.0,0.0,0.0,0.0,0.0,0.0,0.0,-0.997,-1.0327,-1.0649,-1.0929,-0.9753,-0.8918,0.0,0.0,0.0,0.0,0.0,0.0,0.0,0.0,0.0,0.0,0.0,0.0,0.0,0.0,0.0,0.0,0.0,0.0,0.0,0.0,0.0,0.0,0.0,0.0,0.0,0.0,0.0,0.0,0.0,0.0,0.0,0.0,0.0,0.0,0.0,0.0,0.0,0.0,0.0,0.0,0.0,0.0,0.0,0.0,0.0,0.0,0.0,0.0,0.0,0.0,0.0,0.0,0.0,0.0,0.0,0.0,0.0,0.0,0.0,0.0,0.0,0.0,0.0,0.0,0.0,0.0,0.0,0.0,0.0,0.0,0.0,0.0,0.0,0.0,0.0,0.0,0.0,0.0,0.0,0.0,0.0,0.0,0.0,0.0,0.0,0.0,0.0,0.0,0.0,0.0,0.0,0.0,0.0,0.0,0.0,0.0,0.0,0.0,0.0,0.0,0.0,0.0,0.0,0.0,0.0,0.0,0.0,0.0,0.0,-1.0334,-1.0615,-1.0929,-1.1256,-0.9987,-0.9178,-0.8878,0.0,0.0,0.0,0.0,0.0,0.0,0.0,0.0,0.0,0.0,0.0,0.0,0.0,0.0,0.0,0.0,0.0,0.0,0.0,0.0,0.0,0.0,0.0,0.0,0.0,0.0,0.0,0.0,0.0,0.0,0.0,0.0,0.0,0.0,0.0,0.0,0.0,0.0,0.0,0.0,0.0,0.0,0.0,0.0,0.0,0.0,0.0,0.0,0.0,0.0,0.0,0.0,0.0,0.0,0.0,0.0,0.0,0.0,0.0,0.0,0.0,0.0,0.0,0.0,0.0,0.0,0.0,0.0,0.0,0.0,0.0,0.0,0.0,0.0,0.0,0.0,0.0,0.0,0.0,0.0,0.0,0.0,0.0,0.0,0.0,0.0,0.0,0.0,0.0,0.0,0.0,0.0,0.0,0.0,0.0,0.0,0.0,0.0,0.0,0.0,0.0,0.0,0.0,0.0,0.0,0.0,0.0,0.0,-1.1335,-1.1697,-1.1638,-1.1129,-1.0448,-0.9593,0.0,0.0,0.0,0.0,0.0,0.0,0.0,0.0,0.0,0.0,0.0,0.0,0.0,0.0,0.0,0.0,0.0,0.0,0.0,0.0,0.0,0.0,0.0,0.0,0.0,0.0,0.0,0.0,0.0,0.0,0.0,0.0,0.0,0.0,0.0,0.0,0.0,0.0,0.0,0.0,0.0,0.0,0.0,0.0,0.0,0.0,0.0,0.0,0.0,0.0,0.0,0.0,0.0,0.0,0.0,0.0,0.0,0.0,0.0,0.0,0.0,0.0,0.0,0.0,0.0,0.0,0.0,0.0,0.0,0.0,0.0,0.0,0.0,0.0,0.0,0.0,0.0,0.0,0.0,0.0,0.0,0.0,0.0,0.0,0.0,0.0,0.0,0.0,0.0,0.0,0.0,0.0,0.0,0.0,0.0,0.0,0.0,0.0,0.0,0.0,0.0,0.0,0.0,0.0,0.0,0.0,0.0,0.0,0.0,-1.0827,-1.1531,-1.1904,-1.1924,-1.0762,-0.9873,0.0,0.0,0.0,0.0,0.0,0.0,0.0,0.0,0.0,0.0,0.0,0.0,0.0,0.0,0.0,0.0,0.0,0.0,0.0,0.0,0.0,0.0,0.0,0.0,0.0,0.0,0.0,0.0,0.0,0.0,0.0,0.0,0.0,0.0,0.0,0.0,0.0,0.0,0.0,0.0,0.0,0.0,0.0,0.0,0.0,0.0,0.0,0.0,0.0,0.0,0.0,0.0,0.0,0.0,0.0,0.0,0.0,0.0,0.0,0.0,0.0,0.0,0.0,0.0,0.0,0.0,0.0,0.0,0.0,0.0,0.0,0.0,0.0,0.0,0.0,0.0,0.0,0.0,0.0,0.0,0.0,0.0,0.0,0.0,0.0,0.0,0.0,0.0,0.0,0.0,0.0,0.0,0.0,0.0,0.0,0.0,0.0,0.0,0.0,0.0,0.0,0.0,0.0,0.0,0.0,0.0,0.0,0.0,-1.0561,-1.1142,-1.1759,-1.2131,-1.2291,-1.1209,-1.0354,0.0,0.0,0.0,0.0,0.0,0.0,0.0,0.0,0.0,0.0,0.0,0.0,0.0,0.0,0.0,0.0,0.0,0.0,0.0,0.0,0.0,0.0,0.0,0.0,0.0,0.0,0.0,0.0,0.0,0.0,0.0,0.0,0.0,0.0,0.0,0.0,0.0,0.0,0.0,0.0,0.0,0.0,0.0,0.0,0.0,0.0,0.0,0.0,0.0,0.0,0.0,0.0,0.0,0.0,0.0,0.0,0.0,0.0,0.0,0.0,0.0,0.0,0.0,0.0,0.0,0.0,0.0,0.0,0.0,0.0,0.0,0.0,0.0,0.0,0.0,0.0,0.0,0.0,0.0,0.0,0.0,0.0,0.0,0.0,0.0,0.0,0.0,0.0,0.0,0.0,0.0,0.0,0.0,0.0,0.0,0.0,0.0,0.0,0.0,0.0,0.0,0.0,0.0,0.0,0.0,0.0,0.0,0.0,-1.1002,-1.1832,-1.2138,-1.2305,-1.2285,-1.1703,-1.0862,0.0,0.0,0.0,0.0,0.0,0.0,0.0,0.0,0.0,0.0,0.0,0.0,0.0,0.0,0.0,0.0,0.0,0.0,0.0,0.0,0.0,0.0,0.0,0.0,0.0,0.0,0.0,0.0,0.0,0.0,0.0,0.0,0.0,0.0,0.0,0.0,0.0,0.0,0.0,0.0,0.0,0.0,0.0,0.0,0.0,0.0,0.0,0.0,0.0,0.0,0.0,0.0,0.0,0.0,0.0,0.0,0.0,0.0,0.0,0.0,0.0,0.0,0.0,0.0,0.0,0.0,0.0,0.0,0.0,0.0,0.0,0.0,0.0,0.0,0.0,0.0,0.0,0.0,0.0,0.0,0.0,0.0,0.0,0.0,0.0,0.0,0.0,0.0,0.0,0.0,0.0,0.0,0.0,0.0,0.0,0.0,0.0,0.0,0.0,0.0,0.0,0.0,0.0,0.0,0.0,0.0,0.0,0.0,-1.0908,-1.151,-1.2031,-1.2305,-1.2298,-1.151,-1.0748,0.0,0.0,0.0,0.0,0.0,0.0,0.0,0.0,0.0,0.0,0.0,0.0,0.0,0.0,0.0,0.0,0.0,0.0,0.0,0.0,0.0,0.0,0.0,0.0,0.0,0.0,0.0,0.0,0.0,0.0,0.0,0.0,0.0,0.0,0.0,0.0,0.0,0.0,0.0,0.0,0.0,0.0,0.0,0.0,0.0,0.0,0.0,0.0,-1.0517,0.0,0.0,0.0,0.0,0.0,0.0,0.0,0.0,0.0,0.0,0.0,0.0,0.0,0.0,0.0,0.0,0.0,0.0,0.0,0.0,0.0,0.0,0.0,0.0,0.0,0.0,0.0,0.0,0.0,0.0,0.0,0.0,0.0,0.0,0.0,0.0,0.0,0.0,0.0,0.0,0.0,0.0,0.0,0.0,0.0,0.0,0.0,0.0,0.0,0.0,0.0,0.0,0.0,0.0,0.0,0.0,0.0,0.0,0.0,-1.1042,-1.1623,-1.2071,-1.2305,-1.2278,-1.1549,-1.0922,0.0,0.0,0.0,0.0,0.0,0.0,0.0,0.0,0.0,0.0,0.0,0.0,0.0,0.0,0.0,0.0,0.0,0.0,0.0,0.0,0.0,0.0,0.0,0.0,0.0,0.0,0.0,0.0,0.0,0.0,0.0,0.0,0.0,0.0,0.0,0.0,0.0,0.0,0.0,0.0,0.0,0.0,0.0,0.0,0.0,0.0,0.0,0.0,0.0,0.0,0.0,0.0,0.0,0.0,0.0,0.0,0.0,0.0,0.0,0.0,0.0,0.0,0.0,0.0,0.0,0.0,0.0,0.0,0.0,0.0,0.0,0.0,0.0,0.0,0.0,0.0,0.0,0.0,0.0,0.0,0.0,0.0,0.0,0.0,0.0,0.0,0.0,0.0,0.0,0.0,0.0,0.0,0.0,0.0,0.0,0.0,0.0,0.0,0.0,0.0,0.0,0.0,0.0,0.0,0.0,0.0,0.0,-1.0606,-1.1256,-1.1946,-1.2178,-1.2305,-1.2298,-1.173,-1.1156,-1.0606,0.0,0.0,0.0,0.0,0.0,0.0,0.0,0.0,0.0,0.0,0.0,0.0,0.0,0.0,0.0,0.0,0.0,0.0,0.0,0.0,0.0,0.0,0.0,0.0,0.0,0.0,0.0,0.0,0.0,0.0,0.0,0.0,0.0,0.0,0.0,0.0,0.0,0.0,-0.8762,-0.8908,0.0,0.0,0.0,0.0,0.0,0.0,0.0,0.0,-1.2852,0.0,0.0,0.0,0.0,0.0,0.0,0.0,0.0,0.0,0.0,0.0,0.0,0.0,0.0,0.0,0.0,0.0,0.0,0.0,0.0,0.0,0.0,0.0,0.0,0.0,0.0,0.0,0.0,0.0,0.0,0.0,0.0,0.0,0.0,0.0,0.0,0.0,0.0,0.0,0.0,0.0,0.0,0.0,0.0,0.0,0.0,0.0,0.0,0.0,0.0,0.0,0.0,0.0,0.0,0.0,0.0,-1.078,-1.0713,-1.1149,-1.2204,-1.2278,-1.2305,-1.2291,-1.1702,-1.1156,-1.0586,0.0,0.0,0.0,0.0,0.0,0.0,0.0,0.0,0.0,0.0,0.0,0.0,0.0,0.0,0.0,0.0,0.0,0.0,0.0,0.0,0.0,0.0,0.0,0.0,0.0,0.0,0.0,0.0,0.0,0.0,0.0,0.0,0.0,0.0,0.0,0.0,0.0,0.0,0.0,-1.0159,-0.9911,0.0,0.0,0.0,0.0,0.0,0.0,0.0,0.0,-1.3348,0.0,0.0,0.0,0.0,0.0,0.0,0.0,0.0,0.0,0.0,0.0,0.0,0.0,0.0,0.0,0.0,0.0,0.0,0.0,0.0,0.0,0.0,0.0,0.0,0.0,0.0,0.0,0.0,0.0,0.0,0.0,0.0,0.0,0.0,0.0,0.0,0.0,0.0,0.0,0.0,0.0,0.0,0.0,0.0,0.0,0.0,0.0,0.0,0.0,0.0,0.0,0.0,0.0,0.0,0.0,-1.0468,-1.0848,-1.1356,-1.2087,-1.2225,-1.2231,-1.21,-1.1363,-1.0775,0.0,0.0,0.0,0.0,0.0,0.0,0.0,0.0,0.0,0.0,0.0,0.0,0.0,0.0,0.0,0.0,0.0,0.0,0.0,0.0,0.0,0.0,0.0,0.0,0.0,0.0,0.0,0.0,0.0,0.0,0.0,0.0,0.0,0.0,0.0,0.0,0.0,0.0,0.0,0.0,-1.1166,-1.1171,-1.1734,0.0,0.0,0.0,0.0,0.0,0.0,-1.3773,-1.3574,0.0,0.0,0.0,0.0,0.0,0.0,0.0,0.0,0.0,0.0,0.0,0.0,0.0,0.0,0.0,0.0,0.0,0.0,0.0,0.0,0.0,0.0,0.0,0.0,0.0,0.0,0.0,0.0,0.0,0.0,0.0,0.0,0.0,0.0,0.0,0.0,0.0,0.0,0.0,0.0,0.0,0.0,0.0,0.0,0.0,0.0,0.0,0.0,0.0,0.0,0.0,0.0,0.0,0.0,0.0,-1.002,-1.0775,-1.1363,-1.1764,-1.2004,-1.2017,-1.1812,-1.1022,-1.0425,0.0,0.0,0.0,0.0,0.0,0.0,0.0,0.0,0.0,0.0,0.0,0.0,0.0,0.0,0.0,0.0,0.0,0.0,0.0,0.0,0.0,0.0,0.0,0.0,0.0,0.0,0.0,0.0,0.0,0.0,0.0,0.0,0.0,0.0,0.0,0.0,0.0,0.0,0.0,0.0,0.0,-1.2456,-1.2621,-1.3055,0.0,0.0,0.0,0.0,-1.4922,-1.4463,0.0,0.0,0.0,0.0,0.0,0.0,0.0,0.0,0.0,0.0,0.0,0.0,0.0,0.0,0.0,0.0,0.0,0.0,0.0,0.0,0.0,0.0,0.0,0.0,0.0,0.0,0.0,0.0,0.0,0.0,0.0,0.0,0.0,0.0,0.0,0.0,0.0,0.0,0.0,0.0,0.0,0.0,0.0,0.0,0.0,0.0,0.0,0.0,0.0,0.0,0.0,0.0,0.0,0.0,0.0,0.0,-0.9729,-1.0087,-1.0629,-1.1395,-1.1475,-1.1475,-1.147,-1.0882,-1.0325,0.0,0.0,0.0,0.0,0.0,0.0,0.0,0.0,0.0,0.0,0.0,0.0,0.0,0.0,0.0,0.0,0.0,0.0,0.0,0.0,0.0,0.0,0.0,0.0,0.0,0.0,0.0,0.0,0.0,0.0,0.0,0.0,0.0,0.0,0.0,0.0,0.0,0.0,0.0,0.0,0.0,-1.3705,-1.4411,-1.4228,-1.4304,0.0,0.0,-1.5352,-1.59,-1.586,0.0,0.0,0.0,0.0,0.0,0.0,0.0,0.0,0.0,0.0,0.0,0.0,0.0,0.0,0.0,0.0,0.0,0.0,0.0,0.0,0.0,0.0,0.0,0.0,0.0,0.0,0.0,0.0,0.0,0.0,0.0,0.0,0.0,0.0,0.0,0.0,0.0,0.0,0.0,0.0,0.0,0.0,0.0,0.0,0.0,0.0,0.0,0.0,0.0,0.0,0.0,0.0,0.0,0.0,0.0,-0.8405,-0.9384,-1.0047,-1.0628,-1.1162,-1.1343,-1.1315,-1.1182,-1.0454,-0.9866,0.0,0.0,0.0,0.0,0.0,0.0,0.0,0.0,0.0,0.0,0.0,0.0,0.0,0.0,0.0,0.0,0.0,0.0,0.0,0.0,0.0,0.0,0.0,0.0,0.0,0.0,0.0,0.0,0.0,0.0,0.0,0.0,0.0,0.0,0.0,0.0,0.0,0.0,0.0,0.0,0.0,0.0,-1.5459,-1.5568,0.0,0.0,0.0,-1.5968,-1.6377,0.0,0.0,0.0,0.0,0.0,0.0,0.0,0.0,0.0,0.0,0.0,0.0,0.0,0.0,0.0,0.0,0.0,0.0,0.0,0.0,0.0,0.0,0.0,0.0,0.0,0.0,0.0,0.0,0.0,0.0,0.0,0.0,0.0,0.0,0.0,0.0,0.0,0.0,0.0,0.0,0.0,0.0,0.0,0.0,0.0,0.0,0.0,0.0,0.0,0.0,0.0,0.0,0.0,0.0,0.0,0.0,0.0,-0.9098,-0.9933,-1.0546,-1.0875,-1.1089,-1.1069,-1.0768,-1.006,0.0,0.0,0.0,0.0,0.0,0.0,0.0,0.0,0.0,0.0,0.0,0.0,0.0,0.0,0.0,0.0,0.0,0.0,0.0,0.0,0.0,0.0,0.0,0.0,0.0,0.0,0.0,-0.8153,0.0,0.0,0.0,0.0,0.0,0.0,0.0,0.0,0.0,0.0,0.0,0.0,0.0,0.0,-1.5732,-1.6162,-1.6611,-1.6902,0.0,0.0,-1.6535,-1.6804,-1.6307,-1.5654,0.0,0.0,0.0,0.0,0.0,0.0,0.0,0.0,0.0,0.0,0.0,0.0,0.0,0.0,0.0,0.0,0.0,0.0,0.0,0.0,0.0,0.0,0.0,0.0,0.0,0.0,0.0,0.0,0.0,0.0,0.0,0.0,0.0,0.0,0.0,0.0,0.0,0.0,0.0,0.0,0.0,0.0,0.0,0.0,0.0,0.0,0.0,0.0,0.0,0.0,0.0,0.0,0.0,0.0,0.0,-0.8818,-0.9439,-1.0057,-1.06,-1.064,-1.0512,-1.018,-0.986,-0.932,0.0,0.0,0.0,0.0,0.0,0.0,0.0,0.0,0.0,0.0,0.0,0.0,0.0,0.0,0.0,0.0,0.0,0.0,0.0,0.0,0.0,0.0,0.0,0.0,0.0,0.0,0.0,0.0,0.0,0.0,0.0,0.0,0.0,0.0,0.0,0.0,0.0,0.0,0.0,0.0,0.0,-1.6182,-1.6599,-1.707,-1.748,0.0,0.0,-1.7305,-1.7334,-1.7285,-1.6699,-1.5087,0.0,0.0,0.0,0.0,0.0,0.0,0.0,0.0,0.0,0.0,0.0,0.0,0.0,0.0,0.0,0.0,0.0,0.0,0.0,0.0,0.0,0.0,0.0,0.0,0.0,0.0,0.0,0.0,0.0,0.0,0.0,0.0,0.0,0.0,0.0,0.0,0.0,0.0,0.0,0.0,0.0,0.0,0.0,0.0,0.0,0.0,0.0,0.0,0.0,0.0,0.0,0.0,0.0,-0.7722,-0.8791,-0.9385,-0.9997,-1.0559,-1.0586,-1.0539,-1.0425,-0.9933,-0.9439,0.0,0.0,0.0,0.0,0.0,0.0,0.0,0.0,0.0,0.0,0.0,0.0,0.0,0.0,0.0,0.0,0.0,0.0,0.0,0.0,0.0,0.0,0.0,0.0,0.0,0.0,0.0,0.0,-0.9495,-0.9786,-1.0254,0.0,0.0,0.0,0.0,0.0,0.0,0.0,0.0,0.0,0.0,-1.6359,-1.7031,-1.75,0.0,0.0,-1.7871,-1.7764,-1.7764,-1.7291,-1.666,-1.5752,-1.5155,0.0,0.0,0.0,0.0,0.0,0.0,0.0,0.0,0.0,0.0,0.0,0.0,0.0,0.0,0.0,0.0,0.0,0.0,0.0,0.0,0.0,0.0,0.0,0.0,0.0,0.0,0.0,0.0,0.0,0.0,0.0,0.0,0.0,0.0,0.0,0.0,0.0,0.0,0.0,0.0,0.0,0.0,0.0,0.0,0.0,0.0,0.0,0.0,0.0,0.0,0.0,0.0,-0.7742,-0.8898,-0.9426,-0.9997,-1.0579,-1.0586,-1.0553,-1.0421,-0.994,-0.9499,0.0,0.0,0.0,0.0,0.0,0.0,0.0,0.0,0.0,0.0,0.0,0.0,0.0,0.0,0.0,0.0,0.0,0.0,0.0,0.0,0.0,0.0,0.0,0.0,0.0,0.0,0.0,0.0,-0.9923,-1.0059,-1.0283,0.0,0.0,0.0,0.0,0.0,0.0,0.0,0.0,0.0,0.0,-1.6613,-1.7441,-1.7822,-1.8008,-1.8008,-1.8008,-1.7935,-1.7842,-1.7389,-1.6875,-1.6212,0.0,0.0,0.0,0.0,0.0,0.0,0.0,0.0,0.0,0.0,0.0,0.0,0.0,0.0,0.0,0.0,0.0,0.0,0.0,0.0,0.0,0.0,0.0,0.0,0.0,0.0,0.0,0.0,0.0,0.0,-0.5728,0.0,0.0,0.0,0.0,0.0,0.0,0.0,0.0,0.0,0.0,0.0,0.0,0.0,0.0,0.0,0.0,0.0,0.0,0.0,0.0,0.0,0.0,0.0,-0.9178,-0.9526,-0.9997,-1.0566,-1.0586,-1.0459,-1.0147,-0.984,-0.9406,-0.8798,0.0,0.0,0.0,0.0,0.0,0.0,0.0,0.0,0.0,0.0,0.0,0.0,0.0,0.0,0.0,0.0,0.0,0.0,0.0,0.0,0.0,0.0,0.0,0.0,0.0,0.0,-1.0273,-1.0625,-1.0703,0.0,0.0,0.0,0.0,0.0,0.0,0.0,0.0,0.0,0.0,-1.6436,-1.6999,-1.7871,-1.8018,-1.8037,-1.8037,-1.8027,-1.7891,-1.751,-1.7734,-1.7549,0.0,0.0,0.0,0.0,0.0,0.0,0.0,0.0,0.0,0.0,0.0,0.0,0.0,0.0,0.0,0.0,0.0,0.0,0.0,0.0,0.0,0.0,0.0,0.0,0.0,0.0,0.0,-0.4743,-0.4473,0.0,0.0,0.0,0.0,0.0,0.0,0.0,0.0,0.0,0.0,0.0,-0.9092,-0.9098,0.0,0.0,0.0,0.0,0.0,0.0,0.0,0.0,0.0,0.0,0.0,0.0,-0.8049,-0.9164,-0.9539,-0.9997,-1.0566,-1.0586,-1.0539,-1.0408,-0.9933,-0.9225,-0.8232,0.0,0.0,0.0,0.0,0.0,0.0,0.0,0.0,0.0,0.0,0.0,0.0,0.0,0.0,0.0,0.0,0.0,0.0,0.0,0.0,0.0,0.0,0.0,0.0,0.0,-1.0322,0.0,0.0,0.0,0.0,0.0,0.0,0.0,0.0,0.0,0.0,0.0,-1.5361,-1.6367,-1.6885,-1.7471,-1.8311,-1.8393,-1.849,0.0,0.0,0.0,0.0,0.0,0.0,0.0,0.0,0.0,0.0,0.0,0.0,0.0,0.0,-1.8351,-1.812,-1.7744,-1.7459,-1.7459,0.0,0.0,0.0,0.0,0.0,0.0,0.0,0.0,0.0,0.0,0.0,0.0,0.0,0.0,-0.5151,0.0,-0.5284,0.0,0.0,0.0,0.0,0.0,0.0,0.0,0.0,-0.9389,-0.99,-1.0017,-1.0017,-0.9833,0.0,-0.9158,-0.8477,0.0,0.0,0.0,0.0,0.0,0.0,0.0,0.0,-0.8417,-0.9331,-0.9686,-1.0104,-1.0559,-1.0586,-1.0586,-1.0579,-1.0017,-0.9225,-0.8263,-0.8112,-0.7832,0.0,0.0,0.0,0.0,0.0,0.0,0.0,0.0,0.0,0.0,0.0,0.0,0.0,0.0,0.0,0.0,0.0,0.0,0.0,0.0,0.0,0.0,0.0,-1.0322,0.0,0.0,0.0,0.0,0.0,0.0,0.0,0.0,0.0,-1.4767,-1.5557,-1.6416,-1.7252,-1.7637,-1.8076,-1.8769,0.0,0.0,0.0,0.0,0.0,0.0,0.0,-1.8721,-1.8802,-1.8525,-1.8262,-1.8232,-1.8582,-1.9087,-1.9648,0.0,0.0,-1.9477,-1.8867,-1.8588,-1.9013,-1.914,-1.9234,-1.9386,-1.9949,-2.0282,0.0,0.0,0.0,0.0,0.0,0.0,0.0,0.0,-0.5498,-0.5697,0.0,-0.5694,0.0,0.0,0.0,0.0,0.0,0.0,0.0,0.0,-1.0225,-1.0888,-1.0613,-1.0613,-1.0459,-1.011,-1.007,-0.9764,-0.9178,-0.8103,0.0,0.0,0.0,0.0,0.0,0.0,-0.9105,-0.9686,-0.9967,-1.0261,-1.0573,-1.0586,-1.0579,-1.0539,-1.001,-0.9399,-0.8831,-0.8549,-0.825,-0.7919,-0.7749,0.0,0.0,0.0,0.0,0.0,0.0,0.0,0.0,0.0,0.0,0.0,0.0,0.0,0.0,0.0,0.0,0.0,0.0,0.0,0.0,-1.0322,0.0,0.0,0.0,0.0,0.0,0.0,0.0,0.0,0.0,0.0,-1.6271,-1.6936,-1.7715,-1.85,0.0,0.0,0.0,0.0,-1.8802,-1.9287,-1.9326,-1.9336,-1.9336,-1.9658,-1.9766,-1.9394,0.0,0.0,-1.8802,-1.9717,-2.0551,-2.0631,-2.1474,-2.2291,-2.1917,-2.0559,-1.9904,-2.0938,-2.0497,-2.0029,-2.0437,-2.1096,-2.1531,-0.582,0.0,0.0,0.0,0.0,-0.5325,-0.5369,-0.5511,-0.5617,-0.5503,-0.5243,-0.5275,0.0,0.0,0.0,0.0,0.0,0.0,-0.9377,-1.0264,-1.0956,-1.1149,-1.0908,-1.1082,-1.0922,-1.0466,-1.0214,-1.0003,-0.9817,-0.9319,-0.8717,-0.8027,0.0,0.0,0.0,0.0,-0.9192,-0.9947,-1.0074,-1.0261,-1.0586,-1.0586,-1.0385,-0.9947,-0.9802,-0.944,-0.8805,-0.8724,-0.8544,-0.8281,-0.8245,0.0,0.0,0.0,0.0,0.0,0.0,0.0,0.0,0.0,0.0,0.0,0.0,0.0,0.0,0.0,0.0,0.0,0.0,0.0,-1.0645,-1.0723,-1.1103,0.0,0.0,0.0,0.0,0.0,0.0,0.0,0.0,0.0,-1.8262,-1.8311,-1.8451,0.0,0.0,-1.9258,-1.9678,-1.9629,-1.9697,-2.0137,0.0,0.0,0.0,-2.0039,-1.998,-2.0204,-2.0341,-2.0331,-2.0049,-2.0078,-2.0329,-2.1027,-2.0362,-2.0258,-2.2072,-2.2242,-2.2115,-2.2436,-2.2315,-2.2154,-2.2303,-2.2513,-2.2619,-0.6444,-0.6091,-0.5766,-0.5644,-0.5671,-0.564,-0.5694,-0.58,-0.5776,-0.5661,-0.545,-0.539,-0.5564,-0.5957,-0.6113,0.0,0.0,0.0,-0.9711,-1.0866,-1.1378,-1.151,-1.1349,-1.1396,-1.1182,-1.0767,-1.0466,-1.0294,-1.0287,-1.0114,-0.9735,-0.9085,0.0,0.0,-0.9152,-0.9265,-0.9557,-1.0094,-1.0234,-1.0381,-1.0586,-1.0586,-1.0311,-0.9742,-0.9715,-0.9434,-0.8831,-0.8778,-0.8731,-0.8576,-0.8472,-0.8266,0.0,0.0,0.0,0.0,0.0,0.0,0.0,0.0,0.0,0.0,0.0,-0.8948,0.0,0.0,0.0,0.0,-1.0137,-1.0927,-1.1631,-1.1836,0.0,0.0,0.0,0.0,0.0,0.0,0.0,-1.7067,-1.791,-1.8672,-1.9424,-1.9453,-1.9502,-1.9766,-1.9648,-1.9687,-2.0117,0.0,-2.0068,-2.0537,-2.0615,-2.0615,-2.0605,-2.038,-2.0302,-2.0556,-2.0615,-2.0615,-2.0595,-2.038,-2.0438,-2.0968,-2.0268,-1.9948,-2.1783,-2.2127,-2.2372,-2.2944,-2.3095,-2.3095,-2.3095,-2.3095,-2.3095,-0.6896,-0.6839,-0.6293,-0.6013,-0.5888,-0.5986,-0.5996,-0.5867,-0.5969,-0.6013,-0.5983,-0.5845,-0.6201,-0.6797,-0.7185,0.0,-0.8317,-0.9085,-0.9932,-1.0773,-1.1576,-1.1919,-1.1886,-1.157,-1.1269,-1.0982,-1.0727,-1.0586,-1.0586,-1.0586,-1.0452,-1.0154,-0.9886,-0.974,-0.9733,-0.998,-1.0127,-1.013,-1.0452,-1.0586,-1.0586,-1.0586,-1.0311,-0.9735,-0.9715,-0.9412,-0.8844,-0.8778,-0.8778,-0.8798,-0.8583,-0.8338,-0.8103,0.0,0.0,0.0,0.0,0.0,0.0,0.0,0.0,0.0,0.0,0.0,0.0,0.0,0.0,0.0,-1.1775,0.0,-1.2939,-1.3359,0.0,0.0,0.0,-1.5156,-1.5664,-1.6768,-1.7656,-1.8105,0.0,0.0,-1.9933,0.0,-2.0605,-2.0615,-2.0215,-2.0107,-2.0546,-2.0225,-2.0117,-2.0546,-2.0615,-2.0615,-2.0615,-2.0586,-2.0576,-2.0605,-2.0615,-2.0615,-2.0615,-2.0595,-2.0755,-2.1217,-2.0829,-2.0677,-2.1151,-2.0971,-2.0994,-2.2537,-2.2854,-2.2871,-2.3035,-2.3005,-2.2975,-0.6984,-0.6915,-0.6731,-0.6624,-0.6488,-0.6525,-0.6454,-0.6318,-0.6352,-0.624,-0.599,-0.5993,-0.5985,-0.6079,-0.6146,-0.7186,-0.8908,-0.9082,-1.0179,-1.1855,-1.2125,-1.2084,-1.1893,-1.1563,-1.1276,-1.0989,-1.0727,-1.0586,-1.0586,-1.0586,-1.0553,-1.0486,-1.0419,-1.0271,-1.0027,-1.005,-1.0227,-1.0486,-1.0559,-1.0586,-1.0586,-1.0586,-1.0311,-0.9735,-0.9715,-0.9412,-0.8838,-0.8778,-0.8778,-0.8778,-0.8738,-0.8588,-0.8341,-0.7948,0.0,0.0,0.0,0.0,0.0,0.0,0.0,0.0,0.0,-1.0655,-0.9552,0.0,-1.134,0.0,-1.2486,-1.3354,-1.3773,-1.4219,0.0,0.0,-1.6406,-1.6826,-1.8203,-1.8315,-1.8598,-1.9375,-1.9727,-2.0049,-2.04,-2.0537,-2.0615,-2.0605,-2.0517,-2.0488,-2.0586,-2.0517,-2.0488,-2.0586,-2.0615,-2.0615,-2.0615,-2.0615,-2.0615,-2.0615,-2.0615,-2.0615,-2.0615,-2.0615,-2.0865,-2.1511,-2.0561,-2.0303,-2.1502,-2.0653,-2.0064,-2.0942,-2.1195,-2.1604,-2.2781,-2.2641,-2.2384,-0.7051,-0.698,-0.698,-0.693,-0.6842,-0.6759,-0.6651,-0.6613,-0.6573,-0.6441,-0.6224,-0.6159,-0.6084,-0.6044,-0.6006,-0.7154,-0.9146,-0.9183,-1.0327,-1.2268,-1.2305,-1.2218,-1.2087,-1.1757,-1.147,-1.1182,-1.0928,-1.072,-1.06,-1.0586,-1.0586,-1.0586,-1.0586,-1.0512,-1.0321,-1.0345,-1.0425,-1.0586,-1.0586,-1.0586,-1.0586,-1.0586,-1.0311,-0.9742,-0.9715,-0.9406,-0.8805,-0.8778,-0.8778,-0.8778,-0.8778,-0.8677,-0.8415,-0.8173,-0.8003,0.0,0.0,0.0,0.0,0.0,0.0,0.0,0.0,0.0,0.0,0.0,-1.2328,0.0,-1.3896,0.0,-1.5518,-1.5967,-1.6768,-1.8096,-1.8018,-1.832,-1.9453,-1.9346,-1.9426,-2.0117,-2.0195,-2.0293,-2.0576,-2.0615,-2.0615,-2.0615,-2.0615,-2.0615,-2.0615,-2.0615,-2.0615,-2.0615,-2.0615,-2.0615,-2.0615,-2.0615,-2.0615,-2.0615,-2.0615,-2.0615,-2.0615,-2.0615,-2.0779,-2.1181,-2.0367,-1.9776,-2.0578,-1.9876,-1.9287,-1.9972,-2.0151,-2.0666,-2.2218,-2.2506,-2.2598,-0.7095,-0.7095,-0.7095,-0.7095,-0.7075,-0.6865,-0.6746,-0.6729,-0.6729,-0.6634,-0.6504,-0.6381,-0.6317,-0.63,-0.63,-0.7326,-0.9069,-0.9263,-1.0308,-1.2077,-1.2231,-1.2305,-1.2291,-1.2047,-1.173,-1.1476,-1.1149,-1.0862,-1.0653,-1.0613,-1.0586,-1.0586,-1.0586,-1.0586,-1.0586,-1.0586,-1.0586,-1.0586,-1.0586,-1.0586,-1.0586,-1.0586,-1.0311,-0.9726,-0.9715,-0.944,-0.8838,-0.8778,-0.8778,-0.8778,-0.8778,-0.8691,-0.8462,-0.815,-0.8014,0.0,-0.7889,0.0,0.0,0.0,0.0,0.0,0.0,0.0,0.0,-1.3193,-1.3594,-1.4289,-1.5508,-1.6604,-1.7416,-1.7842,-1.8403,-1.9258,-1.9365,-1.9531,-1.9941,-2.0,-2.0146,-2.0566,-2.0615,-2.0605,-2.0605,-2.0615,-2.0615,-2.0615,-2.0615,-2.0615,-2.0615,-2.0615,-2.0615,-2.0615,-2.0615,-2.0615,-2.0615,-2.0615,-2.0615,-2.0615,-2.0615,-2.0615,-2.0615,-2.0615,-2.0605,-2.0566,-2.0233,-1.9803,-1.9365,-1.901,-1.8988,-1.9685,-1.976,-2.0205,-2.1639,-2.2463,-2.2944,-0.7095,-0.7095,-0.7095,-0.7095,-0.7092,-0.7038,-0.6947,-0.6842,-0.6888,-0.6729,-0.6515,-0.6484,-0.6409,-0.6303,-0.63,-0.6945,-0.8127,-0.8955,-0.9933,-1.1124,-1.1922,-1.2305,-1.2285,-1.2047,-1.1873,-1.1785,-1.1249,-1.0962,-1.0909,-1.0707,-1.0586,-1.0586,-1.0586,-1.0586,-1.0586,0.0,0.0,0.0,-1.0586,-1.0586,-1.0586,-1.0586,-1.0311,-0.9742,-0.9715,0.0,-0.8844,-0.8778,-0.8778,-0.8778,-0.8778,0.0,0.0,0.0,0.0,0.0,0.0,0.0,0.0,0.0,0.0,0.0,-1.3897,-1.4102,-1.3919,-1.4882,-1.5557,-1.5733,-1.6604,-1.7344,-1.7842,-1.8237,-1.8822,-1.9678,-1.9795,-1.9971,-2.0381,-2.0439,-2.0517,-2.0586,-2.0615,-2.0615,-2.0615,-2.0615,-2.0615,-2.0615,-2.0615,-2.0615,-2.0615,-2.0615,-2.0615,-2.0615,-2.0615,-2.0615,-2.0615,-2.0615,-2.0615,-2.0615,-2.0615,-2.0615,-2.0615,-2.0615,-2.0615,-2.0595,-2.0215,-1.9795,-1.9412,-1.9219,-1.9195,-1.9391,-2.0147,-2.1129,-2.2151,-2.2226,-2.2322,-0.7166,0.0,-0.7095,-0.7095,0.0,-0.7095,-0.7055,-0.6991,-0.6987,-0.6865,-0.6624,-0.6545,-0.6433,-0.63,-0.63,-0.6834,-0.7821,-0.8351,-0.9367,-1.0783,-1.1316,-1.1811,-1.2298,-1.2151,-1.204,-1.1899,-1.1605,-1.1343,-1.1196,-1.0909,-1.0807,-1.0801,-1.066,-1.0586,-1.0586,-1.0586,-1.0586,-1.0586,-1.0586,-1.0586,-1.0586,-1.0586,-1.0378,-0.9913,0.0,0.0,0.0,0.0,0.0,0.0,0.0,0.0,0.0,0.0,0.0,-0.9073,-0.9145,-0.9549,-1.0294,-1.1285,-1.2358,-1.3516,-1.4933,-1.5557,-1.5117,-1.6094,-1.675,-1.676,-1.7314,-1.7861,-1.8247,-1.8711,-1.9219,-1.9834,-2.0107,-2.037,-2.0566,-2.0615,-2.0615,-2.0615,-2.0615,-2.0615,-2.0615,-2.0615,-2.0615,-2.0615,-2.0615,-2.0615,-2.0615,-2.0615,-2.0615,-2.0615,-2.0615,-2.0615,-2.0615,-2.0615,-2.0615,-2.0615,-2.0615,-2.0615,-2.0615,-2.0615,-2.0615,-2.0595,-2.0419,-2.0098,-1.9707,-1.96,-1.9541,-1.9414,-1.997,-2.0807,-2.1681,-2.2159,-2.2598,-0.7278,-0.7098,-0.7095,-0.7095,-0.7095,-0.7095,-0.7095,-0.7095,0.0,0.0,0.0,-0.658,-0.6474,-0.6337,-0.6313,-0.676,-0.7518,-0.7706,-0.8723,-1.026,-1.064,-1.1236,-1.2033,-1.2224,-1.2178,-1.1986,-1.1926,-1.1737,-1.1462,-1.1209,-1.1042,-1.0975,-1.0787,-1.0646,-1.0593,-1.0586,-1.0586,-1.0586,-1.0586,-1.0586,-1.0586,-1.0586,-1.0445,-1.012,-0.9886,-0.9626,-0.9304,-0.9291,-0.9178,-0.8958,-0.9158,-0.9291,-0.9284,-0.9291,-0.9426,-0.9659,-0.9715,-0.9961,-1.0567,-1.1466,-1.2652,-1.4052,-1.5716,-1.658,-1.6339,-1.7031,-1.7533,-1.75,-1.7812,-1.8178,-1.8666,-1.9062,-1.9492,-1.9971,-2.0352,-2.0605,-2.0615,-2.0615,-2.0615,-2.0615,-2.0615,-2.0615,-2.0615,-2.0615,-2.0615,-2.0615,-2.0615,-2.0615,-2.0615,-2.0615,-2.0615,-2.0615,-2.0615,-2.0615,-2.0615,-2.0615,-2.0615,-2.0615,-2.0615,-2.0615,-2.0615,-2.0615,-2.0615,-2.0615,-2.0605,-2.04,-2.001,-1.9883,-1.9811,-1.9476,-1.9681,-2.0133,-2.093,-2.1898,-2.2567,-0.7282,-0.7095,-0.7095,-0.7095,-0.7095,-0.7095,-0.7095,-0.7095,-0.7095,-0.7004,-0.6888,-0.6736,-0.6624,-0.6477,-0.6354,-0.6377,-0.6567,-0.7403,-0.797,0.0,-0.9997,-1.0858,-1.105,-1.1879,-1.2278,-1.2218,-1.1997,-1.1886,-1.1812,-1.151,-1.1243,-1.1022,-1.0955,-1.0841,-1.0606,-1.0586,-1.0586,-1.0586,-1.0586,-1.0586,-1.0586,-1.0586,-1.0452,-1.0134,-1.008,-0.9913,-0.9633,-0.9619,-0.9606,-0.9595,-0.9628,-0.9619,-0.9626,-0.9619,-0.9639,-0.9708,-0.9715,-0.9852,-1.0207,-1.161,-1.3602,-1.5978,-1.6536,-1.6824,-1.7178,-1.7637,-1.792,-1.792,-1.7988,-1.834,-1.9072,-1.9248,-1.9619,-2.0361,-2.0556,-2.0605,-2.0615,-2.0615,-2.0615,-2.0615,-2.0615,-2.0615,-2.0615,-2.0615,-2.0615,-2.0615,-2.0615,-2.0615,-2.0615,-2.0615,-2.0615,-2.0615,-2.0615,-2.0615,-2.0615,-2.0615,-2.0615,-2.0615,-2.0615,-2.0615,-2.0615,-2.0615,-2.0615,-2.0615,-2.0615,-2.0429,-2.0,-1.9912,-1.9838,-1.9692,-1.9748,-2.0001,-2.0522,-2.0871,-2.1215,-0.7356,-0.7105,-0.7095,-0.7095,-0.7095,-0.7095,-0.7095,-0.7095,-0.7095,-0.697,-0.6807,-0.6729,-0.6573,-0.6399,-0.6327,-0.63,-0.6338,-0.6756,-0.7292,-0.7893,-0.9324,-1.0265,-1.0858,-1.1811,-1.2305,-1.2291,-1.2171,-1.2104,-1.2078,-1.181,-1.1597,-1.1484,-1.1156,-1.0922,-1.0827,-1.0673,-1.0586,-1.0586,-1.0586,-1.0586,-1.0586,-1.0586,-1.0526,-1.0354,-1.0207,-1.003,-0.992,-0.992,-0.9846,-0.9722,-0.9833,-0.992,-0.992,-0.992,-0.9987,-1.0171,-1.0191,-1.0244,-1.0347,-1.212,-1.4162,-1.6471,-1.6953,-1.7266,-1.7695,-1.79,-1.8008,-1.8018,-1.8178,-1.8496,-1.8906,-1.9319,-1.9785,-2.0166,-2.0458,-2.0605,-2.0615,-2.0615,-2.0615,-2.0615,-2.0615,-2.0615,-2.0615,-2.0615,-2.0615,-2.0615,-2.0615,-2.0615,-2.0615,-2.0615,-2.0615,-2.0615,-2.0615,-2.0615,-2.0615,-2.0615,-2.0615,-2.0615,-2.0615,-2.0615,-2.0615,-2.0615,-2.0615,-2.0615,-2.0605,-2.0391,-2.0,-1.9912,-1.9706,-1.9248,-1.9198,-1.9394,-1.9767,-1.9879,-2.0354,-0.7417,-0.7098,-0.7095,-0.7095,-0.7095,-0.7095,-0.7095,-0.7095,-0.7095,-0.6976,-0.6722,-0.6702,-0.6552,-0.6358,-0.6313,-0.63,-0.63,-0.63,-0.6721,-0.7514,-0.8727,-0.9707,-1.0527,-1.1694,-1.2305,-1.2305,-1.2305,-1.2305,-1.2278,-1.2107,-1.1966,-1.1859,-1.1349,-1.1062,-1.0989,-1.0807,-1.066,-1.06,-1.0586,-1.0586,-1.0586,-1.0586,-1.0586,-1.0573,-1.0341,-1.0214,-1.0221,-1.0214,-1.0114,-0.9936,-1.0094,-1.0214,-1.0214,-1.0214,-1.0352,-1.0566,-1.0586,-1.0715,-1.103,-1.2593,-1.4438,-1.6338,-1.708,-1.7559,-1.7949,-1.8008,-1.8008,-1.8047,-1.8281,-1.851,-1.8802,-1.9319,-1.9844,-2.0029,-2.0352,-2.0595,-2.0615,-2.0615,-2.0615,-2.0615,-2.0615,-2.0615,-2.0615,-2.0615,-2.0615,-2.0615,-2.0615,-2.0615,-2.0615,-2.0615,-2.0615,-2.0615,-2.0615,-2.0615,-2.0615,-2.0615,-2.0615,-2.0615,-2.0615,-2.0615,-2.0615,-2.0615,-2.0615,-2.0595,-2.0459,-2.0273,-1.998,-1.9697,-1.9346,-1.8811,-1.8605,-1.8602,-1.8936,-1.9011,-1.9464,-0.7375,-0.7115,-0.7098,-0.7095,-0.7095,-0.7095,-0.7095,-0.7095,-0.7095,-0.6976,-0.6712,-0.6702,-0.6607,-0.6487,-0.6354,-0.63,-0.63,-0.63,-0.6377,-0.6718,-0.8428,-0.9377,-0.9712,-1.144,-1.2305,-1.2305,-1.2305,-1.2305,-1.2305,-1.2271,-1.2161,-1.1899,-1.1543,-1.1229,-1.1029,-1.0969,-1.0854,-1.0593,-1.0586,-1.0586,-1.0586,-1.0586,-1.0586,-1.0586,-1.0566,-1.0553,-1.0533,-1.0553,-1.0533,-1.0519,-1.0519,-1.0546,-1.0546,-1.0546,-1.0559,-1.0586,-1.0586,-1.1005,-1.1983,-1.3004,-1.4286,-1.5818,-1.6864,-1.7535,-1.7959,-1.8008,-1.8008,-1.8027,-1.8022,-1.8428,-1.9121,-1.9336,-1.9717,-2.041,-2.0566,-2.0615,-2.0615,-2.0615,-2.0615,-2.0615,-2.0615,-2.0615,-2.0615,-2.0615,-2.0615,-2.0615,-2.0615,-2.0615,-2.0615,-2.0615,-2.0615,-2.0615,-2.0615,-2.0615,-2.0615,-2.0615,-2.0615,-2.0615,-2.0615,-2.0615,-2.0615,-2.0615,-2.0595,-2.041,-2.0244,-2.001,-1.9697,-1.9309,-1.8763,-1.8568,-1.8295,-1.81,-1.8144,-1.8202,-1.8664,-0.6768,-0.7272,-0.7132,-0.7095,-0.7095,-0.7095,-0.7095,-0.7095,-0.7095,-0.6933,-0.6719,-0.6702,-0.6569,-0.6385,-0.6323,-0.63,-0.63,-0.63,-0.6644,-0.7249,-0.8656,-0.9593,-1.0303,-1.162,-1.2305,-1.2305,-1.2305,-1.2305,-1.2305,-1.2305,-1.2238,-1.2111,-1.183,-1.163,-1.1524,-1.1162,-1.0935,-1.0847,-1.068,-1.0586,-1.0586,-1.0586,-1.0586,-1.0586,-1.0586,-1.0586,-1.0586,-1.0586,-1.0586,-1.0586,-1.0586,-1.0586,-1.0586,-1.0586,-1.0586,-1.0586,-1.0586,-1.1058,-1.2139,-1.2829,-1.3983,-1.5769,-1.6545,-1.7194,-1.791,-1.8008,-1.8008,-1.8037,-1.8232,-1.8607,-1.9199,-1.9512,-1.9912,-2.0478,-2.0615,-2.0605,-2.0615,-2.0615,-2.0615,-2.0615,-2.0615,-2.0615,-2.0615,-2.0615,-2.0615,-2.0615,-2.0615,-2.0615,-2.0615,-2.0615,-2.0615,-2.0615,-2.0615,-2.0615,-2.0615,-2.0615,-2.0615,-2.0615,-2.0615,-2.0615,-2.0586,-2.0605,-2.0537,-2.0234,-1.999,-1.9602,-1.9143,-1.8929,-1.8549,-1.8354,-1.8213,-1.8008,-1.8008,-1.8008,-1.8202,-0.6092,-0.6803,-0.7025,-0.7095,-0.7095,-0.7095,-0.7095,-0.7095,-0.7095,-0.6997,-0.677,-0.6719,-0.6559,-0.6375,-0.632,-0.63,-0.63,-0.63,-0.6679,-0.7476,-0.8689,-0.9707,-1.0453,-1.1731,-1.2305,-1.2305,-1.2305,-1.2305,-1.2305,-1.2305,-1.2305,-1.2271,-1.2127,-1.1946,-1.1724,-1.1303,-1.1029,-1.0894,-1.0693,-1.0586,-1.0586,-1.0586,-1.0586,-1.0586,-1.0586,-1.0586,-1.0586,-1.0586,-1.0586,-1.0586,-1.0586,-1.0586,-1.0586,-1.0586,-1.0586,-1.06,-1.0673,-1.1086,-1.192,-1.2613,-1.365,-1.5103,-1.5852,-1.6602,-1.7398,-1.7613,-1.7759,-1.7993,-1.8291,-1.8643,-1.9228,-1.9453,-1.9834,-2.0468,-2.0517,-2.0458,-2.0586,-2.0615,-2.0615,-2.0615,-2.0615,-2.0615,-2.0615,-2.0615,-2.0615,-2.0615,-2.0615,-2.0615,-2.0615,-2.0615,-2.0615,-2.0615,-2.0615,-2.0615,-2.0615,-2.0615,-2.0615,-2.0615,-2.0605,-2.0556,-2.0439,-2.0381,-2.0282,-1.9844,-1.9707,-1.9397,-1.8909,-1.8617,-1.8393,-1.8144,-1.8008,-1.8008,-1.8008,-1.8008,-1.8008,-0.5577,-0.57,-0.6662,-0.7095,-0.7095,-0.7095,-0.7095,-0.7095,-0.7095,-0.7007,-0.6846,-0.6763,-0.661,-0.6477,-0.6351,-0.63,-0.63,-0.63,-0.6377,-0.6718,-0.8389,-0.9296,-0.948,-1.136,-1.2268,-1.2305,-1.2305,-1.2305,-1.2305,-1.2305,-1.2305,-1.2298,-1.2271,-1.1991,-1.1557,-1.143,-1.1129,-1.072,-1.062,-1.0586,-1.0586,-1.0586,-1.0586,-1.0586,-1.0586,-1.0586,-1.0586,-1.0586,-1.0586,-1.0586,-1.0586,-1.0586,-1.0586,-1.0586,-1.0593,-1.0626,-1.0815,-1.1129,-1.1553,-1.256,-1.3419,-1.3892,-1.474,-1.5649,-1.6532,-1.6671,-1.7035,-1.7906,-1.791,-1.8294,-1.9111,-1.9072,-1.9346,-2.0361,-2.0195,-2.0215,-2.0566,-2.0615,-2.0615,-2.0615,-2.0615,-2.0615,-2.0615,-2.0615,-2.0615,-2.0615,-2.0615,-2.0615,-2.0615,-2.0615,-2.0615,-2.0615,-2.0615,-2.0615,-2.0615,-2.0615,-2.0615,-2.0576,-2.0527,-2.042,-2.0146,-1.9893,-1.9678,-1.9414,-1.9085,-1.8822,-1.8598,-1.8373,-1.8174,-1.8008,-1.8008,-1.8008,-1.8008,-1.8008,-1.8008,-0.5164,-0.6496,-0.6938,-0.7095,-0.7095,-0.7095,-0.7095,-0.7095,-0.7095,-0.6964,-0.68,-0.6722,-0.6566,-0.6375,-0.6323,-0.63,-0.63,-0.63,-0.6641,-0.7288,-0.8008,-0.9031,-1.0303,-1.1056,-1.1694,-1.2231,-1.2305,-1.2305,-1.2305,-1.2305,-1.2305,-1.2305,-1.2305,-1.2098,-1.1744,-1.1482,-1.1223,-1.0894,-1.07,-1.0586,-1.0586,-1.0586,-1.0586,-1.0586,-1.0586,-1.0586,-1.0586,-1.0586,-1.0586,-1.0586,-1.0586,-1.0586,-1.0586,-1.0586,-1.068,-1.0854,-1.0935,-1.1202,-1.1672,-1.2121,-1.2806,-1.3628,-1.3991,-1.4665,-1.5473,-1.572,-1.6114,-1.6862,-1.7113,-1.7696,-1.8915,-1.9131,-1.9346,-1.998,-2.0254,-2.039,-2.0556,-2.0615,-2.0615,-2.0615,-2.0615,-2.0615,-2.0615,-2.0615,-2.0615,-2.0615,-2.0615,-2.0615,-2.0615,-2.0615,-2.0605,-2.0605,-2.0615,-2.0615,-2.0615,-2.0615,-2.0586,-2.0507,-2.0371,-2.0156,-1.9874,-1.96,-1.9365,-1.9004,-1.8607,-1.8461,-1.8334,-1.8208,-1.8008,-1.8008,-1.8008,-1.8008,-1.8008,-1.8008,-1.8008,-0.4743,-0.6444,-0.6962,-0.7095,-0.7095,-0.7095,-0.7095,-0.7095,-0.7095,-0.698,-0.6851,-0.6746,-0.6586,-0.6443,-0.6344,-0.63,-0.63,-0.63,-0.6683,-0.7326,-0.7629,-0.8494,-0.9734,-1.0484,-1.1162,-1.1811,-1.2187,-1.2305,-1.2305,-1.2305,-1.2305,-1.2305,-1.2305,-1.2151,-1.1906,-1.157,-1.1283,-1.0995,-1.0747,-1.0586,-1.0586,-1.0586,-1.0586,-1.0586,-1.0586,-1.0586,-1.0586,-1.0586,-1.0586,-1.0586,-1.0586,-1.0586,-1.0586,-1.0586,-1.0673,-1.0868,-1.1029,-1.1296,-1.1677,-1.1933,-1.2374,-1.3142,-1.328,-1.3665,-1.4557,-1.47,-1.5199,-1.5895,-1.6507,-1.7226,-1.8303,-1.9008,-1.9512,-2.0,-2.0273,-2.0458,-2.0576,-2.0605,-2.0615,-2.0615,-2.0615,-2.0615,-2.0615,-2.0615,-2.0615,-2.0615,-2.0615,-2.0615,-2.0615,-2.0605,-2.0527,-2.0419,-2.0322,-2.0263,-2.0136,-2.0028,-2.0166,-2.0137,-2.0088,-1.9883,-1.9524,-1.9268,-1.8975,-1.8603,-1.8344,-1.8227,-1.8154,-1.8037,-1.8008,-1.8008,-1.8008,-1.8008,-1.8008,-1.8008,-1.8008,-0.4324,-0.5589,-0.665,-0.7095,-0.7095,-0.7095,-0.7095,-0.7095,-0.7095,-0.7068,-0.698,-0.682,-0.6675,-0.661,-0.6405,-0.63,-0.63,-0.63,-0.6338,-0.6528,-0.7288,-0.7783,-0.8156,-0.9734,-1.0671,-1.0975,-1.1848,-1.2305,-1.2305,-1.2305,-1.2305,-1.2305,-1.2305,-1.2158,-1.1906,-1.157,-1.1249,-1.0995,-1.074,-1.0593,-1.0586,-1.0586,-1.0586,-1.0586,-1.0586,-1.0586,-1.0586,-1.0586,-1.0586,-1.0586,-1.0586,-1.0586,-1.0586,-1.0586,-1.0638,-1.0734,-1.1109,-1.1396,-1.1475,-1.1977,-1.2258,-1.2452,-1.2372,-1.2806,-1.3528,-1.3709,-1.4135,-1.5057,-1.5885,-1.6696,-1.7297,-1.8329,-1.9433,-2.038,-2.0263,-2.0263,-2.0507,-2.0615,-2.0615,-2.0615,-2.0615,-2.0615,-2.0615,-2.0615,-2.0615,-2.0615,-2.0615,-2.0615,-2.0615,-2.0615,-2.0381,-2.0078,-2.0,-1.998,-1.9629,-1.9316,-1.9561,-1.9736,-1.9707,-1.9533,-1.9075,-1.8724,-1.8584,-1.8237,-1.8203,-1.8096,-1.8105,-1.8008,-1.8008,-1.8008,-1.8008,-1.8008,-1.8008,-1.8008,-1.8008,-0.4322,-0.5494,-0.6605,-0.7095,-0.7095,-0.7095,-0.7095,-0.7095,-0.7095,-0.7041,-0.6927,-0.679,-0.6644,-0.6562,-0.6381,-0.63,-0.63,-0.63,-0.63,-0.6374,-0.6641,-0.7176,-0.7821,-0.8461,-0.9475,-1.0746,-1.1805,-1.2305,-1.2305,-1.2305,-1.2305,-1.2305,-1.2305,-1.2151,-1.1913,-1.157,-1.1283,-1.0995,-1.074,-1.0593,-1.0586,-1.0593,-1.0593,-1.0586,-1.0586,-1.0586,-1.0586,-1.0586,-1.0586,-1.0586,-1.0586,-1.0586,-1.0586,-1.0586,-1.068,-1.0868,-1.1209,-1.1495,-1.175,-1.2064,-1.2305,-1.2305,-1.2305,-1.2415,-1.2703,-1.2776,-1.32,-1.4021,-1.4662,-1.5315,-1.6366,-1.708,-1.8244,-1.9936,-2.0292,-2.0381,-2.0566,-2.0615,-2.0615,-2.0615,-2.0615,-2.0615,-2.0615,-2.0615,-2.0615,-2.0615,-2.0615,-2.0615,-2.0615,-2.0576,-2.04,-2.0019,-1.9922,-1.9658,-1.9258,-1.8994,-1.9092,-1.9209,-1.9163,-1.9134,-1.8695,-1.8383,-1.8178,-1.8105,-1.8037,-1.8008,-1.8008,-1.8008,-1.8008,-1.8008,-1.8008,-1.8008,-1.8008,-1.8008,-1.8008,-0.3614,-0.4821,-0.598,-0.6738,-0.7095,-0.7095,-0.7065,-0.7031,-0.7075,-0.6987,-0.6851,-0.6746,-0.6617,-0.6504,-0.6361,-0.63,-0.63,-0.63,-0.63,-0.63,-0.63,-0.6679,-0.7292,-0.7672,-0.8836,-1.0559,-1.1428,-1.1966,-1.2305,-1.2305,-1.2305,-1.2305,-1.2305,-1.2225,-1.2017,-1.1744,-1.149,-1.1296,-1.1035,-1.0828,-1.0774,-1.0754,-1.0693,-1.0606,-1.0586,-1.0586,-1.0586,-1.0586,-1.0586,-1.0586,-1.0586,-1.0586,-1.0586,-1.0593,-1.0673,-1.0855,-1.1196,-1.151,-1.1724,-1.2058,-1.2305,-1.2305,-1.2305,-1.2305,-1.2305,-1.2305,-1.2629,-1.3104,-1.3726,-1.444,-1.538,-1.6089,-1.7119,-1.8574,-1.9503,-2.0138,-2.045,-2.0615,-2.0615,-2.0615,-2.0615,-2.0615,-2.0615,-2.0615,-2.0615,-2.0615,-2.0615,-2.0615,-2.0576,-2.0449,-2.0117,-1.9785,-1.9443,-1.915,-1.8857,-1.8711,-1.8652,-1.8652,-1.8607,-1.8568,-1.8354,-1.8188,-1.8047,-1.8057,-1.8008,-1.8008,-1.8008,-1.8008,-1.8008,-1.8008,-1.8008,-1.8008,-1.8008,-1.8008,-1.8008,-0.2459,-0.3616,-0.4865,-0.6027,-0.6918,-0.7051,-0.7021,-0.6927,-0.7018,-0.692,-0.6753,-0.6681,-0.66,-0.6464,-0.6364,-0.63,-0.63,-0.63,-0.63,-0.63,-0.63,-0.6374,-0.6567,-0.7365,-0.8727,-1.0147,-1.0602,-1.1205,-1.1996,-1.204,-1.2268,-1.2268,-1.2305,-1.2271,-1.2158,-1.202,-1.1839,-1.1677,-1.147,-1.1189,-1.0969,-1.0961,-1.0854,-1.06,-1.0586,-1.0586,-1.0586,-1.0586,-1.0586,-1.0586,-1.0586,-1.0586,-1.0586,-1.0586,-1.0606,-1.066,-1.1109,-1.1376,-1.1557,-1.1991,-1.2305,-1.2305,-1.2305,-1.2305,-1.2305,-1.2305,-1.2342,-1.2489,-1.3169,-1.3807,-1.4388,-1.4991,-1.5902,-1.6804,-1.8276,-1.9434,-2.0275,-2.042,-2.0459,-2.0517,-2.0566,-2.0586,-2.0576,-2.0615,-2.0615,-2.0615,-2.0615,-2.0615,-2.0527,-2.0264,-1.9795,-1.9443,-1.9141,-1.8724,-1.8496,-1.8398,-1.835,-1.8359,-1.8295,-1.8247,-1.8178,-1.8086,-1.8008,-1.8008,-1.8008,-1.8008,-1.8008,-1.8008,-1.8008,-1.8008,-1.8008,-1.8008,-1.8008,-1.8008,-1.8008,-0.1968,-0.2504,-0.451,-0.5581,-0.598,-0.6697,-0.7014,-0.6896,-0.6923,-0.6881,-0.6702,-0.6576,-0.6555,-0.6497,-0.6361,-0.63,-0.63,-0.63,-0.63,-0.63,-0.63,-0.63,-0.649,-0.7326,-0.8046,-0.8723,-0.9405,-1.0196,-1.1124,-1.1199,-1.1539,-1.2268,-1.2218,-1.2148,-1.1997,-1.1953,-1.1744,-1.153,-1.1269,-1.1102,-1.0982,-1.0821,-1.0673,-1.0606,-1.0586,-1.0586,-1.0586,-1.0586,-1.0586,-1.0586,-1.0586,-1.0586,-1.0586,-1.0586,-1.06,-1.0707,-1.1089,-1.1402,-1.1509,-1.1971,-1.2278,-1.2305,-1.2305,-1.2305,-1.2305,-1.2305,-1.2305,-1.2382,-1.2777,-1.3078,-1.3279,-1.3676,-1.4362,-1.5436,-1.733,-1.8786,-1.9014,-1.9621,-2.0088,-2.0078,-2.0002,-2.009,-2.0323,-2.0479,-2.0489,-2.0537,-2.0595,-2.0566,-2.041,-2.0117,-1.9658,-1.9316,-1.8975,-1.849,-1.8178,-1.8105,-1.8057,-1.8086,-1.8096,-1.8115,-1.8076,-1.8037,-1.8008,-1.8008,-1.8008,-1.8008,-1.8008,-1.8008,-1.8008,-1.8008,-1.8008,-1.8008,-1.8008,-1.8008,-1.8008,-0.1344,-0.1924,-0.3307,-0.4198,-0.4776,-0.5891,-0.6278,-0.623,-0.6685,-0.6763,-0.6556,-0.6532,-0.648,-0.6416,-0.6337,-0.63,-0.63,-0.63,-0.63,-0.63,-0.63,-0.63,-0.6451,-0.6984,-0.7361,-0.7821,-0.8389,-0.9221,-1.0008,-1.019,-1.0668,-1.134,-1.1606,-1.173,-1.1917,-1.2033,-1.1904,-1.165,-1.143,-1.1263,-1.0995,-1.0868,-1.0713,-1.0633,-1.0586,-1.0586,-1.0586,-1.0586,-1.0586,-1.0586,-1.0586,-1.0586,-1.0586,-1.0586,-1.0646,-1.0774,-1.1182,-1.1435,-1.167,-1.2044,-1.2278,-1.2305,-1.2305,-1.2305,-1.2305,-1.2305,-1.2305,-1.2331,-1.2516,-1.2576,-1.2643,-1.2871,-1.329,-1.4082,-1.5904,-1.7281,-1.7414,-1.8015,-1.8365,-1.8441,-1.8459,-1.8713,-1.9345,-1.9582,-1.9918,-2.0207,-2.0498,-2.0429,-2.0264,-1.9902,-1.9411,-1.8868,-1.8537,-1.8093,-1.7944,-1.7891,-1.7974,-1.7983,-1.8018,-1.8008,-1.8008,-1.8008,-1.8008,-1.8008,-1.8008,-1.8008,-1.8008,-1.8008,-1.8008,-1.8008,-1.8008,-1.8008,-1.8008,-1.8008,-1.8008,-0.0628,-0.1612,-0.1746,-0.2413,-0.3527,-0.4819,-0.5366,-0.5247,-0.6323,-0.6661,-0.6412,-0.6443,-0.6412,-0.63,-0.6306,-0.63,-0.63,-0.63,-0.63,-0.63,-0.63,-0.63,-0.63,-0.6412,-0.6834,-0.7403,-0.7633,-0.8237,-0.8912,-0.9145,-0.9569,-1.0296,-1.0646,-1.1095,-1.1572,-1.1982,-1.2107,-1.181,-1.1697,-1.1423,-1.1056,-1.0921,-1.0774,-1.062,-1.0586,-1.0586,-1.0586,-1.0586,-1.0586,-1.0586,-1.0586,-1.0586,-1.0586,-1.0586,-1.0693,-1.0914,-1.1156,-1.145,-1.1737,-1.1977,-1.2238,-1.2225,-1.2265,-1.2305,-1.2305,-1.2305,-1.2305,-1.2305,-1.2305,-1.2345,-1.2371,-1.261,-1.2748,-1.3106,-1.4057,-1.4927,-1.5751,-1.6183,-1.6359,-1.6351,-1.6397,-1.6827,-1.7464,-1.8084,-1.8585,-1.8845,-1.9207,-1.9076,-1.8899,-1.8508,-1.8202,-1.7967,-1.7753,-1.7646,-1.7657,-1.7716,-1.7828,-1.794,-1.7974,-1.8008,-1.8008,-1.8008,-1.8008,-1.8008,-1.8008,-1.8008,-1.8008,-1.8008,-1.8008,-1.8008,-1.8008,-1.8008,-1.8008,-1.8008,-1.8008,-0.0135,-0.0449,-0.1433,-0.1969,-0.2503,-0.4417,-0.5188,-0.4957,-0.619,-0.6495,-0.6364,-0.6337,-0.633,-0.63,-0.63,-0.63,-0.63,-0.63,-0.63,-0.63,-0.63,-0.63,-0.63,-0.63,-0.6412,-0.6679,-0.6641,-0.7176,-0.7893,-0.8194,-0.859,-0.9425,-1.0115,-1.0575,-1.0827,-1.1625,-1.1824,-1.1577,-1.1489,-1.1343,-1.1009,-1.0801,-1.0673,-1.0586,-1.0586,-1.0586,-1.0586,-1.0586,-1.0586,-1.0586,-1.0586,-1.0586,-1.0586,-1.0586,-1.0646,-1.078,-1.0962,-1.1142,-1.1276,-1.1745,-1.2007,-1.2074,-1.2198,-1.2305,-1.2305,-1.2305,-1.2305,-1.2305,-1.2305,-1.2305,-1.2318,-1.2351,-1.2418,-1.2577,-1.2753,-1.3049,-1.3444,-1.4795,-1.5642,-1.5762,-1.577,-1.6092,-1.6577,-1.6728,-1.7093,-1.7471,-1.7565,-1.7449,-1.7345,-1.7213,-1.705,-1.6929,-1.6679,-1.6585,-1.6828,-1.6932,-1.7079,-1.7329,-1.7545,-1.7716,-1.775,-1.8008,-1.8008,-1.8008,-1.8008,-1.8008,-1.8008,-1.8008,-1.8008,-1.8008,-1.8008,-1.8008,-1.8008,-1.8008,-1.792,0.0,0.0,-0.0718,-0.0941,-0.1254,-0.2904,-0.386,-0.4348,-0.534,-0.6081,-0.634,-0.6334,-0.63,-0.63,-0.63,-0.63,-0.63,-0.63,-0.63,-0.63,-0.63,-0.63,-0.63,-0.63,-0.63,-0.63,-0.6296,-0.6641,-0.6984,-0.7195,-0.7492,-0.8328,-0.9343,-1.0008,-1.0402,-1.1352,-1.1682,-1.1456,-1.1242,-1.1082,-1.0834,-1.0687,-1.0586,-1.0586,-1.0586,-1.0586,-1.0586,-1.0586,-1.0586,-1.0586,-1.0586,-1.0586,-1.0586,-1.0593,-1.0653,-1.0788,-1.1035,-1.1269,-1.1517,-1.1826,-1.2091,-1.21,-1.2225,-1.2278,-1.2305,-1.2305,-1.2305,-1.2305,-1.2305,-1.2305,-1.2305,-1.2311,-1.2305,-1.2305,-1.2305,-1.2305,-1.2509,-1.3454,-1.4176,-1.4168,-1.4065,-1.4465,-1.4864,-1.5284,-1.5863,-1.6321,-1.6737,-1.6699,-1.6492,-1.6337,-1.6069,-1.584,-1.5545,-1.5525,-1.5834,-1.6009,-1.6079,-1.6402,-1.6784,-1.6991,-1.7139,-1.7569,-1.8008,-1.8008,-1.8008,-1.8008,-1.8008,-1.8008,-1.8008,-1.8008,-1.8008,-1.8008,-1.7939,-1.7822,-1.7715,0.0,0.0,0.0,0.0,0.0,-0.1517,-0.2633,-0.3392,-0.4629,-0.5819,-0.6318,-0.6347,-0.63,-0.63,-0.63,-0.63,-0.63,-0.63,-0.63,-0.63,-0.63,-0.63,-0.63,-0.63,-0.63,-0.63,-0.63,-0.6377,-0.6377,-0.6356,-0.6851,-0.7353,-0.8554,-0.953,-1.0213,-1.1141,-1.1623,-1.1323,-1.1122,-1.0928,-1.068,-1.06,-1.0593,-1.0586,-1.0586,-1.0586,-1.0586,-1.0586,-1.0586,-1.0586,-1.0586,-1.0586,-1.0586,-1.0606,-1.0727,-1.0962,-1.1142,-1.1376,-1.163,-1.1971,-1.2178,-1.2238,-1.2291,-1.2298,-1.2305,-1.2305,-1.2305,-1.2305,-1.2305,-1.2305,-1.2305,-1.2305,-1.2305,-1.2305,-1.2305,-1.2305,-1.2305,-1.2305,-1.2553,-1.2553,-1.2919,-1.33,-1.3557,-1.3926,-1.4564,-1.5155,-1.5557,-1.5804,-1.5577,-1.5263,-1.4811,-1.4514,-1.4181,-1.4458,-1.4807,-1.5482,-1.5517,-1.5834,-1.6184,-1.6532,-1.681,-1.7501,-1.8008,-1.8008,-1.8008,-1.8008,-1.8008,-1.8008,-1.8008,-1.8008,-1.8008,-1.8008,-1.7852,-1.7637,-1.7519,0.0,0.0,0.0,0.0,0.0,-0.2153,-0.3014,-0.3489,-0.5227,-0.6231,-0.6312,-0.6313,-0.63,-0.63,-0.63,-0.63,-0.63,-0.63,-0.63,-0.63,-0.63,-0.63,-0.63,-0.63,-0.63,-0.63,-0.63,-0.63,-0.63,-0.6321,-0.6598,-0.7347,-0.8309,-0.9145,-0.9944,-1.0899,-1.1301,-1.1149,-1.0995,-1.0834,-1.0653,-1.0586,-1.0586,-1.0586,-1.0586,-1.0586,-1.0586,-1.0586,-1.0586,-1.0586,-1.0586,-1.0586,-1.0586,-1.0586,-1.0727,-1.0941,-1.1082,-1.1303,-1.1543,-1.1817,-1.1931,-1.1997,-1.2171,-1.2298,-1.2305,-1.2305,-1.2305,-1.2305,-1.2305,-1.2305,-1.2305,-1.2305,-1.2305,-1.2305,-1.2305,-1.2305,-1.2305,-1.2305,-1.2305,-1.2305,-1.2342,-1.2378,-1.2758,-1.3021,-1.3401,-1.3718,-1.3866,-1.4043,-1.3917,-1.3556,-1.314,-1.2884,-1.2716,-1.32,-1.3774,-1.4665,-1.5199,-1.5552,-1.5974,-1.6463,-1.6922,-1.7647,-1.8008,-1.7974,-1.7974,-1.8008,-1.8008,-1.8008,-1.8008,-1.8008,-1.8008,-1.8008,-1.7764,-1.7519,-1.7363,0.0,0.0,0.0,0.0,0.0,-0.17,-0.278,-0.3428,-0.4862,-0.5913,-0.6244,-0.6337,-0.63,-0.63,-0.63,-0.63,-0.63,-0.63,-0.63,-0.63,-0.63,-0.63,-0.63,-0.63,-0.63,-0.63,-0.63,-0.63,-0.63,-0.63,-0.6471,-0.676,-0.7634,-0.8512,-0.9265,-1.0027,-1.0634,-1.0811,-1.0842,-1.0715,-1.0606,-1.0586,-1.0586,-1.0586,-1.0586,-1.0586,-1.0586,-1.0586,-1.0586,-1.0586,-1.0586,-1.0586,-1.0593,-1.0606,-1.0653,-1.0834,-1.1049,-1.1263,-1.1455,-1.181,-1.2098,-1.2118,-1.2238,-1.2298,-1.2305,-1.2305,-1.2305,-1.2305,-1.2305,-1.2305,-1.2305,-1.2305,-1.2305,-1.2305,-1.2305,-1.2305,-1.2305,-1.2305,-1.2305,-1.2305,-1.2305,-1.2305,-1.2305,-1.2456,-1.2459,-1.2385,-1.2365,-1.2438,-1.2583,-1.2445,-1.2305,-1.2305,-1.2342,-1.2592,-1.3062,-1.3629,-1.445,-1.4914,-1.5376,-1.5904,-1.6324,-1.6759,-1.7467,-1.7896,-1.793,-1.7681,-1.8008,-1.8008,-1.8008,-1.8008,-1.8008,-1.7939,-1.7646,-1.7412,-1.7207,0.0,0.0,0.0,0.0,0.0,-0.116,-0.2116,-0.3073,-0.3976,-0.485,-0.5726,-0.5879,-0.5906,-0.6022,-0.618,-0.63,-0.63,-0.63,-0.63,-0.63,-0.63,-0.63,-0.63,-0.63,-0.63,-0.63,-0.63,-0.63,-0.63,-0.63,-0.6284,-0.6656,-0.7233,-0.7803,-0.8603,-0.9214,-0.9922,-1.0308,-1.047,-1.0371,-1.0555,-1.0586,-1.0586,-1.0586,-1.0586,-1.0586,-1.0586,-1.0586,-1.0586,-1.0586,-1.0593,-1.062,-1.066,-1.062,-1.0646,-1.0821,-1.1182,-1.139,-1.1643,-1.1971,-1.2258,-1.2258,-1.2291,-1.2305,-1.2305,-1.2305,-1.2305,-1.2305,-1.2305,-1.2305,-1.2305,-1.2305,-1.2305,-1.2305,-1.2305,-1.2305,-1.2305,-1.2305,-1.2305,-1.2305,-1.2305,-1.2305,-1.2305,-1.2311,-1.2351,-1.2351,-1.2331,-1.2331,-1.2418,-1.2392,-1.2305,-1.2305,-1.2305,-1.2305,-1.2489,-1.2556,-1.3273,-1.3882,-1.4307,-1.4807,-1.5163,-1.5482,-1.6262,-1.6943,-1.701,-1.6872,-1.7407,-1.7964,-1.8008,-1.8008,-1.8008,-1.7861,-1.7559,-1.7178,-1.6875,0.0,0.0,0.0,0.0,0.0,-0.1127,-0.1677,-0.1991,-0.2939,-0.3333,-0.3851,-0.4499,-0.4882,-0.5196,-0.5983,-0.6257,-0.63,-0.63,-0.63,-0.63,-0.63,-0.63,-0.63,-0.63,-0.63,-0.63,-0.63,-0.63,-0.63,-0.63,-0.6561,-0.6954,-0.713,-0.7731,-0.8112,-0.8363,-0.8859,-0.9382,-0.9484,-0.9817,-1.0403,-1.0491,-1.0523,-1.0586,-1.0586,-1.0586,-1.0586,-1.0586,-1.0586,-1.0586,-1.0586,-1.072,-1.0881,-1.0713,-1.0921,-1.1156,-1.1416,-1.1502,-1.1819,-1.2104,-1.2305,-1.2305,-1.2305,-1.2305,-1.2305,-1.2305,-1.2305,-1.2305,-1.2305,-1.2305,-1.2305,-1.2305,-1.2305,-1.2305,-1.2305,-1.2305,-1.2305,-1.2305,-1.2305,-1.2305,-1.2305,-1.2305,-1.2305,-1.2305,-1.2311,-1.2305,-1.2305,-1.2305,-1.2305,-1.2305,-1.2305,-1.2305,-1.2305,-1.2305,-1.2305,-1.2305,-1.2526,-1.3062,-1.3346,-1.381,-1.4307,-1.4704,-1.4878,-1.5419,-1.56,-1.613,-1.6717,-1.7263,-1.775,-1.7581,-1.7052,-1.7183,-1.7461,-1.7009,-1.622,0.0,0.0,0.0,0.0,0.0,-0.1153,-0.1571,-0.1789,-0.2631,-0.3124,-0.3163,-0.3554,-0.4098,-0.4766,-0.5825,-0.6257,-0.63,-0.6296,-0.63,-0.63,-0.63,-0.63,-0.63,-0.63,-0.63,-0.63,-0.63,-0.63,-0.6296,-0.6289,-0.6513,-0.6662,-0.6673,-0.6889,-0.7453,-0.7476,-0.7913,-0.8349,-0.8619,-0.9005,-0.9626,-0.9888,-1.0079,-1.0561,-1.0555,-1.0561,-1.0606,-1.0586,-1.0586,-1.0586,-1.0586,-1.0727,-1.0874,-1.0807,-1.0847,-1.1343,-1.1423,-1.157,-1.1879,-1.2138,-1.2265,-1.2305,-1.2305,-1.2305,-1.2305,-1.2305,-1.2305,-1.2305,-1.2305,-1.2305,-1.2305,-1.2305,-1.2305,-1.2305,-1.2305,-1.2305,-1.2305,-1.2305,-1.2305,-1.2305,-1.2305,-1.2305,-1.2305,-1.2305,-1.2305,-1.2305,-1.2305,-1.2305,-1.2305,-1.2305,-1.2305,-1.2305,-1.2305,-1.2305,-1.2305,-1.2305,-1.2305,-1.2629,-1.2629,-1.3098,-1.3702,-1.4058,-1.4081,-1.4185,-1.4437,-1.506,-1.5849,-1.6138,-1.6186,-1.6044,-1.5866,-1.5962,-1.5946,-1.5322,-1.4782,0.0,0.0,0.0,0.0,0.0,-0.0895,-0.1156,-0.1295,-0.1917,-0.2267,-0.2422,-0.2617,-0.332,-0.4336,-0.5276,-0.5786,-0.5864,-0.618,-0.6257,-0.63,-0.63,-0.63,-0.63,-0.63,-0.63,-0.63,-0.63,-0.63,-0.6286,-0.6255,-0.6221,-0.6224,-0.6023,-0.6182,-0.6476,-0.6591,-0.6835,-0.7609,-0.7962,-0.8415,-0.8877,-0.8979,-0.9492,-0.9977,-1.0308,-1.0404,-1.0661,-1.0713,-1.0713,-1.0808,-1.0754,-1.0842,-1.1035,-1.0909,-1.1048,-1.1436,-1.1583,-1.1717,-1.2,-1.2191,-1.2285,-1.2305,-1.2305,-1.2305,-1.2305,-1.2305,-1.2305,-1.2305,-1.2305,-1.2305,-1.2305,-1.2305,-1.2305,-1.2305,-1.2305,-1.2305,-1.2305,-1.2305,-1.2305,-1.2305,-1.2305,-1.2305,-1.2305,-1.2305,-1.2305,-1.2305,-1.2305,-1.2305,-1.2305,-1.2305,-1.2305,-1.2305,-1.2305,-1.2305,-1.2305,-1.2305,-1.2305,-1.2291,-1.2291,-1.2445,-1.3055,-1.3121,-1.2992,-1.3111,-1.3319,-1.3221,-1.3538,-1.403,-1.4589,-1.4864,-1.4993,-1.4439,-1.4098,-1.3585,-1.3514,0.0,0.0,0.0,0.0,0.0,0.0,0.0,0.0,0.0,0.0,-0.0667,-0.1332,-0.2386,-0.3281,-0.4256,-0.4805,-0.4844,-0.5828,-0.6064,-0.6141,-0.63,-0.63,-0.63,-0.63,-0.63,-0.63,-0.63,-0.63,-0.6255,-0.6098,-0.6064,-0.5966,-0.5772,-0.5689,-0.5776,-0.5865,-0.6083,-0.6789,-0.7312,-0.7762,-0.8027,-0.8161,-0.8549,-0.9204,-0.9484,-0.9865,-1.0863,-1.0882,-1.0969,-1.1156,-1.0949,-1.1029,-1.1156,-1.1029,-1.1196,-1.1645,-1.1799,-1.1946,-1.2151,-1.2245,-1.2291,-1.2305,-1.2305,-1.2305,-1.2305,-1.2305,-1.2305,-1.2305,-1.2305,-1.2305,-1.2305,-1.2305,-1.2305,-1.2305,-1.2305,-1.2305,-1.2305,-1.2305,-1.2305,-1.2305,-1.2305,-1.2305,-1.2305,-1.2305,-1.2305,-1.2305,-1.2305,-1.2305,-1.2305,-1.2305,-1.2305,-1.2305,-1.2305,-1.2305,-1.2298,-1.2278,-1.2218,-1.2218,-1.2225,-1.2265,-1.2475,-1.2351,-1.2392,-1.2135,-1.2254,-1.1672,-1.1421,-1.2445,-1.3369,-1.4057,-1.4064,-1.3252,-1.3036,-1.2916,-1.2881,0.0,0.0,0.0,0.0,0.0,0.0,0.0,0.0,0.0,0.0,-0.0079,-0.1098,-0.1802,-0.2386,-0.3203,-0.3709,-0.3865,-0.4805,-0.5237,-0.5589,-0.5864,-0.6219,-0.63,-0.63,-0.63,-0.63,-0.63,-0.63,-0.6276,-0.6027,-0.5915,-0.5817,-0.5674,-0.5623,-0.5542,-0.5474,-0.5671,-0.5848,-0.6305,-0.6629,-0.7177,-0.7246,-0.7632,-0.8415,-0.9172,-0.9438,-0.9948,-1.0496,-1.0836,-1.0989,-1.0817,-1.0923,-1.108,-1.0936,-1.1154,-1.1625,-1.1662,-1.1834,-1.2088,-1.2211,-1.2305,-1.2305,-1.2305,-1.2305,-1.2305,-1.2305,-1.2305,-1.2305,-1.2305,-1.2305,-1.2305,-1.2305,-1.2305,-1.2305,-1.2305,-1.2305,-1.2305,-1.2305,-1.2305,-1.2305,-1.2305,-1.2305,-1.2305,-1.2305,-1.2305,-1.2305,-1.2305,-1.2305,-1.2305,-1.2305,-1.2305,-1.2305,-1.2305,-1.2305,-1.2305,-1.2218,-1.2167,-1.2158,-1.2184,-1.2225,-1.2278,-1.2291,-1.2231,-1.179,-1.1423,-1.1236,-1.1295,-1.1586,-1.204,-1.2506,-1.2332,-1.1792,-1.1811,-1.2119,-1.2197,0.0,0.0,0.0,0.0,0.0,0.0,0.0,0.0,0.0,0.0,0.0,-0.0824,-0.1137,-0.1411,-0.2152,-0.2657,-0.293,-0.3709,-0.4334,-0.4882,-0.5431,-0.5983,-0.618,-0.63,-0.63,-0.63,-0.63,-0.63,-0.6282,-0.5949,-0.5847,-0.5762,-0.562,-0.5532,-0.5488,-0.546,-0.5395,-0.5395,-0.5458,-0.562,-0.6301,-0.6334,-0.6724,-0.7502,-0.8124,-0.8652,-0.9039,-0.9533,-0.9904,-1.0043,-1.0052,-1.0106,-1.0257,-1.0423,-1.0492,-1.0739,-1.0993,-1.1119,-1.1299,-1.2004,-1.2211,-1.2305,-1.2305,-1.2305,-1.2305,-1.2268,-1.2305,-1.2305,-1.2305,-1.2298,-1.2298,-1.2305,-1.2305,-1.2305,-1.2305,-1.2305,-1.2305,-1.2305,-1.2305,-1.2305,-1.2258,-1.2171,-1.2291,-1.2285,-1.2278,-1.2285,-1.2305,-1.2305,-1.2305,-1.2305,-1.2305,-1.2305,-1.2305,-1.2305,-1.2298,-1.2225,-1.2164,-1.2218,-1.2238,-1.2218,-1.2251,-1.2238,-1.2064,-1.165,-1.1316,-1.1062,-1.1031,-1.117,-1.096,-1.0792,-1.0823,-1.1023,-1.1034,-1.1363,-1.1411,0.0,0.0,0.0,0.0,0.0,0.0,0.0,0.0,0.0,0.0,0.0,0.0,0.0,0.0,-0.1254,-0.1567,-0.184,-0.2657,-0.3515,-0.4178,-0.4572,-0.5279,-0.5867,-0.6103,-0.606,-0.6257,-0.6296,-0.6293,-0.6269,-0.5945,-0.5823,-0.5708,-0.5573,-0.5433,-0.5405,-0.5399,-0.5395,-0.5395,-0.5395,-0.5491,-0.5557,-0.562,-0.6108,-0.656,-0.7046,-0.7635,-0.8146,-0.8618,-0.8958,-0.9112,-0.8913,-0.8886,-0.8912,-0.8895,-0.8877,-0.8881,-0.9045,-0.9066,-0.9097,-1.1069,-1.1745,-1.1798,-1.1589,-1.1737,-1.204,-1.2157,-1.2077,-1.1922,-1.2184,-1.2258,-1.2278,-1.2258,-1.2211,-1.2238,-1.2225,-1.2271,-1.2271,-1.2204,-1.2184,-1.2131,-1.2017,-1.2,-1.2151,-1.2265,-1.2251,-1.2258,-1.2285,-1.2298,-1.2291,-1.2225,-1.2191,-1.2138,-1.2118,-1.2051,-1.2001,-1.2178,-1.2211,-1.2265,-1.2211,-1.2098,-1.2037,-1.1984,-1.1757,-1.1415,-1.1223,-1.0982,-1.0801,-1.0631,-1.0586,-1.0586,-1.0586,-1.0701,-1.0624,-1.0649,-1.0832,0.0628,0.0,0.0,0.0,0.0,0.0,0.0,0.0,0.0,0.0,0.0,0.0,0.0,0.0,0.0,0.0,-0.0784,-0.1606,-0.2503,-0.2698,-0.3322,-0.4297,-0.4963,-0.5315,-0.5589,-0.6141,-0.6293,-0.6148,-0.6098,-0.5878,-0.5745,-0.5627,-0.5511,-0.5409,-0.5395,-0.5395,-0.5395,-0.5395,-0.5395,-0.5428,-0.5395,-0.5428,-0.5557,-0.5943,-0.6363,-0.6856,-0.7291,-0.7669,-0.8037,-0.8244,-0.8066,-0.8059,-0.8168,-0.8198,-0.8275,-0.8354,-0.8581,-0.8784,-0.8834,-0.974,-1.0044,-1.0225,-1.0473,-1.0467,-1.0351,-1.0981,-1.1162,-1.1415,-1.1638,-1.1781,-1.2011,-1.1762,-1.1722,-1.1951,-1.2017,-1.2144,-1.2164,-1.2044,-1.1971,-1.1891,-1.1826,-1.1504,-1.1499,-1.1843,-1.1932,-1.1949,-1.1969,-1.2168,-1.2245,-1.2107,-1.2,-1.1884,-1.1824,-1.1708,-1.1708,-1.1917,-1.1991,-1.1984,-1.1897,-1.1757,-1.1717,-1.1724,-1.151,-1.1189,-1.1069,-1.0915,-1.0747,-1.0586,-1.0586,-1.0586,-1.0586,-1.0586,-1.0593,-1.0593,-1.0649,0.1176,0.0549,0.0157,0.0,0.0,0.0,0.0,0.0,0.0,0.0,0.0,0.0,0.0,0.0,0.0,0.0,0.0,-0.0667,-0.1489,-0.1606,-0.2229,-0.3203,-0.3867,-0.4217,-0.4766,-0.5461,-0.5723,-0.5654,-0.5996,-0.5827,-0.5654,-0.5552,-0.545,-0.5405,-0.5395,-0.5395,-0.5395,-0.5395,-0.5395,-0.5395,-0.5395,-0.5395,-0.5395,-0.5591,-0.5881,-0.6243,-0.64,-0.6778,-0.7203,-0.7304,-0.7295,-0.7245,-0.7379,-0.7411,-0.7377,-0.7427,-0.7473,-0.7592,-0.7611,-0.7604,-0.7856,-0.8019,-0.8631,-0.9215,-0.9346,-1.0008,-1.015,-1.0404,-1.0743,-1.0814,-1.0845,-1.0657,-1.0716,-1.0945,-1.1041,-1.1087,-1.1025,-1.0836,-1.0824,-1.085,-1.0757,-1.0604,-1.0644,-1.1246,-1.157,-1.1607,-1.1637,-1.1804,-1.1982,-1.1891,-1.1752,-1.1643,-1.1583,-1.1495,-1.1529,-1.1697,-1.1737,-1.1717,-1.1657,-1.1597,-1.1463,-1.147,-1.1236,-1.1022,-1.0882,-1.078,-1.0673,-1.0586,-1.0586,-1.0586,-1.0586,-1.0586,-1.0586,-1.0586,-1.0586,0.1685,0.145,0.0471,0.0,0.0,0.0,0.0,0.0,0.0,0.0,0.0,0.0,0.0,0.0,0.0,0.0,0.0,0.0,-0.0628,-0.1176,-0.1449,-0.2268,-0.2774,-0.3125,-0.3736,-0.4289,-0.4662,-0.4937,-0.5754,-0.5715,-0.5504,-0.545,-0.5412,-0.5395,-0.5395,-0.5395,-0.5395,-0.5395,-0.5395,-0.5395,-0.5395,-0.5395,-0.5395,-0.5458,-0.5557,-0.562,-0.5686,-0.5793,-0.576,-0.5704,-0.5631,-0.5561,-0.5502,-0.5428,-0.5428,-0.5502,-0.5652,-0.5809,-0.5956,-0.6089,-0.6077,-0.661,-0.7735,-0.8651,-0.8953,-0.8879,-0.9059,-0.914,-0.9344,-0.9188,-0.9082,-0.9053,-0.9069,-0.9203,-0.9326,-0.9291,-0.9221,-0.9189,-0.9211,-0.9155,-0.9007,-0.8967,-0.9209,-0.9786,-1.0601,-1.0388,-1.0361,-1.0625,-1.0909,-1.1494,-1.1389,-1.1396,-1.1349,-1.1302,-1.1362,-1.1456,-1.1483,-1.1463,-1.1637,-1.161,-1.1443,-1.1196,-1.0995,-1.0815,-1.0727,-1.0633,-1.06,-1.0586,-1.0586,-1.0586,-1.0586,-1.0586,-1.0586,-1.0586,-1.0586,0.2971,0.1607,0.1254,0.0706,0.0,0.0,0.0,0.0,0.0,0.0,0.0,0.0,0.0,0.0,0.0,0.0,0.0,0.0,0.0,0.0,0.0,0.0,-0.1683,-0.2109,-0.2712,-0.3211,-0.3618,-0.391,-0.4681,-0.5024,-0.5329,-0.5402,-0.5259,-0.5292,-0.5362,-0.5395,-0.5395,-0.5395,-0.5395,-0.5395,-0.5395,-0.5395,-0.5395,-0.5395,-0.5395,-0.5395,-0.5395,-0.5395,-0.5395,-0.5395,-0.5395,-0.5395,-0.5395,-0.5395,-0.5395,-0.5395,-0.5435,-0.5456,-0.5453,-0.5463,-0.5528,-0.5616,-0.6433,-0.6489,-0.6917,-0.7458,-0.783,-0.795,-0.811,-0.8125,-0.8067,-0.8054,-0.8068,-0.8139,-0.8232,-0.8204,-0.8156,-0.8126,-0.8136,-0.8078,-0.7913,-0.797,-0.8141,-0.8647,-0.9327,-0.9052,-0.908,-0.94,-0.9767,-1.0346,-1.0614,-1.0629,-1.081,-1.0711,-1.0976,-1.1109,-1.1149,-1.1236,-1.1403,-1.1443,-1.1176,-1.0935,-1.0794,-1.0693,-1.064,-1.0613,-1.0593,-1.0586,-1.0586,-1.0586,-1.0586,-1.0586,-1.0586,-1.0586,-1.0586,0.3947,0.2774,0.1898,0.0966,0.0,0.0,0.0,0.0,0.0,0.0,0.0,0.0,0.0,0.0,0.0,0.0,0.0,0.0,0.0,0.0,0.0,0.0,-0.0823,0.0,-0.1608,-0.2151,-0.2582,-0.2838,-0.3585,-0.4048,-0.4353,-0.4788,-0.4855,-0.5093,-0.5296,-0.5395,-0.5395,-0.5395,-0.5395,-0.5395,-0.5395,-0.5395,-0.5395,-0.5395,-0.5395,-0.5395,-0.5395,-0.5395,-0.5395,-0.5395,-0.5395,-0.5395,-0.5395,-0.5395,-0.5395,-0.5395,-0.5395,-0.5395,-0.5412,-0.5405,-0.5453,-0.5504,-0.5539,-0.5648,-0.5895,-0.6404,-0.6585,-0.6706,-0.7004,-0.7236,-0.7197,-0.7209,-0.7263,-0.7316,-0.7298,-0.7275,-0.7266,-0.7266,-0.7251,-0.7218,-0.7194,-0.722,-0.7456,-0.7906,-0.8121,-0.7968,-0.8118,-0.8492,-0.8755,-0.9063,-0.9294,-0.9321,-0.9746,-1.0046,-1.0341,-1.0568,-1.0719,-1.0857,-1.1116,-1.1089,-1.0855,-1.0748,-1.0616,-1.0601,-1.06,-1.0555,-1.0491,-1.0555,-1.0586,-1.0586,-1.0586,-1.0586,-1.0586,-1.0586,-1.0586,0.4732,0.4373,0.2431,0.1017,0.0189,0.0,0.0,0.0,0.0,0.0,0.0,0.0,0.0,0.0,0.0,0.0,0.0,0.0,0.0,0.0,0.0,0.0,0.0,0.0,0.0,-0.1183,-0.1482,-0.1759,-0.2495,-0.3053,-0.3513,-0.388,-0.3913,-0.4151,-0.4652,-0.499,-0.5024,-0.5024,-0.5259,-0.5395,-0.5395,-0.5395,-0.5395,-0.5395,-0.5395,-0.5395,-0.5395,-0.5395,-0.5395,-0.5395,-0.5395,-0.5395,-0.5395,-0.5395,-0.5395,-0.5395,-0.5395,-0.5395,-0.5395,-0.5395,-0.5395,-0.5409,-0.5399,-0.5433,-0.5634,-0.5786,-0.5942,-0.5984,-0.6264,-0.6363,-0.6356,-0.6321,-0.6359,-0.6383,-0.6348,-0.632,-0.6277,-0.6285,-0.6281,-0.6297,-0.6402,-0.6436,-0.6374,-0.6747,-0.7017,-0.6889,-0.6975,-0.7396,-0.7629,-0.7807,-0.8138,-0.8203,-0.877,-0.921,-0.9382,-0.9678,-1.0153,-1.0405,-1.0548,-1.0327,-0.9792,-1.0014,-1.0441,-1.0364,-1.0301,-1.0364,-1.0364,-1.0428,-1.0523,-1.0586,-1.0586,-1.0586,-1.0586,-1.0523,-1.0586,0.506,0.4137,0.2205,0.1211,0.0921,0.0264,0.0,0.0,0.0,0.0,0.0,0.0,0.0,0.0,0.0,0.0,0.0,0.0,0.0,0.0,0.0,0.0,0.0,0.0,0.0,-0.0252,-0.0492,-0.0864,-0.1599,-0.222,-0.2709,-0.2978,-0.3011,-0.3278,-0.3613,-0.4015,-0.435,-0.4386,-0.4821,-0.5057,-0.509,-0.5292,-0.5395,-0.5395,-0.5395,-0.5395,-0.5395,-0.5395,-0.5395,-0.5395,-0.5395,-0.5395,-0.5395,-0.5395,-0.5395,-0.5395,-0.5395,-0.5395,-0.5395,-0.5395,-0.5395,-0.5395,-0.5395,-0.5395,-0.5423,-0.5474,-0.5504,-0.5474,-0.5498,-0.5549,-0.5579,-0.5549,-0.5562,-0.5552,-0.5528,-0.5463,-0.5399,-0.5419,-0.5436,-0.5519,-0.566,-0.5653,-0.5557,-0.5624,-0.5785,-0.5851,-0.5818,-0.5984,-0.6115,-0.635,-0.7167,-0.7428,-0.7977,-0.8371,-0.8479,-0.8799,-0.9255,-0.9252,-0.9184,-0.8973,-0.8802,-0.9177,-0.962,-0.9881,-0.9945,-0.9843,-0.9907,-1.0269,-1.0364,-1.0231,-1.0199,-1.0034,-1.0269,-1.0301,-1.046,0.5437,0.4715,0.3228,0.2092,0.1297,0.0781,0.0378,0.0,0.0,0.0,0.0,0.0,0.0,0.0,0.0,0.0,0.0,0.0,0.0,0.0,0.0,0.0,0.0,0.0,0.0,0.0,0.0,-0.0375,0.0,-0.1108,-0.1509,-0.1977,-0.211,-0.2275,-0.2576,-0.3178,-0.3411,-0.348,-0.4048,-0.4248,-0.445,-0.4821,-0.5326,-0.5395,-0.5395,-0.5392,-0.5395,-0.5395,-0.5395,-0.5395,-0.5395,-0.5395,-0.5395,-0.5395,-0.5395,-0.5395,-0.5395,-0.5395,-0.5395,-0.5395,-0.5395,-0.5395,-0.5395,-0.5395,-0.5395,-0.544,-0.544,-0.5446,-0.5453,-0.546,-0.5525,-0.5521,-0.5566,-0.5532,-0.5494,-0.5419,-0.5395,-0.5405,-0.5412,-0.5439,-0.5524,-0.5524,-0.5462,-0.5462,-0.5591,-0.5591,-0.5458,-0.5425,-0.5428,-0.5426,-0.6102,-0.6618,-0.7157,-0.7423,-0.7521,-0.7877,-0.8397,-0.8227,-0.7971,-0.8196,-0.8328,-0.8522,-0.878,-0.8941,-0.9032,-0.8967,-0.9128,-0.9454,-0.9358,-0.9064,-0.9224,-0.939,-0.9684,-0.9881,-0.9779,0.5735,0.5603,0.4558,0.3227,0.1753,0.1354,0.0859,0.0,0.0,0.0,0.0,0.0,0.0,0.0,0.0,0.0,0.0,0.0,0.0,0.0,0.0,0.0,0.0,0.0,0.0,0.0,0.0,0.0,0.0,0.0,-0.0672,-0.1074,0.0,-0.1508,-0.2143,-0.2477,-0.2511,-0.2611,-0.2845,-0.2845,-0.3413,-0.4184,-0.4722,-0.5057,-0.5226,-0.5259,-0.5326,-0.5395,-0.5395,-0.5395,-0.5395,-0.5395,-0.5395,-0.5395,-0.5395,-0.5395,-0.5395,-0.5395,-0.5395,-0.5395,-0.5395,-0.5395,-0.5395,-0.5395,-0.5395,-0.5395,-0.5395,-0.5402,-0.5409,-0.546,-0.5491,-0.5552,-0.5569,-0.5528,-0.5477,-0.5395,-0.5395,-0.5395,-0.5395,-0.5395,-0.5395,-0.5395,-0.5395,-0.5395,-0.5395,-0.5395,-0.5395,-0.5395,-0.5409,-0.5467,-0.5794,-0.6082,-0.635,-0.6547,-0.6614,-0.6905,-0.7358,-0.7253,-0.7081,-0.7499,-0.78,-0.7832,-0.7864,-0.7897,-0.7957,-0.8118,-0.8151,-0.8318,-0.8124,-0.8091,-0.8447,-0.8769,-0.8839,-0.8973,-0.8807,0.5477,0.5379,0.4453,0.3797,0.326,0.196,0.117,0.093,0.0,0.0,0.0,0.0,0.0,0.0,0.0,0.0,0.0,0.0,0.0,0.0,0.0,0.0,0.0,0.0,0.0,0.0,0.0,0.0,0.0,0.0,0.0,0.0,0.0,0.0,-0.0572,-0.1041,-0.1575,-0.1709,-0.2111,-0.2379,-0.2479,-0.3113,-0.3547,-0.3949,-0.4284,-0.4755,-0.516,-0.5362,-0.5395,-0.5395,-0.5259,-0.5193,-0.5123,-0.5057,-0.5024,-0.5024,-0.5057,-0.5193,-0.519,-0.5326,-0.5359,-0.5395,-0.5395,-0.5395,-0.5395,-0.5395,-0.5402,-0.5419,-0.545,-0.5528,-0.5566,-0.5657,-0.5684,-0.5562,-0.5498,-0.5429,-0.5395,-0.5395,-0.5395,-0.5395,-0.5395,-0.5395,-0.5395,-0.5395,-0.5395,-0.5395,-0.5395,-0.5395,-0.5409,-0.5481,-0.5566,-0.5662,-0.5787,-0.5747,-0.5847,-0.5889,-0.6139,-0.6097,-0.6179,-0.6573,-0.6822,-0.6915,-0.6981,-0.6985,-0.7279,-0.7572,-0.754,-0.7246,-0.7535,-0.7605,-0.7929,-0.8156,-0.8188,-0.8032,-0.7832]}]]